Wetterdaten: Samstag, 22.07.2017
Datum Zeit Temp. A. Pool Temp. Feuchte A. Luftdruck Regen Wind Richtung Richtung Sonnenschein ET UV Solar Taupunkt Windchill Windben Empfang
22.07.2017 00:00 19,7 C 25,6 C 82 % 1010,7 hPa 0,0 l/m 4,2 km/h (1 Bft) O-SO 114 0 min 0,000 mm 0,0 UV-I 0 W/m 16,5 C 19,7 C 6,4 km/h (2 Bft) 97,56 %
22.07.2017 00:02 19,7 C 25,6 C 83 % 1010,7 hPa 0,0 l/m 4,5 km/h (1 Bft) SO 129 0 min 0,000 mm 0,0 UV-I 0 W/m 16,7 C 19,7 C 6,4 km/h (2 Bft) 100,00 %
22.07.2017 00:04 19,7 C 25,6 C 83 % 1010,7 hPa 0,0 l/m 4,8 km/h (1 Bft) SO 145 0 min 0,000 mm 0,0 UV-I 0 W/m 16,7 C 19,7 C 8,0 km/h (2 Bft) 97,87 %
22.07.2017 00:06 19,7 C 25,6 C 83 % 1010,7 hPa 0,0 l/m 5,8 km/h (2 Bft) O-SO 118 0 min 0,000 mm 0,0 UV-I 0 W/m 16,7 C 19,7 C 11,3 km/h (2 Bft) 97,87 %
22.07.2017 00:08 19,6 C 25,6 C 83 % 1010,6 hPa 0,0 l/m 5,4 km/h (1 Bft) SO 124 0 min 0,000 mm 0,0 UV-I 0 W/m 16,6 C 19,6 C 9,7 km/h (2 Bft) 98,00 %
22.07.2017 00:10 19,6 C 25,6 C 83 % 1010,6 hPa 0,0 l/m 6,1 km/h (2 Bft) O-SO 121 0 min 0,000 mm 0,0 UV-I 0 W/m 16,6 C 19,6 C 12,9 km/h (3 Bft) 100,00 %
22.07.2017 00:12 19,6 C 25,6 C 83 % 1010,5 hPa 0,0 l/m 10,1 km/h (2 Bft) O-SO 113 0 min 0,000 mm 0,0 UV-I 0 W/m 16,6 C 18,2 C 12,9 km/h (3 Bft) 97,87 %
22.07.2017 00:14 19,6 C 25,6 C 82 % 1010,4 hPa 0,0 l/m 9,4 km/h (2 Bft) O-SO 111 0 min 0,000 mm 0,0 UV-I 0 W/m 16,4 C 18,4 C 12,9 km/h (3 Bft) 100,00 %
22.07.2017 00:16 19,5 C 25,6 C 82 % 1010,3 hPa 0,0 l/m 10,5 km/h (2 Bft) O-SO 114 0 min 0,000 mm 0,0 UV-I 0 W/m 16,3 C 17,9 C 12,9 km/h (3 Bft) 100,00 %
22.07.2017 00:18 19,5 C 25,6 C 82 % 1010,2 hPa 0,0 l/m 10,2 km/h (2 Bft) O 99 0 min 0,000 mm 0,0 UV-I 0 W/m 16,3 C 18,0 C 14,5 km/h (3 Bft) 100,00 %
22.07.2017 00:20 19,5 C 25,6 C 82 % 1010,2 hPa 0,0 l/m 9,3 km/h (2 Bft) O-SO 102 0 min 0,000 mm 0,0 UV-I 0 W/m 16,3 C 18,3 C 12,9 km/h (3 Bft) 95,74 %
22.07.2017 00:22 19,5 C 25,6 C 81 % 1010,2 hPa 0,0 l/m 9,3 km/h (2 Bft) O-SO 118 0 min 0,000 mm 0,0 UV-I 0 W/m 16,1 C 18,3 C 12,9 km/h (3 Bft) 98,00 %
22.07.2017 00:24 19,5 C 25,6 C 81 % 1010,2 hPa 0,0 l/m 7,8 km/h (2 Bft) O-SO 114 0 min 0,000 mm 0,0 UV-I 0 W/m 16,1 C 18,9 C 12,9 km/h (3 Bft) 95,74 %
22.07.2017 00:26 19,6 C 25,6 C 81 % 1010,2 hPa 0,0 l/m 5,3 km/h (1 Bft) O-SO 117 0 min 0,000 mm 0,0 UV-I 0 W/m 16,2 C 19,6 C 9,7 km/h (2 Bft) 100,00 %
22.07.2017 00:28 19,5 C 25,6 C 81 % 1010,2 hPa 0,0 l/m 3,8 km/h (1 Bft) O-SO 117 0 min 0,000 mm 0,0 UV-I 0 W/m 16,1 C 19,5 C 6,4 km/h (2 Bft) 97,87 %
22.07.2017 00:30 19,6 C 25,6 C 81 % 1010,2 hPa 0,0 l/m 3,9 km/h (1 Bft) O-SO 113 0 min 0,000 mm 0,0 UV-I 0 W/m 16,2 C 19,6 C 11,3 km/h (2 Bft) 93,62 %
22.07.2017 00:32 19,6 C 25,6 C 81 % 1010,1 hPa 0,0 l/m 6,8 km/h (2 Bft) O-SO 109 0 min 0,000 mm 0,0 UV-I 0 W/m 16,2 C 19,4 C 11,3 km/h (2 Bft) 97,87 %
22.07.2017 00:34 19,6 C 25,6 C 82 % 1010,1 hPa 0,0 l/m 6,1 km/h (2 Bft) O-SO 121 0 min 0,000 mm 0,0 UV-I 0 W/m 16,4 C 19,6 C 9,7 km/h (2 Bft) 100,00 %
22.07.2017 00:36 19,6 C 25,6 C 82 % 1010,2 hPa 0,0 l/m 5,9 km/h (2 Bft) O-SO 123 0 min 0,000 mm 0,0 UV-I 0 W/m 16,4 C 19,6 C 9,7 km/h (2 Bft) 95,74 %
22.07.2017 00:38 19,6 C 25,6 C 82 % 1010,1 hPa 0,0 l/m 9,0 km/h (2 Bft) O-SO 109 0 min 0,000 mm 0,0 UV-I 0 W/m 16,4 C 18,6 C 14,5 km/h (3 Bft) 100,00 %
22.07.2017 00:40 19,5 C 25,6 C 82 % 1010,1 hPa 0,0 l/m 10,3 km/h (2 Bft) O-SO 106 0 min 0,000 mm 0,0 UV-I 0 W/m 16,3 C 18,0 C 12,9 km/h (3 Bft) 97,87 %
22.07.2017 00:42 19,5 C 25,6 C 81 % 1010,1 hPa 0,0 l/m 9,6 km/h (2 Bft) O 94 0 min 0,000 mm 0,0 UV-I 0 W/m 16,1 C 18,2 C 14,5 km/h (3 Bft) 97,87 %
22.07.2017 00:44 19,5 C 25,6 C 81 % 1010,1 hPa 0,0 l/m 10,8 km/h (2 Bft) O 86 0 min 0,000 mm 0,0 UV-I 0 W/m 16,1 C 17,8 C 16,1 km/h (3 Bft) 97,14 %
22.07.2017 00:46 19,4 C 25,6 C 81 % 1010,0 hPa 0,0 l/m 9,9 km/h (2 Bft) O 92 0 min 0,000 mm 0,0 UV-I 0 W/m 16,1 C 18,0 C 14,5 km/h (3 Bft) 100,00 %
22.07.2017 00:48 19,5 C 25,6 C 81 % 1009,9 hPa 0,0 l/m 9,5 km/h (2 Bft) O-SO 109 0 min 0,000 mm 0,0 UV-I 0 W/m 16,1 C 18,3 C 14,5 km/h (3 Bft) 100,00 %
22.07.2017 00:50 19,5 C 25,6 C 81 % 1009,9 hPa 0,0 l/m 11,0 km/h (2 Bft) O 101 0 min 0,000 mm 0,0 UV-I 0 W/m 16,1 C 17,8 C 17,7 km/h (3 Bft) 100,00 %
22.07.2017 00:52 19,5 C 25,6 C 81 % 1009,9 hPa 0,0 l/m 11,7 km/h (2 Bft) O-SO 106 0 min 0,000 mm 0,0 UV-I 0 W/m 16,1 C 17,5 C 16,1 km/h (3 Bft) 100,00 %
22.07.2017 00:54 19,5 C 25,6 C 81 % 1009,9 hPa 0,0 l/m 9,6 km/h (2 Bft) O-SO 102 0 min 0,000 mm 0,0 UV-I 0 W/m 16,1 C 18,2 C 12,9 km/h (3 Bft) 100,00 %
22.07.2017 00:56 19,6 C 25,6 C 81 % 1009,9 hPa 0,0 l/m 11,5 km/h (2 Bft) O-SO 109 0 min 0,000 mm 0,0 UV-I 0 W/m 16,2 C 17,7 C 14,5 km/h (3 Bft) 95,74 %
22.07.2017 00:58 19,6 C 25,6 C 81 % 1009,9 hPa 0,0 l/m 10,1 km/h (2 Bft) SO 134 0 min 0,000 mm 0,0 UV-I 0 W/m 16,2 C 18,2 C 16,1 km/h (3 Bft) 98,00 %
22.07.2017 01:00 19,6 C 25,6 C 80 % 1009,9 hPa 0,0 l/m 11,0 km/h (2 Bft) O-SO 115 0 min 0,025 mm 0,0 UV-I 0 W/m 16,1 C 17,9 C 16,1 km/h (3 Bft) 100,00 %
22.07.2017 01:02 19,6 C 25,6 C 80 % 1009,8 hPa 0,0 l/m 10,5 km/h (2 Bft) SO 126 0 min 0,000 mm 0,0 UV-I 0 W/m 16,1 C 18,0 C 14,5 km/h (3 Bft) 95,74 %
22.07.2017 01:04 19,6 C 25,6 C 80 % 1009,8 hPa 0,0 l/m 7,5 km/h (2 Bft) SO 134 0 min 0,000 mm 0,0 UV-I 0 W/m 16,1 C 19,1 C 12,9 km/h (3 Bft) 95,74 %
22.07.2017 01:06 19,6 C 25,6 C 80 % 1009,8 hPa 0,0 l/m 4,9 km/h (1 Bft) SO 130 0 min 0,000 mm 0,0 UV-I 0 W/m 16,1 C 19,6 C 8,0 km/h (2 Bft) 100,00 %
22.07.2017 01:08 19,6 C 25,6 C 80 % 1009,7 hPa 0,0 l/m 8,6 km/h (2 Bft) SO 128 0 min 0,000 mm 0,0 UV-I 0 W/m 16,1 C 18,7 C 16,1 km/h (3 Bft) 94,29 %
22.07.2017 01:10 19,6 C 25,6 C 80 % 1009,6 hPa 0,0 l/m 6,2 km/h (2 Bft) SO 131 0 min 0,000 mm 0,0 UV-I 0 W/m 16,1 C 19,6 C 11,3 km/h (2 Bft) 98,04 %
22.07.2017 01:12 19,6 C 25,6 C 80 % 1009,7 hPa 0,0 l/m 7,4 km/h (2 Bft) SO 126 0 min 0,000 mm 0,0 UV-I 0 W/m 16,1 C 19,2 C 11,3 km/h (2 Bft) 97,87 %
22.07.2017 01:14 19,6 C 25,6 C 80 % 1009,7 hPa 0,0 l/m 7,3 km/h (2 Bft) O-SO 123 0 min 0,000 mm 0,0 UV-I 0 W/m 16,1 C 19,2 C 12,9 km/h (3 Bft) 100,00 %
22.07.2017 01:16 19,7 C 25,6 C 79 % 1009,6 hPa 0,0 l/m 6,9 km/h (2 Bft) S-SO 150 0 min 0,000 mm 0,0 UV-I 0 W/m 16,0 C 19,5 C 12,9 km/h (3 Bft) 98,00 %
22.07.2017 01:18 19,7 C 25,6 C 79 % 1009,5 hPa 0,0 l/m 4,7 km/h (1 Bft) O-SO 117 0 min 0,000 mm 0,0 UV-I 0 W/m 16,0 C 19,7 C 6,4 km/h (2 Bft) 97,92 %
22.07.2017 01:20 19,7 C 25,6 C 79 % 1009,5 hPa 0,0 l/m 4,2 km/h (1 Bft) SO 146 0 min 0,000 mm 0,0 UV-I 0 W/m 16,0 C 19,7 C 8,0 km/h (2 Bft) 100,00 %
22.07.2017 01:22 19,7 C 25,6 C 79 % 1009,5 hPa 0,0 l/m 6,1 km/h (2 Bft) SO 125 0 min 0,000 mm 0,0 UV-I 0 W/m 16,0 C 19,7 C 9,7 km/h (2 Bft) 97,87 %
22.07.2017 01:24 19,7 C 25,6 C 79 % 1009,5 hPa 0,0 l/m 5,0 km/h (1 Bft) O-SO 107 0 min 0,000 mm 0,0 UV-I 0 W/m 16,0 C 19,7 C 8,0 km/h (2 Bft) 97,87 %
22.07.2017 01:26 19,7 C 25,6 C 79 % 1009,5 hPa 0,2 l/m 5,7 km/h (1 Bft) SO 138 0 min 0,000 mm 0,0 UV-I 0 W/m 16,0 C 19,7 C 11,3 km/h (2 Bft) 95,74 %
22.07.2017 01:28 19,7 C 25,6 C 79 % 1009,5 hPa 0,0 l/m 4,4 km/h (1 Bft) SO 133 0 min 0,000 mm 0,0 UV-I 0 W/m 16,0 C 19,7 C 8,0 km/h (2 Bft) 93,75 %
22.07.2017 01:30 19,7 C 25,6 C 79 % 1009,5 hPa 0,0 l/m 5,2 km/h (1 Bft) SO 133 0 min 0,000 mm 0,0 UV-I 0 W/m 16,0 C 19,7 C 11,3 km/h (2 Bft) 96,00 %
22.07.2017 01:32 19,7 C 25,6 C 79 % 1009,4 hPa 0,0 l/m 7,3 km/h (2 Bft) O-SO 120 0 min 0,000 mm 0,0 UV-I 0 W/m 16,0 C 19,3 C 12,9 km/h (3 Bft) 93,75 %
22.07.2017 01:34 19,7 C 25,6 C 79 % 1009,4 hPa 0,0 l/m 7,9 km/h (2 Bft) O-SO 107 0 min 0,000 mm 0,0 UV-I 0 W/m 16,0 C 19,1 C 12,9 km/h (3 Bft) 95,74 %
22.07.2017 01:36 19,7 C 25,6 C 79 % 1009,4 hPa 0,0 l/m 7,4 km/h (2 Bft) O-SO 120 0 min 0,000 mm 0,0 UV-I 0 W/m 16,0 C 19,3 C 12,9 km/h (3 Bft) 96,00 %
22.07.2017 01:38 19,7 C 25,6 C 79 % 1009,4 hPa 0,0 l/m 6,5 km/h (2 Bft) SO 140 0 min 0,000 mm 0,0 UV-I 0 W/m 16,0 C 19,7 C 11,3 km/h (2 Bft) 97,87 %
22.07.2017 01:40 19,7 C 25,6 C 79 % 1009,4 hPa 0,0 l/m 6,3 km/h (2 Bft) O-SO 113 0 min 0,000 mm 0,0 UV-I 0 W/m 16,0 C 19,7 C 12,9 km/h (3 Bft) 95,74 %
22.07.2017 01:42 19,7 C 25,6 C 79 % 1009,4 hPa 0,0 l/m 6,3 km/h (2 Bft) O-SO 111 0 min 0,000 mm 0,0 UV-I 0 W/m 16,0 C 19,7 C 11,3 km/h (2 Bft) 95,74 %
22.07.2017 01:44 19,7 C 25,6 C 78 % 1009,4 hPa 0,0 l/m 6,1 km/h (2 Bft) O-SO 113 0 min 0,000 mm 0,0 UV-I 0 W/m 15,8 C 19,7 C 11,3 km/h (2 Bft) 97,87 %
22.07.2017 01:46 19,7 C 25,6 C 78 % 1009,3 hPa 0,0 l/m 5,3 km/h (1 Bft) O-SO 122 0 min 0,000 mm 0,0 UV-I 0 W/m 15,8 C 19,7 C 9,7 km/h (2 Bft) 97,87 %
22.07.2017 01:48 19,7 C 25,0 C 78 % 1009,3 hPa 0,0 l/m 5,9 km/h (2 Bft) O-SO 107 0 min 0,000 mm 0,0 UV-I 0 W/m 15,8 C 19,7 C 11,3 km/h (2 Bft) 93,62 %
22.07.2017 01:50 19,7 C 25,0 C 79 % 1009,3 hPa 0,0 l/m 7,9 km/h (2 Bft) O-SO 121 0 min 0,000 mm 0,0 UV-I 0 W/m 16,0 C 19,1 C 11,3 km/h (2 Bft) 93,62 %
22.07.2017 01:52 19,7 C 25,0 C 79 % 1009,3 hPa 0,0 l/m 5,2 km/h (1 Bft) SO 126 0 min 0,000 mm 0,0 UV-I 0 W/m 16,0 C 19,7 C 11,3 km/h (2 Bft) 95,74 %
22.07.2017 01:54 19,7 C 25,0 C 79 % 1009,4 hPa 0,0 l/m 5,5 km/h (1 Bft) SO 126 0 min 0,000 mm 0,0 UV-I 0 W/m 16,0 C 19,7 C 11,3 km/h (2 Bft) 97,14 %
22.07.2017 01:56 19,7 C 25,0 C 79 % 1009,4 hPa 0,0 l/m 5,8 km/h (2 Bft) O-SO 120 0 min 0,000 mm 0,0 UV-I 0 W/m 16,0 C 19,7 C 9,7 km/h (2 Bft) 95,74 %
22.07.2017 01:58 19,7 C 25,0 C 79 % 1009,4 hPa 0,0 l/m 5,2 km/h (1 Bft) O-SO 123 0 min 0,000 mm 0,0 UV-I 0 W/m 16,0 C 19,7 C 8,0 km/h (2 Bft) 100,00 %
22.07.2017 02:00 19,7 C 25,0 C 79 % 1009,4 hPa 0,0 l/m 5,8 km/h (2 Bft) O-SO 105 0 min 0,026 mm 0,0 UV-I 0 W/m 16,0 C 19,7 C 9,7 km/h (2 Bft) 97,87 %
22.07.2017 02:02 19,6 C 25,0 C 79 % 1009,4 hPa 0,0 l/m 5,5 km/h (1 Bft) O-SO 111 0 min 0,000 mm 0,0 UV-I 0 W/m 15,9 C 19,6 C 9,7 km/h (2 Bft) 100,00 %
22.07.2017 02:04 19,6 C 25,0 C 79 % 1009,3 hPa 0,0 l/m 6,4 km/h (2 Bft) O-SO 119 0 min 0,000 mm 0,0 UV-I 0 W/m 15,9 C 19,6 C 11,3 km/h (2 Bft) 96,00 %
22.07.2017 02:06 19,6 C 25,0 C 79 % 1009,3 hPa 0,0 l/m 6,5 km/h (2 Bft) O 95 0 min 0,000 mm 0,0 UV-I 0 W/m 15,9 C 19,6 C 11,3 km/h (2 Bft) 97,87 %
22.07.2017 02:08 19,6 C 25,0 C 79 % 1009,2 hPa 0,0 l/m 7,9 km/h (2 Bft) O-SO 110 0 min 0,000 mm 0,0 UV-I 0 W/m 15,9 C 19,0 C 12,9 km/h (3 Bft) 97,92 %
22.07.2017 02:10 19,6 C 25,0 C 79 % 1009,2 hPa 0,0 l/m 5,1 km/h (1 Bft) O-SO 107 0 min 0,000 mm 0,0 UV-I 0 W/m 15,9 C 19,6 C 9,7 km/h (2 Bft) 100,00 %
22.07.2017 02:12 19,6 C 25,0 C 79 % 1009,2 hPa 0,0 l/m 6,0 km/h (2 Bft) O 97 0 min 0,000 mm 0,0 UV-I 0 W/m 15,9 C 19,6 C 9,7 km/h (2 Bft) 96,88 %
22.07.2017 02:14 19,6 C 25,0 C 79 % 1009,1 hPa 0,0 l/m 5,3 km/h (1 Bft) O-SO 106 0 min 0,000 mm 0,0 UV-I 0 W/m 15,9 C 19,6 C 9,7 km/h (2 Bft) 100,00 %
22.07.2017 02:16 19,5 C 25,0 C 79 % 1009,1 hPa 0,0 l/m 3,4 km/h (1 Bft) O-SO 106 0 min 0,000 mm 0,0 UV-I 0 W/m 15,8 C 19,5 C 6,4 km/h (2 Bft) 97,87 %
22.07.2017 02:18 19,5 C 25,0 C 79 % 1009,1 hPa 0,0 l/m 4,1 km/h (1 Bft) O-SO 106 0 min 0,000 mm 0,0 UV-I 0 W/m 15,8 C 19,5 C 9,7 km/h (2 Bft) 97,87 %
22.07.2017 02:20 19,5 C 25,0 C 79 % 1009,1 hPa 0,0 l/m 4,1 km/h (1 Bft) O 88 0 min 0,000 mm 0,0 UV-I 0 W/m 15,8 C 19,5 C 6,4 km/h (2 Bft) 100,00 %
22.07.2017 02:22 19,4 C 25,0 C 79 % 1009,1 hPa 0,0 l/m 3,1 km/h (1 Bft) O-SO 107 0 min 0,000 mm 0,0 UV-I 0 W/m 15,7 C 19,4 C 9,7 km/h (2 Bft) 97,87 %
22.07.2017 02:24 19,4 C 25,0 C 80 % 1009,1 hPa 0,0 l/m 2,4 km/h (1 Bft) SO 128 0 min 0,000 mm 0,0 UV-I 0 W/m 15,9 C 19,4 C 4,8 km/h (1 Bft) 100,00 %
22.07.2017 02:26 19,4 C 25,0 C 79 % 1009,1 hPa 0,0 l/m 3,3 km/h (1 Bft) SO 128 0 min 0,000 mm 0,0 UV-I 0 W/m 15,7 C 19,4 C 6,4 km/h (2 Bft) 97,87 %
22.07.2017 02:28 19,4 C 25,0 C 80 % 1009,1 hPa 0,0 l/m 3,7 km/h (1 Bft) O-SO 122 0 min 0,000 mm 0,0 UV-I 0 W/m 15,9 C 19,4 C 6,4 km/h (2 Bft) 97,87 %
22.07.2017 02:30 19,4 C 25,0 C 80 % 1009,1 hPa 0,0 l/m 2,7 km/h (1 Bft) O-SO 122 0 min 0,000 mm 0,0 UV-I 0 W/m 15,9 C 19,4 C 4,8 km/h (1 Bft) 97,87 %
22.07.2017 02:32 19,4 C 25,0 C 80 % 1009,1 hPa 0,0 l/m 1,5 km/h (1 Bft) O-SO 122 0 min 0,000 mm 0,0 UV-I 0 W/m 15,9 C 19,4 C 4,8 km/h (1 Bft) 100,00 %
22.07.2017 02:34 19,3 C 25,0 C 80 % 1009,1 hPa 0,0 l/m 1,3 km/h (1 Bft) O-SO 122 0 min 0,000 mm 0,0 UV-I 0 W/m 15,8 C 19,3 C 4,8 km/h (1 Bft) 97,87 %
22.07.2017 02:36 19,3 C 25,0 C 80 % 1009,0 hPa 0,0 l/m 2,4 km/h (1 Bft) O-SO 119 0 min 0,000 mm 0,0 UV-I 0 W/m 15,8 C 19,3 C 4,8 km/h (1 Bft) 97,87 %
22.07.2017 02:38 19,3 C 25,0 C 80 % 1009,0 hPa 0,0 l/m 3,8 km/h (1 Bft) O 84 0 min 0,000 mm 0,0 UV-I 0 W/m 15,8 C 19,3 C 4,8 km/h (1 Bft) 98,00 %
22.07.2017 02:40 19,3 C 25,0 C 80 % 1008,9 hPa 0,0 l/m 4,7 km/h (1 Bft) NO 44 0 min 0,000 mm 0,0 UV-I 0 W/m 15,8 C 19,3 C 6,4 km/h (2 Bft) 98,00 %
22.07.2017 02:42 19,2 C 25,0 C 80 % 1009,0 hPa 0,0 l/m 3,9 km/h (1 Bft) NO 43 0 min 0,000 mm 0,0 UV-I 0 W/m 15,7 C 19,2 C 4,8 km/h (1 Bft) 97,87 %
22.07.2017 02:44 19,2 C 25,0 C 81 % 1009,0 hPa 0,0 l/m 2,9 km/h (1 Bft) NO 42 0 min 0,000 mm 0,0 UV-I 0 W/m 15,9 C 19,2 C 6,4 km/h (2 Bft) 95,74 %
22.07.2017 02:46 19,1 C 25,0 C 81 % 1009,0 hPa 0,0 l/m 3,1 km/h (1 Bft) NO 42 0 min 0,000 mm 0,0 UV-I 0 W/m 15,8 C 19,1 C 4,8 km/h (1 Bft) 95,74 %
22.07.2017 02:48 19,1 C 25,0 C 81 % 1008,9 hPa 0,0 l/m 0,9 km/h (0 Bft) NO 41 0 min 0,000 mm 0,0 UV-I 0 W/m 15,8 C 19,1 C 3,2 km/h (1 Bft) 100,00 %
22.07.2017 02:50 18,9 C 25,0 C 81 % 1008,9 hPa 0,0 l/m 1,7 km/h (1 Bft) N-NO 33 0 min 0,000 mm 0,0 UV-I 0 W/m 15,6 C 18,9 C 4,8 km/h (1 Bft) 89,36 %
22.07.2017 02:52 18,8 C 25,0 C 82 % 1008,9 hPa 0,0 l/m 4,6 km/h (1 Bft) N-NO 23 0 min 0,000 mm 0,0 UV-I 0 W/m 15,7 C 18,8 C 8,0 km/h (2 Bft) 98,00 %
22.07.2017 02:54 18,8 C 25,0 C 82 % 1008,8 hPa 0,0 l/m 4,1 km/h (1 Bft) N-NO 24 0 min 0,000 mm 0,0 UV-I 0 W/m 15,7 C 18,8 C 6,4 km/h (2 Bft) 91,49 %
22.07.2017 02:56 18,7 C 25,0 C 82 % 1008,8 hPa 0,0 l/m 6,1 km/h (2 Bft) NO 50 0 min 0,000 mm 0,0 UV-I 0 W/m 15,6 C 18,7 C 8,0 km/h (2 Bft) 96,00 %
22.07.2017 02:58 18,6 C 25,0 C 83 % 1008,8 hPa 0,0 l/m 5,0 km/h (1 Bft) NO 48 0 min 0,000 mm 0,0 UV-I 0 W/m 15,7 C 18,6 C 6,4 km/h (2 Bft) 95,74 %
22.07.2017 03:00 18,6 C 25,0 C 83 % 1008,8 hPa 0,0 l/m 4,9 km/h (1 Bft) NO 54 0 min 0,025 mm 0,0 UV-I 0 W/m 15,7 C 18,6 C 6,4 km/h (2 Bft) 95,74 %
22.07.2017 03:02 18,4 C 25,0 C 84 % 1008,8 hPa 0,0 l/m 6,2 km/h (2 Bft) NO 46 0 min 0,000 mm 0,0 UV-I 0 W/m 15,6 C 18,4 C 8,0 km/h (2 Bft) 95,74 %
22.07.2017 03:04 18,4 C 25,0 C 84 % 1008,8 hPa 0,0 l/m 6,3 km/h (2 Bft) NO 37 0 min 0,000 mm 0,0 UV-I 0 W/m 15,6 C 18,4 C 8,0 km/h (2 Bft) 95,74 %
22.07.2017 03:06 18,3 C 25,0 C 84 % 1008,7 hPa 0,0 l/m 6,9 km/h (2 Bft) NO 35 0 min 0,000 mm 0,0 UV-I 0 W/m 15,5 C 18,1 C 9,7 km/h (2 Bft) 97,87 %
22.07.2017 03:08 18,3 C 25,0 C 84 % 1008,6 hPa 0,0 l/m 6,7 km/h (2 Bft) NO 50 0 min 0,000 mm 0,0 UV-I 0 W/m 15,5 C 18,2 C 9,7 km/h (2 Bft) 93,62 %
22.07.2017 03:10 18,2 C 25,0 C 84 % 1008,6 hPa 0,0 l/m 7,0 km/h (2 Bft) N-NO 24 0 min 0,000 mm 0,0 UV-I 0 W/m 15,4 C 17,9 C 9,7 km/h (2 Bft) 97,87 %
22.07.2017 03:12 18,2 C 25,0 C 85 % 1008,7 hPa 0,0 l/m 6,0 km/h (2 Bft) NO 47 0 min 0,000 mm 0,0 UV-I 0 W/m 15,6 C 18,2 C 8,0 km/h (2 Bft) 95,74 %
22.07.2017 03:14 18,2 C 25,0 C 85 % 1008,7 hPa 0,0 l/m 3,8 km/h (1 Bft) N-NO 33 0 min 0,000 mm 0,0 UV-I 0 W/m 15,6 C 18,2 C 6,4 km/h (2 Bft) 95,74 %
22.07.2017 03:16 18,1 C 25,0 C 85 % 1008,8 hPa 0,0 l/m 3,1 km/h (1 Bft) N-NO 33 0 min 0,000 mm 0,0 UV-I 0 W/m 15,5 C 18,1 C 4,8 km/h (1 Bft) 97,37 %
22.07.2017 03:18 18,1 C 25,0 C 85 % 1008,9 hPa 0,0 l/m 2,4 km/h (1 Bft) N-NO 33 0 min 0,000 mm 0,0 UV-I 0 W/m 15,5 C 18,1 C 4,8 km/h (1 Bft) 97,87 %
22.07.2017 03:20 18,1 C 25,0 C 85 % 1008,9 hPa 0,0 l/m 0,4 km/h (0 Bft) N-NO 33 0 min 0,000 mm 0,0 UV-I 0 W/m 15,5 C 18,1 C 3,2 km/h (1 Bft) 91,49 %
22.07.2017 03:22 18,1 C 25,0 C 85 % 1008,9 hPa 0,0 l/m 0,0 km/h (0 Bft) N-NO 33 0 min 0,000 mm 0,0 UV-I 0 W/m 15,5 C 18,1 C 1,6 km/h (1 Bft) 95,74 %
22.07.2017 03:24 18,0 C 25,0 C 85 % 1008,9 hPa 0,0 l/m 0,8 km/h (0 Bft) N-NO 33 0 min 0,000 mm 0,0 UV-I 0 W/m 15,4 C 18,0 C 3,2 km/h (1 Bft) 93,75 %
22.07.2017 03:26 18,0 C 25,0 C 86 % 1008,9 hPa 0,0 l/m 1,0 km/h (0 Bft) N-NO 33 0 min 0,000 mm 0,0 UV-I 0 W/m 15,6 C 18,0 C 3,2 km/h (1 Bft) 93,88 %
22.07.2017 03:28 17,9 C 25,0 C 86 % 1008,9 hPa 0,0 l/m 2,5 km/h (1 Bft) N-NO 33 0 min 0,000 mm 0,0 UV-I 0 W/m 15,5 C 17,9 C 4,8 km/h (1 Bft) 95,83 %
22.07.2017 03:30 17,9 C 25,0 C 86 % 1008,9 hPa 0,0 l/m 3,2 km/h (1 Bft) N-NO 33 0 min 0,000 mm 0,0 UV-I 0 W/m 15,5 C 17,9 C 6,4 km/h (2 Bft) 93,62 %
22.07.2017 03:32 17,9 C 25,0 C 86 % 1008,9 hPa 0,0 l/m 0,8 km/h (0 Bft) N-NO 33 0 min 0,000 mm 0,0 UV-I 0 W/m 15,5 C 17,9 C 3,2 km/h (1 Bft) 92,00 %
22.07.2017 03:34 17,9 C 25,0 C 86 % 1008,9 hPa 0,0 l/m 0,0 km/h (0 Bft) N-NO 33 0 min 0,000 mm 0,0 UV-I 0 W/m 15,5 C 17,9 C 0,0 km/h (0 Bft) 91,49 %
22.07.2017 03:36 17,8 C 25,0 C 86 % 1008,9 hPa 0,0 l/m 0,0 km/h (0 Bft) N-NO 33 0 min 0,000 mm 0,0 UV-I 0 W/m 15,4 C 17,8 C 0,0 km/h (0 Bft) 95,74 %
22.07.2017 03:38 17,8 C 25,0 C 86 % 1008,9 hPa 0,0 l/m 0,0 km/h (0 Bft) N-NO 33 0 min 0,000 mm 0,0 UV-I 0 W/m 15,4 C 17,8 C 0,0 km/h (0 Bft) 93,62 %
22.07.2017 03:40 17,8 C 25,0 C 86 % 1008,9 hPa 0,0 l/m 0,0 km/h (0 Bft) N-NO 33 0 min 0,000 mm 0,0 UV-I 0 W/m 15,4 C 17,8 C 0,0 km/h (0 Bft) 94,00 %
22.07.2017 03:42 17,8 C 25,0 C 86 % 1008,8 hPa 0,0 l/m 0,0 km/h (0 Bft) N-NO 33 0 min 0,000 mm 0,0 UV-I 0 W/m 15,4 C 17,8 C 0,0 km/h (0 Bft) 91,43 %
22.07.2017 03:44 17,8 C 25,0 C 87 % 1008,9 hPa 0,0 l/m 0,0 km/h (0 Bft) N-NO 33 0 min 0,000 mm 0,0 UV-I 0 W/m 15,6 C 17,8 C 0,0 km/h (0 Bft) 97,87 %
22.07.2017 03:46 17,8 C 25,0 C 87 % 1008,9 hPa 0,0 l/m 0,0 km/h (0 Bft) N-NO 33 0 min 0,000 mm 0,0 UV-I 0 W/m 15,6 C 17,8 C 0,0 km/h (0 Bft) 95,74 %
22.07.2017 03:48 17,7 C 25,0 C 87 % 1009,0 hPa 0,0 l/m 0,0 km/h (0 Bft) N-NO 33 0 min 0,000 mm 0,0 UV-I 0 W/m 15,5 C 17,7 C 0,0 km/h (0 Bft) 95,74 %
22.07.2017 03:50 17,7 C 25,0 C 87 % 1009,0 hPa 0,0 l/m 0,0 km/h (0 Bft) N-NO 33 0 min 0,000 mm 0,0 UV-I 0 W/m 15,5 C 17,7 C 0,0 km/h (0 Bft) 95,74 %
22.07.2017 03:52 17,7 C 25,0 C 87 % 1009,0 hPa 0,0 l/m 1,1 km/h (1 Bft) N-NO 33 0 min 0,000 mm 0,0 UV-I 0 W/m 15,5 C 17,7 C 3,2 km/h (1 Bft) 95,83 %
22.07.2017 03:54 17,7 C 25,0 C 87 % 1008,9 hPa 0,0 l/m 0,6 km/h (0 Bft) N-NO 33 0 min 0,000 mm 0,0 UV-I 0 W/m 15,5 C 17,7 C 1,6 km/h (1 Bft) 96,00 %
22.07.2017 03:56 17,6 C 25,0 C 87 % 1009,0 hPa 0,0 l/m 0,0 km/h (0 Bft) N-NO 33 0 min 0,000 mm 0,0 UV-I 0 W/m 15,4 C 17,6 C 0,0 km/h (0 Bft) 95,74 %
22.07.2017 03:58 17,6 C 25,0 C 87 % 1009,0 hPa 0,0 l/m 0,0 km/h (0 Bft) N-NO 33 0 min 0,000 mm 0,0 UV-I 0 W/m 15,4 C 17,6 C 1,6 km/h (1 Bft) 97,87 %
22.07.2017 04:00 17,6 C 25,0 C 87 % 1009,0 hPa 0,0 l/m 0,0 km/h (0 Bft) N-NO 33 0 min 0,000 mm 0,0 UV-I 0 W/m 15,4 C 17,6 C 0,0 km/h (0 Bft) 100,00 %
22.07.2017 04:02 17,5 C 25,0 C 87 % 1009,0 hPa 0,0 l/m 0,0 km/h (0 Bft) N-NO 33 0 min 0,000 mm 0,0 UV-I 0 W/m 15,3 C 17,5 C 0,0 km/h (0 Bft) 87,50 %
22.07.2017 04:04 17,4 C 25,0 C 87 % 1009,1 hPa 0,0 l/m 0,8 km/h (0 Bft) N-NO 33 0 min 0,000 mm 0,0 UV-I 0 W/m 15,2 C 17,4 C 3,2 km/h (1 Bft) 100,00 %
22.07.2017 04:06 17,4 C 25,0 C 87 % 1009,2 hPa 0,0 l/m 2,8 km/h (1 Bft) N-NO 33 0 min 0,000 mm 0,0 UV-I 0 W/m 15,2 C 17,4 C 3,2 km/h (1 Bft) 97,87 %
22.07.2017 04:08 17,4 C 25,0 C 87 % 1009,2 hPa 0,0 l/m 3,2 km/h (1 Bft) N-NO 33 0 min 0,000 mm 0,0 UV-I 0 W/m 15,2 C 17,4 C 4,8 km/h (1 Bft) 98,00 %
22.07.2017 04:10 17,4 C 25,0 C 88 % 1009,3 hPa 0,0 l/m 4,2 km/h (1 Bft) N-NO 32 0 min 0,000 mm 0,0 UV-I 0 W/m 15,4 C 17,4 C 4,8 km/h (1 Bft) 100,00 %
22.07.2017 04:12 17,3 C 25,0 C 88 % 1009,3 hPa 0,0 l/m 5,0 km/h (1 Bft) N-NO 32 0 min 0,000 mm 0,0 UV-I 0 W/m 15,3 C 17,3 C 6,4 km/h (2 Bft) 97,92 %
22.07.2017 04:14 17,3 C 25,0 C 88 % 1009,3 hPa 0,0 l/m 5,7 km/h (1 Bft) N-NO 32 0 min 0,000 mm 0,0 UV-I 0 W/m 15,3 C 17,3 C 8,0 km/h (2 Bft) 94,00 %
22.07.2017 04:16 17,3 C 25,0 C 88 % 1009,3 hPa 0,0 l/m 5,5 km/h (1 Bft) N-NO 32 0 min 0,000 mm 0,0 UV-I 0 W/m 15,3 C 17,3 C 6,4 km/h (2 Bft) 95,74 %
22.07.2017 04:19 17,2 C 25,0 C 88 % 1009,8 hPa 0,0 l/m 7,2 km/h (2 Bft) S-SW 201 0 min 0,000 mm 0,0 UV-I 0 W/m 15,2 C 16,8 C 12,9 km/h (3 Bft) 98,57 %
22.07.2017 04:20 17,2 C 25,0 C 88 % 1010,1 hPa 0,0 l/m 15,1 km/h (3 Bft) W-SW 238 0 min 0,000 mm 0,0 UV-I 0 W/m 15,2 C 13,8 C 20,9 km/h (4 Bft) 95,83 %
22.07.2017 04:22 17,1 C 25,0 C 89 % 1010,3 hPa 0,0 l/m 17,6 km/h (3 Bft) SW 223 0 min 0,000 mm 0,0 UV-I 0 W/m 15,3 C 13,0 C 27,4 km/h (4 Bft) 97,37 %
22.07.2017 04:24 17,1 C 25,0 C 89 % 1010,2 hPa 0,0 l/m 17,2 km/h (3 Bft) W-SW 242 0 min 0,000 mm 0,0 UV-I 0 W/m 15,3 C 13,1 C 27,4 km/h (4 Bft) 97,87 %
22.07.2017 04:26 17,1 C 25,0 C 89 % 1010,2 hPa 0,0 l/m 11,7 km/h (2 Bft) W-SW 239 0 min 0,000 mm 0,0 UV-I 0 W/m 15,3 C 14,8 C 17,7 km/h (3 Bft) 98,00 %
22.07.2017 04:28 17,1 C 25,0 C 90 % 1010,4 hPa 0,0 l/m 14,2 km/h (3 Bft) W-SW 239 0 min 0,000 mm 0,0 UV-I 0 W/m 15,4 C 14,0 C 22,5 km/h (4 Bft) 100,00 %
22.07.2017 04:30 17,1 C 25,0 C 90 % 1010,3 hPa 0,0 l/m 12,6 km/h (3 Bft) W-SW 240 0 min 0,000 mm 0,0 UV-I 0 W/m 15,4 C 14,5 C 20,9 km/h (4 Bft) 97,87 %
22.07.2017 04:32 17,1 C 25,0 C 90 % 1010,3 hPa 0,0 l/m 13,6 km/h (3 Bft) W-SW 257 0 min 0,000 mm 0,0 UV-I 0 W/m 15,4 C 14,2 C 20,9 km/h (4 Bft) 100,00 %
22.07.2017 04:34 17,1 C 25,0 C 90 % 1010,4 hPa 0,0 l/m 14,1 km/h (3 Bft) SW 217 0 min 0,000 mm 0,0 UV-I 0 W/m 15,4 C 14,0 C 19,3 km/h (3 Bft) 98,00 %
22.07.2017 04:36 17,1 C 25,0 C 90 % 1010,3 hPa 0,0 l/m 9,4 km/h (2 Bft) SW 235 0 min 0,000 mm 0,0 UV-I 0 W/m 15,4 C 15,7 C 14,5 km/h (3 Bft) 100,00 %
22.07.2017 04:38 17,1 C 25,0 C 90 % 1010,4 hPa 0,0 l/m 10,1 km/h (2 Bft) SW 235 0 min 0,000 mm 0,0 UV-I 0 W/m 15,4 C 15,4 C 14,5 km/h (3 Bft) 96,00 %
22.07.2017 04:40 17,1 C 25,0 C 90 % 1010,3 hPa 0,0 l/m 6,7 km/h (2 Bft) SW 225 0 min 0,000 mm 0,0 UV-I 0 W/m 15,4 C 17,0 C 16,1 km/h (3 Bft) 100,00 %
22.07.2017 04:42 17,1 C 25,0 C 90 % 1010,4 hPa 0,0 l/m 7,2 km/h (2 Bft) SW 222 0 min 0,000 mm 0,0 UV-I 0 W/m 15,4 C 16,7 C 12,9 km/h (3 Bft) 93,62 %
22.07.2017 04:44 17,1 C 25,0 C 90 % 1010,4 hPa 0,0 l/m 7,0 km/h (2 Bft) W-SW 238 0 min 0,000 mm 0,0 UV-I 0 W/m 15,4 C 16,8 C 11,3 km/h (2 Bft) 97,87 %
22.07.2017 04:46 17,1 C 25,0 C 90 % 1010,5 hPa 0,0 l/m 7,9 km/h (2 Bft) SW 234 0 min 0,000 mm 0,0 UV-I 0 W/m 15,4 C 16,4 C 11,3 km/h (2 Bft) 100,00 %
22.07.2017 04:48 17,1 C 25,0 C 90 % 1010,6 hPa 0,0 l/m 10,5 km/h (2 Bft) SW 230 0 min 0,000 mm 0,0 UV-I 0 W/m 15,4 C 15,2 C 16,1 km/h (3 Bft) 97,92 %
22.07.2017 04:50 17,1 C 25,0 C 90 % 1010,6 hPa 0,0 l/m 9,4 km/h (2 Bft) SW 234 0 min 0,000 mm 0,0 UV-I 0 W/m 15,4 C 15,7 C 12,9 km/h (3 Bft) 100,00 %
22.07.2017 04:52 17,1 C 25,0 C 90 % 1010,7 hPa 0,0 l/m 8,2 km/h (2 Bft) S-SW 205 0 min 0,000 mm 0,0 UV-I 0 W/m 15,4 C 16,2 C 12,9 km/h (3 Bft) 98,00 %
22.07.2017 04:54 17,0 C 25,0 C 90 % 1010,7 hPa 0,0 l/m 9,8 km/h (2 Bft) S-SW 194 0 min 0,000 mm 0,0 UV-I 0 W/m 15,3 C 15,4 C 14,5 km/h (3 Bft) 100,00 %
22.07.2017 04:56 17,0 C 25,0 C 90 % 1010,9 hPa 0,0 l/m 10,1 km/h (2 Bft) S-SW 209 0 min 0,000 mm 0,0 UV-I 0 W/m 15,3 C 15,3 C 16,1 km/h (3 Bft) 97,87 %
22.07.2017 04:58 16,9 C 25,0 C 90 % 1010,9 hPa 0,0 l/m 9,4 km/h (2 Bft) S-SW 211 0 min 0,000 mm 0,0 UV-I 0 W/m 15,2 C 15,5 C 16,1 km/h (3 Bft) 97,37 %
22.07.2017 05:00 16,9 C 25,0 C 90 % 1010,9 hPa 0,0 l/m 9,1 km/h (2 Bft) W-SW 250 0 min 0,026 mm 0,0 UV-I 0 W/m 15,2 C 15,6 C 12,9 km/h (3 Bft) 97,87 %
22.07.2017 05:02 16,9 C 25,0 C 90 % 1010,9 hPa 0,0 l/m 12,1 km/h (2 Bft) SW 228 0 min 0,000 mm 0,0 UV-I 0 W/m 15,2 C 14,4 C 17,7 km/h (3 Bft) 97,87 %
22.07.2017 05:04 16,9 C 25,0 C 90 % 1010,9 hPa 0,0 l/m 9,8 km/h (2 Bft) W-SW 254 0 min 0,000 mm 0,0 UV-I 0 W/m 15,2 C 15,3 C 17,7 km/h (3 Bft) 100,00 %
22.07.2017 05:06 16,9 C 25,0 C 90 % 1010,9 hPa 0,0 l/m 11,0 km/h (2 Bft) W 278 0 min 0,000 mm 0,0 UV-I 0 W/m 15,2 C 14,8 C 17,7 km/h (3 Bft) 97,87 %
22.07.2017 05:08 16,9 C 25,0 C 90 % 1011,0 hPa 0,0 l/m 15,2 km/h (3 Bft) SW 233 0 min 0,000 mm 0,0 UV-I 0 W/m 15,2 C 13,4 C 22,5 km/h (4 Bft) 96,00 %
22.07.2017 05:10 16,9 C 25,0 C 90 % 1011,0 hPa 0,0 l/m 12,6 km/h (3 Bft) W 275 0 min 0,000 mm 0,0 UV-I 0 W/m 15,2 C 14,3 C 19,3 km/h (3 Bft) 100,00 %
22.07.2017 05:12 17,0 C 25,0 C 90 % 1011,0 hPa 0,0 l/m 13,3 km/h (3 Bft) SW 216 0 min 0,000 mm 0,0 UV-I 3 W/m 15,3 C 14,1 C 20,9 km/h (4 Bft) 97,87 %
22.07.2017 05:14 17,0 C 25,0 C 90 % 1011,0 hPa 0,0 l/m 15,6 km/h (3 Bft) W-SW 246 0 min 0,000 mm 0,0 UV-I 5 W/m 15,3 C 13,4 C 22,5 km/h (4 Bft) 93,62 %
22.07.2017 05:16 17,1 C 25,0 C 90 % 1011,0 hPa 0,0 l/m 15,7 km/h (3 Bft) S-SW 211 0 min 0,000 mm 0,0 UV-I 5 W/m 15,4 C 13,5 C 25,7 km/h (4 Bft) 100,00 %
22.07.2017 05:18 17,1 C 25,0 C 90 % 1011,1 hPa 0,0 l/m 17,2 km/h (3 Bft) SW 227 0 min 0,000 mm 0,0 UV-I 5 W/m 15,4 C 13,1 C 22,5 km/h (4 Bft) 97,87 %
22.07.2017 05:20 17,1 C 25,0 C 90 % 1011,1 hPa 0,0 l/m 12,5 km/h (3 Bft) W 275 0 min 0,000 mm 0,0 UV-I 6 W/m 15,4 C 14,5 C 17,7 km/h (3 Bft) 97,96 %
22.07.2017 05:22 17,1 C 25,0 C 89 % 1011,1 hPa 0,0 l/m 12,1 km/h (2 Bft) W-SW 245 0 min 0,000 mm 0,0 UV-I 7 W/m 15,3 C 14,7 C 19,3 km/h (3 Bft) 97,22 %
22.07.2017 05:24 17,2 C 25,0 C 89 % 1011,1 hPa 0,0 l/m 14,7 km/h (3 Bft) W-SW 240 0 min 0,000 mm 0,0 UV-I 8 W/m 15,4 C 13,9 C 20,9 km/h (4 Bft) 100,00 %
22.07.2017 05:26 17,2 C 25,0 C 89 % 1011,2 hPa 0,0 l/m 13,8 km/h (3 Bft) SW 221 0 min 0,000 mm 0,0 UV-I 9 W/m 15,4 C 14,2 C 20,9 km/h (4 Bft) 100,00 %
22.07.2017 05:28 17,2 C 25,0 C 89 % 1011,2 hPa 0,0 l/m 10,3 km/h (2 Bft) S-SW 207 0 min 0,000 mm 0,0 UV-I 9 W/m 15,4 C 15,4 C 16,1 km/h (3 Bft) 97,87 %
22.07.2017 05:30 17,2 C 25,0 C 89 % 1011,1 hPa 0,0 l/m 12,8 km/h (3 Bft) SW 227 0 min 0,000 mm 0,0 UV-I 10 W/m 15,4 C 14,5 C 20,9 km/h (4 Bft) 98,00 %
22.07.2017 05:32 17,2 C 25,0 C 89 % 1011,1 hPa 0,0 l/m 14,1 km/h (3 Bft) SW 228 0 min 0,000 mm 0,0 UV-I 11 W/m 15,4 C 14,1 C 25,7 km/h (4 Bft) 97,87 %
22.07.2017 05:34 17,2 C 25,0 C 89 % 1011,2 hPa 0,0 l/m 12,4 km/h (3 Bft) SW 229 0 min 0,000 mm 0,0 UV-I 12 W/m 15,4 C 14,7 C 20,9 km/h (4 Bft) 95,74 %
22.07.2017 05:36 17,3 C 24,4 C 89 % 1011,3 hPa 0,0 l/m 14,4 km/h (3 Bft) W-SW 245 0 min 0,000 mm 0,0 UV-I 12 W/m 15,5 C 14,2 C 17,7 km/h (3 Bft) 97,87 %
22.07.2017 05:38 17,3 C 25,0 C 89 % 1011,3 hPa 0,0 l/m 11,9 km/h (2 Bft) SW 236 0 min 0,000 mm 0,0 UV-I 14 W/m 15,5 C 15,0 C 22,5 km/h (4 Bft) 90,57 %
22.07.2017 05:40 17,3 C 25,0 C 89 % 1011,3 hPa 0,0 l/m 11,8 km/h (2 Bft) SW 225 2 min 0,000 mm 0,0 UV-I 15 W/m 15,5 C 15,0 C 19,3 km/h (3 Bft) 91,43 %
22.07.2017 05:42 17,3 C 25,0 C 89 % 1011,3 hPa 0,0 l/m 12,2 km/h (2 Bft) W-SW 242 2 min 0,000 mm 0,0 UV-I 16 W/m 15,5 C 14,9 C 19,3 km/h (3 Bft) 95,74 %
22.07.2017 05:44 17,4 C 24,4 C 89 % 1011,3 hPa 0,0 l/m 11,2 km/h (2 Bft) W-SW 249 2 min 0,000 mm 0,0 UV-I 18 W/m 15,6 C 15,3 C 24,1 km/h (4 Bft) 97,87 %
22.07.2017 05:46 17,4 C 24,4 C 89 % 1011,4 hPa 0,0 l/m 11,5 km/h (2 Bft) W-SW 238 2 min 0,000 mm 0,0 UV-I 19 W/m 15,6 C 15,2 C 16,1 km/h (3 Bft) 90,00 %
22.07.2017 05:48 17,5 C 24,4 C 89 % 1011,4 hPa 0,0 l/m 10,1 km/h (2 Bft) SW 232 2 min 0,000 mm 0,0 UV-I 21 W/m 15,7 C 15,8 C 14,5 km/h (3 Bft) 93,62 %
22.07.2017 05:50 17,5 C 25,0 C 89 % 1011,5 hPa 0,0 l/m 12,0 km/h (2 Bft) SW 227 2 min 0,000 mm 0,0 UV-I 24 W/m 15,7 C 15,2 C 17,7 km/h (3 Bft) 93,62 %
22.07.2017 05:52 17,6 C 24,4 C 88 % 1011,5 hPa 0,0 l/m 10,9 km/h (2 Bft) W-SW 244 2 min 0,000 mm 0,0 UV-I 27 W/m 15,6 C 15,7 C 19,3 km/h (3 Bft) 93,62 %
22.07.2017 05:54 17,6 C 24,4 C 88 % 1011,5 hPa 0,0 l/m 11,8 km/h (2 Bft) W-SW 257 2 min 0,000 mm 0,0 UV-I 31 W/m 15,6 C 15,3 C 17,7 km/h (3 Bft) 97,87 %
22.07.2017 05:56 17,6 C 24,4 C 88 % 1011,5 hPa 0,0 l/m 11,7 km/h (2 Bft) SW 227 2 min 0,000 mm 0,0 UV-I 34 W/m 15,6 C 15,4 C 17,7 km/h (3 Bft) 95,74 %
22.07.2017 05:58 17,7 C 24,4 C 88 % 1011,5 hPa 0,0 l/m 9,8 km/h (2 Bft) S-SW 209 2 min 0,000 mm 0,0 UV-I 36 W/m 15,7 C 16,2 C 16,1 km/h (3 Bft) 95,74 %
22.07.2017 06:00 17,7 C 24,4 C 88 % 1011,5 hPa 0,0 l/m 9,9 km/h (2 Bft) SW 217 2 min 0,025 mm 0,0 UV-I 39 W/m 15,7 C 16,1 C 14,5 km/h (3 Bft) 95,74 %
22.07.2017 06:02 17,7 C 24,4 C 88 % 1011,5 hPa 0,0 l/m 11,3 km/h (2 Bft) S-SW 212 2 min 0,000 mm 0,0 UV-I 42 W/m 15,7 C 15,6 C 19,3 km/h (3 Bft) 97,87 %
22.07.2017 06:04 17,8 C 24,4 C 87 % 1011,6 hPa 0,0 l/m 11,5 km/h (2 Bft) W 261 2 min 0,000 mm 0,0 UV-I 46 W/m 15,6 C 15,7 C 17,7 km/h (3 Bft) 97,92 %
22.07.2017 06:06 17,8 C 24,4 C 87 % 1011,6 hPa 0,0 l/m 12,7 km/h (3 Bft) SW 227 0 min 0,000 mm 0,0 UV-I 44 W/m 15,6 C 15,3 C 17,7 km/h (3 Bft) 93,62 %
22.07.2017 06:08 17,9 C 24,4 C 87 % 1011,6 hPa 0,0 l/m 13,2 km/h (3 Bft) SW 234 0 min 0,000 mm 0,0 UV-I 41 W/m 15,7 C 15,2 C 19,3 km/h (3 Bft) 97,87 %
22.07.2017 06:10 17,9 C 24,4 C 87 % 1011,6 hPa 0,0 l/m 12,2 km/h (2 Bft) S-SW 205 0 min 0,000 mm 0,0 UV-I 46 W/m 15,7 C 15,5 C 17,7 km/h (3 Bft) 98,00 %
22.07.2017 06:12 18,0 C 24,4 C 87 % 1011,7 hPa 0,0 l/m 14,8 km/h (3 Bft) SW 227 0 min 0,000 mm 0,0 UV-I 53 W/m 15,8 C 14,9 C 20,9 km/h (4 Bft) 97,87 %
22.07.2017 06:14 18,1 C 24,4 C 86 % 1011,6 hPa 0,0 l/m 11,9 km/h (2 Bft) W-SW 252 2 min 0,000 mm 0,0 UV-I 59 W/m 15,7 C 15,9 C 20,9 km/h (4 Bft) 100,00 %
22.07.2017 06:16 18,1 C 24,4 C 86 % 1011,6 hPa 0,0 l/m 13,4 km/h (3 Bft) SW 214 2 min 0,000 mm 0,0 UV-I 62 W/m 15,7 C 15,4 C 17,7 km/h (3 Bft) 97,37 %
22.07.2017 06:18 18,1 C 24,4 C 86 % 1011,6 hPa 0,0 l/m 12,5 km/h (3 Bft) SW 234 0 min 0,000 mm 0,0 UV-I 61 W/m 15,7 C 15,7 C 19,3 km/h (3 Bft) 100,00 %
22.07.2017 06:20 18,2 C 24,4 C 86 % 1011,6 hPa 0,0 l/m 13,5 km/h (3 Bft) W-SW 248 0 min 0,000 mm 0,0 UV-I 55 W/m 15,8 C 15,5 C 20,9 km/h (4 Bft) 95,74 %
22.07.2017 06:22 18,2 C 24,4 C 86 % 1011,6 hPa 0,0 l/m 13,9 km/h (3 Bft) W-SW 248 0 min 0,000 mm 0,0 UV-I 49 W/m 15,8 C 15,4 C 19,3 km/h (3 Bft) 96,00 %
22.07.2017 06:24 18,3 C 24,4 C 86 % 1011,6 hPa 0,0 l/m 11,0 km/h (2 Bft) W-SW 238 0 min 0,000 mm 0,0 UV-I 52 W/m 15,9 C 16,4 C 17,7 km/h (3 Bft) 98,00 %
22.07.2017 06:26 18,3 C 24,4 C 85 % 1011,6 hPa 0,0 l/m 12,4 km/h (3 Bft) W-SW 238 0 min 0,000 mm 0,0 UV-I 56 W/m 15,7 C 15,9 C 20,9 km/h (4 Bft) 95,74 %
22.07.2017 06:28 18,3 C 24,4 C 85 % 1011,8 hPa 0,0 l/m 12,3 km/h (3 Bft) SW 218 0 min 0,000 mm 0,0 UV-I 77 W/m 15,7 C 16,0 C 20,9 km/h (4 Bft) 95,74 %
22.07.2017 06:30 18,4 C 24,4 C 85 % 1011,6 hPa 0,0 l/m 13,7 km/h (3 Bft) SW 227 2 min 0,000 mm 0,0 UV-I 88 W/m 15,8 C 15,7 C 22,5 km/h (4 Bft) 93,62 %
22.07.2017 06:32 18,4 C 24,4 C 84 % 1011,7 hPa 0,0 l/m 12,5 km/h (3 Bft) S 188 2 min 0,000 mm 0,0 UV-I 91 W/m 15,6 C 16,0 C 17,7 km/h (3 Bft) 96,00 %
22.07.2017 06:34 18,5 C 24,4 C 84 % 1011,8 hPa 0,0 l/m 12,2 km/h (2 Bft) W-SW 244 2 min 0,000 mm 0,0 UV-I 96 W/m 15,7 C 16,2 C 17,7 km/h (3 Bft) 97,14 %
22.07.2017 06:36 18,6 C 24,4 C 84 % 1011,8 hPa 0,0 l/m 12,4 km/h (3 Bft) SW 229 2 min 0,000 mm 0,0 UV-I 99 W/m 15,8 C 16,3 C 17,7 km/h (3 Bft) 92,00 %
22.07.2017 06:38 18,6 C 24,4 C 84 % 1011,8 hPa 0,0 l/m 11,2 km/h (2 Bft) SW 226 2 min 0,000 mm 0,0 UV-I 102 W/m 15,8 C 16,7 C 19,3 km/h (3 Bft) 95,74 %
22.07.2017 06:40 18,7 C 24,4 C 84 % 1011,9 hPa 0,0 l/m 10,9 km/h (2 Bft) W-SW 239 2 min 0,000 mm 0,0 UV-I 109 W/m 15,9 C 16,9 C 14,5 km/h (3 Bft) 97,87 %
22.07.2017 06:42 18,7 C 24,4 C 83 % 1011,9 hPa 0,0 l/m 12,0 km/h (2 Bft) SW 225 2 min 0,000 mm 0,0 UV-I 114 W/m 15,8 C 16,5 C 17,7 km/h (3 Bft) 97,92 %
22.07.2017 06:44 18,7 C 24,4 C 83 % 1011,9 hPa 0,0 l/m 8,2 km/h (2 Bft) SW 221 2 min 0,000 mm 0,0 UV-I 117 W/m 15,8 C 17,9 C 16,1 km/h (3 Bft) 95,74 %
22.07.2017 06:46 18,8 C 24,4 C 83 % 1011,9 hPa 0,0 l/m 10,5 km/h (2 Bft) SW 219 2 min 0,000 mm 0,0 UV-I 113 W/m 15,8 C 17,1 C 17,7 km/h (3 Bft) 97,87 %
22.07.2017 06:48 18,8 C 24,4 C 83 % 1012,0 hPa 0,0 l/m 8,3 km/h (2 Bft) SW 226 2 min 0,000 mm 0,0 UV-I 126 W/m 15,8 C 18,0 C 14,5 km/h (3 Bft) 97,14 %
22.07.2017 06:50 18,8 C 24,4 C 83 % 1012,0 hPa 0,0 l/m 8,0 km/h (2 Bft) W 261 2 min 0,000 mm 0,0 UV-I 128 W/m 15,8 C 18,1 C 12,9 km/h (3 Bft) 93,55 %
22.07.2017 06:52 18,9 C 24,4 C 83 % 1012,0 hPa 0,0 l/m 11,6 km/h (2 Bft) SW 215 2 min 0,000 mm 0,0 UV-I 135 W/m 15,9 C 16,9 C 19,3 km/h (3 Bft) 95,74 %
22.07.2017 06:54 18,9 C 24,4 C 83 % 1012,0 hPa 0,0 l/m 8,9 km/h (2 Bft) W-SW 247 2 min 0,000 mm 0,0 UV-I 138 W/m 15,9 C 17,8 C 16,1 km/h (3 Bft) 93,62 %
22.07.2017 06:56 18,9 C 24,4 C 82 % 1012,0 hPa 0,0 l/m 10,7 km/h (2 Bft) SW 236 2 min 0,000 mm 0,0 UV-I 133 W/m 15,8 C 17,2 C 19,3 km/h (3 Bft) 97,87 %
22.07.2017 06:58 19,0 C 24,4 C 82 % 1012,1 hPa 0,0 l/m 12,4 km/h (3 Bft) W-SW 241 2 min 0,000 mm 0,0 UV-I 129 W/m 15,9 C 16,8 C 19,3 km/h (3 Bft) 96,00 %
22.07.2017 07:00 19,1 C 24,4 C 82 % 1012,1 hPa 0,0 l/m 9,2 km/h (2 Bft) W-SW 244 2 min 0,076 mm 0,0 UV-I 152 W/m 16,0 C 17,9 C 14,5 km/h (3 Bft) 97,87 %
22.07.2017 07:02 19,1 C 24,4 C 82 % 1012,1 hPa 0,0 l/m 11,3 km/h (2 Bft) W-SW 238 0 min 0,000 mm 0,0 UV-I 109 W/m 16,0 C 17,2 C 16,1 km/h (3 Bft) 94,29 %
22.07.2017 07:04 19,2 C 24,4 C 81 % 1012,1 hPa 0,0 l/m 12,7 km/h (3 Bft) SW 231 0 min 0,000 mm 0,0 UV-I 124 W/m 15,9 C 16,9 C 17,7 km/h (3 Bft) 91,49 %
22.07.2017 07:06 19,3 C 24,4 C 81 % 1012,1 hPa 0,0 l/m 11,4 km/h (2 Bft) S-SW 209 0 min 0,000 mm 0,0 UV-I 131 W/m 16,0 C 17,4 C 17,7 km/h (3 Bft) 97,87 %
22.07.2017 07:08 19,3 C 24,4 C 81 % 1012,1 hPa 0,0 l/m 13,1 km/h (3 Bft) SW 235 0 min 0,000 mm 0,0 UV-I 115 W/m 16,0 C 16,9 C 19,3 km/h (3 Bft) 91,49 %
22.07.2017 07:10 19,3 C 24,4 C 81 % 1012,2 hPa 0,0 l/m 14,7 km/h (3 Bft) SW 229 2 min 0,000 mm 0,0 UV-I 173 W/m 16,0 C 16,5 C 24,1 km/h (4 Bft) 97,87 %
22.07.2017 07:12 19,4 C 24,4 C 80 % 1012,1 hPa 0,0 l/m 13,2 km/h (3 Bft) W-SW 244 2 min 0,000 mm 0,0 UV-I 176 W/m 15,9 C 17,0 C 19,3 km/h (3 Bft) 95,74 %
22.07.2017 07:14 19,5 C 24,4 C 80 % 1012,1 hPa 0,0 l/m 11,1 km/h (2 Bft) SW 229 2 min 0,000 mm 0,0 UV-I 174 W/m 16,0 C 17,7 C 17,7 km/h (3 Bft) 97,87 %
22.07.2017 07:16 19,6 C 24,4 C 80 % 1012,1 hPa 0,0 l/m 13,7 km/h (3 Bft) W-SW 239 2 min 0,000 mm 0,0 UV-I 171 W/m 16,1 C 17,1 C 17,7 km/h (3 Bft) 93,62 %
22.07.2017 07:18 19,6 C 24,4 C 79 % 1012,1 hPa 0,0 l/m 11,0 km/h (2 Bft) W 260 2 min 0,000 mm 0,0 UV-I 186 W/m 15,9 C 17,9 C 16,1 km/h (3 Bft) 96,00 %
22.07.2017 07:20 19,7 C 24,4 C 79 % 1012,1 hPa 0,0 l/m 10,7 km/h (2 Bft) W-SW 242 0 min 0,000 mm 0,0 UV-I 137 W/m 16,0 C 18,1 C 14,5 km/h (3 Bft) 96,00 %
22.07.2017 07:22 19,7 C 24,4 C 79 % 1012,1 hPa 0,0 l/m 12,2 km/h (2 Bft) W 261 0 min 0,000 mm 0,0 UV-I 107 W/m 16,0 C 17,6 C 17,7 km/h (3 Bft) 95,74 %
22.07.2017 07:24 19,7 C 24,4 C 79 % 1012,1 hPa 0,0 l/m 10,0 km/h (2 Bft) W 276 2 min 0,000 mm 0,0 UV-I 187 W/m 16,0 C 18,3 C 16,1 km/h (3 Bft) 100,00 %
22.07.2017 07:26 19,8 C 24,4 C 79 % 1012,1 hPa 0,0 l/m 12,2 km/h (2 Bft) W 259 2 min 0,000 mm 0,0 UV-I 228 W/m 16,0 C 17,7 C 17,7 km/h (3 Bft) 100,00 %
22.07.2017 07:28 19,9 C 24,4 C 79 % 1012,1 hPa 0,0 l/m 14,3 km/h (3 Bft) SW 235 2 min 0,000 mm 0,0 UV-I 227 W/m 16,1 C 17,3 C 20,9 km/h (4 Bft) 97,87 %
22.07.2017 07:30 19,9 C 24,4 C 78 % 1012,1 hPa 0,0 l/m 13,3 km/h (3 Bft) SW 227 0 min 0,000 mm 0,0 UV-I 147 W/m 15,9 C 17,6 C 17,7 km/h (3 Bft) 95,74 %
22.07.2017 07:32 19,9 C 24,4 C 78 % 1012,1 hPa 0,0 l/m 9,4 km/h (2 Bft) W-SW 240 0 min 0,000 mm 0,0 UV-I 127 W/m 15,9 C 18,7 C 17,7 km/h (3 Bft) 95,74 %
22.07.2017 07:34 19,9 C 24,4 C 78 % 1012,1 hPa 0,0 l/m 11,0 km/h (2 Bft) W-SW 246 0 min 0,000 mm 0,0 UV-I 114 W/m 15,9 C 18,2 C 16,1 km/h (3 Bft) 94,74 %
22.07.2017 07:36 19,9 C 24,4 C 78 % 1012,1 hPa 0,0 l/m 12,1 km/h (2 Bft) SW 236 0 min 0,000 mm 0,2 UV-I 110 W/m 15,9 C 17,9 C 20,9 km/h (4 Bft) 97,87 %
22.07.2017 07:38 19,9 C 24,4 C 77 % 1012,2 hPa 0,0 l/m 14,4 km/h (3 Bft) SW 227 0 min 0,000 mm 0,5 UV-I 87 W/m 15,7 C 17,3 C 17,7 km/h (3 Bft) 95,74 %
22.07.2017 07:40 19,9 C 24,4 C 77 % 1012,2 hPa 0,0 l/m 11,0 km/h (2 Bft) W-SW 239 0 min 0,000 mm 0,5 UV-I 87 W/m 15,7 C 18,2 C 19,3 km/h (3 Bft) 95,74 %
22.07.2017 07:42 19,9 C 24,4 C 77 % 1012,2 hPa 0,0 l/m 12,9 km/h (3 Bft) W-SW 246 0 min 0,000 mm 0,5 UV-I 123 W/m 15,7 C 17,7 C 17,7 km/h (3 Bft) 93,62 %
22.07.2017 07:44 19,9 C 24,4 C 77 % 1012,3 hPa 0,0 l/m 9,3 km/h (2 Bft) SW 234 0 min 0,000 mm 0,5 UV-I 150 W/m 15,7 C 18,8 C 19,3 km/h (3 Bft) 98,04 %
22.07.2017 07:46 19,9 C 24,4 C 77 % 1012,3 hPa 0,0 l/m 10,4 km/h (2 Bft) W-SW 247 2 min 0,000 mm 0,6 UV-I 240 W/m 15,7 C 18,4 C 12,9 km/h (3 Bft) 94,00 %
22.07.2017 07:48 20,0 C 24,4 C 77 % 1012,3 hPa 0,0 l/m 9,8 km/h (2 Bft) W-SW 244 2 min 0,000 mm 0,6 UV-I 261 W/m 15,8 C 18,7 C 17,7 km/h (3 Bft) 97,37 %
22.07.2017 07:50 20,1 C 24,4 C 77 % 1012,3 hPa 0,0 l/m 11,5 km/h (2 Bft) W-SW 251 2 min 0,000 mm 0,6 UV-I 265 W/m 15,9 C 18,3 C 17,7 km/h (3 Bft) 98,00 %
22.07.2017 07:52 20,2 C 24,4 C 77 % 1012,3 hPa 0,0 l/m 8,4 km/h (2 Bft) W-SW 252 2 min 0,000 mm 0,7 UV-I 278 W/m 16,0 C 19,4 C 14,5 km/h (3 Bft) 95,74 %
22.07.2017 07:54 20,3 C 24,4 C 76 % 1012,3 hPa 0,0 l/m 11,9 km/h (2 Bft) W-SW 244 2 min 0,000 mm 0,7 UV-I 253 W/m 15,9 C 18,4 C 22,5 km/h (4 Bft) 96,00 %
22.07.2017 07:56 20,4 C 24,4 C 75 % 1012,3 hPa 0,0 l/m 17,5 km/h (3 Bft) W-SW 250 2 min 0,000 mm 0,7 UV-I 268 W/m 15,8 C 17,2 C 24,1 km/h (4 Bft) 96,00 %
22.07.2017 07:58 20,5 C 24,4 C 75 % 1012,3 hPa 0,0 l/m 12,9 km/h (3 Bft) W 267 2 min 0,000 mm 0,7 UV-I 301 W/m 15,9 C 18,4 C 22,5 km/h (4 Bft) 97,87 %
22.07.2017 08:00 20,6 C 24,4 C 75 % 1012,3 hPa 0,0 l/m 12,1 km/h (2 Bft) SW 225 2 min 0,153 mm 0,8 UV-I 309 W/m 16,0 C 18,7 C 17,7 km/h (3 Bft) 94,87 %
22.07.2017 08:02 20,7 C 24,4 C 75 % 1012,3 hPa 0,0 l/m 12,9 km/h (3 Bft) W 261 2 min 0,000 mm 0,8 UV-I 313 W/m 16,1 C 18,6 C 19,3 km/h (3 Bft) 97,87 %
22.07.2017 08:04 20,8 C 24,4 C 74 % 1012,3 hPa 0,0 l/m 11,8 km/h (2 Bft) W-SW 252 2 min 0,000 mm 0,8 UV-I 319 W/m 16,0 C 19,0 C 16,1 km/h (3 Bft) 100,00 %
22.07.2017 08:06 20,8 C 24,4 C 74 % 1012,3 hPa 0,0 l/m 11,4 km/h (2 Bft) W-SW 258 2 min 0,000 mm 0,8 UV-I 326 W/m 16,0 C 19,1 C 17,7 km/h (3 Bft) 93,62 %
22.07.2017 08:08 20,9 C 24,4 C 74 % 1012,4 hPa 0,0 l/m 13,1 km/h (3 Bft) W-SW 248 2 min 0,000 mm 0,9 UV-I 331 W/m 16,1 C 18,8 C 19,3 km/h (3 Bft) 93,62 %
22.07.2017 08:10 21,0 C 24,4 C 73 % 1012,4 hPa 0,0 l/m 10,2 km/h (2 Bft) W-SW 238 2 min 0,000 mm 0,9 UV-I 337 W/m 16,0 C 19,7 C 17,7 km/h (3 Bft) 93,62 %
22.07.2017 08:12 21,1 C 24,4 C 74 % 1012,4 hPa 0,0 l/m 8,9 km/h (2 Bft) W-SW 252 2 min 0,000 mm 0,9 UV-I 341 W/m 16,3 C 20,2 C 14,5 km/h (3 Bft) 100,00 %
22.07.2017 08:14 21,2 C 24,4 C 73 % 1012,5 hPa 0,0 l/m 13,0 km/h (3 Bft) SW 219 2 min 0,000 mm 0,9 UV-I 349 W/m 16,2 C 19,2 C 22,5 km/h (4 Bft) 97,92 %
22.07.2017 08:16 21,3 C 24,4 C 72 % 1012,5 hPa 0,0 l/m 15,4 km/h (3 Bft) SW 215 2 min 0,000 mm 1,0 UV-I 358 W/m 16,0 C 18,7 C 24,1 km/h (4 Bft) 97,87 %
22.07.2017 08:18 21,3 C 24,4 C 72 % 1012,5 hPa 0,0 l/m 12,4 km/h (3 Bft) W 266 2 min 0,000 mm 1,0 UV-I 366 W/m 16,0 C 19,4 C 20,9 km/h (4 Bft) 97,87 %
22.07.2017 08:20 21,3 C 24,4 C 71 % 1012,5 hPa 0,0 l/m 14,8 km/h (3 Bft) W-SW 253 2 min 0,000 mm 1,0 UV-I 377 W/m 15,8 C 18,9 C 22,5 km/h (4 Bft) 100,00 %
22.07.2017 08:22 21,3 C 24,4 C 72 % 1012,5 hPa 0,0 l/m 9,7 km/h (2 Bft) W-SW 239 2 min 0,000 mm 1,1 UV-I 383 W/m 16,0 C 20,2 C 16,1 km/h (3 Bft) 95,83 %
22.07.2017 08:24 21,4 C 24,4 C 72 % 1012,5 hPa 0,0 l/m 14,9 km/h (3 Bft) W-SW 246 2 min 0,000 mm 1,1 UV-I 391 W/m 16,1 C 19,0 C 22,5 km/h (4 Bft) 100,00 %
22.07.2017 08:26 21,5 C 24,4 C 71 % 1012,5 hPa 0,0 l/m 13,1 km/h (3 Bft) W-SW 240 2 min 0,000 mm 1,1 UV-I 402 W/m 16,0 C 19,5 C 19,3 km/h (3 Bft) 95,74 %
22.07.2017 08:28 21,6 C 24,4 C 70 % 1012,5 hPa 0,0 l/m 16,7 km/h (3 Bft) W-SW 257 2 min 0,000 mm 1,2 UV-I 403 W/m 15,9 C 18,9 C 22,5 km/h (4 Bft) 97,87 %
22.07.2017 08:30 21,6 C 24,4 C 70 % 1012,5 hPa 0,0 l/m 15,2 km/h (3 Bft) W 274 2 min 0,000 mm 1,2 UV-I 378 W/m 15,9 C 19,1 C 24,1 km/h (4 Bft) 100,00 %
22.07.2017 08:32 21,7 C 24,4 C 71 % 1012,5 hPa 0,0 l/m 14,3 km/h (3 Bft) W-SW 254 2 min 0,000 mm 1,2 UV-I 397 W/m 16,2 C 19,5 C 24,1 km/h (4 Bft) 97,87 %
22.07.2017 08:34 21,7 C 24,4 C 71 % 1012,5 hPa 0,0 l/m 11,4 km/h (2 Bft) SW 225 2 min 0,000 mm 1,2 UV-I 416 W/m 16,2 C 20,1 C 19,3 km/h (3 Bft) 100,00 %
22.07.2017 08:36 21,8 C 24,4 C 71 % 1012,6 hPa 0,0 l/m 10,6 km/h (2 Bft) SW 227 2 min 0,000 mm 1,2 UV-I 364 W/m 16,3 C 20,5 C 17,7 km/h (3 Bft) 100,00 %
22.07.2017 08:38 21,8 C 24,4 C 69 % 1012,6 hPa 0,0 l/m 15,0 km/h (3 Bft) SW 226 2 min 0,000 mm 1,2 UV-I 326 W/m 15,9 C 19,4 C 29,0 km/h (5 Bft) 97,22 %
22.07.2017 08:40 21,8 C 24,4 C 70 % 1012,6 hPa 0,0 l/m 12,5 km/h (3 Bft) W 273 2 min 0,000 mm 1,3 UV-I 362 W/m 16,1 C 20,0 C 22,5 km/h (4 Bft) 98,00 %
22.07.2017 08:42 21,8 C 24,4 C 69 % 1012,6 hPa 0,0 l/m 17,7 km/h (3 Bft) W-NW 288 2 min 0,000 mm 1,3 UV-I 385 W/m 15,9 C 18,9 C 25,7 km/h (4 Bft) 95,74 %
22.07.2017 08:44 21,8 C 24,4 C 69 % 1012,7 hPa 0,0 l/m 15,0 km/h (3 Bft) W-SW 255 2 min 0,000 mm 1,3 UV-I 351 W/m 15,9 C 19,4 C 27,4 km/h (4 Bft) 100,00 %
22.07.2017 08:46 21,8 C 24,4 C 68 % 1012,7 hPa 0,0 l/m 16,1 km/h (3 Bft) W-SW 255 2 min 0,000 mm 1,3 UV-I 295 W/m 15,6 C 19,2 C 27,4 km/h (4 Bft) 97,87 %
22.07.2017 08:48 21,7 C 24,4 C 68 % 1012,6 hPa 0,0 l/m 14,6 km/h (3 Bft) W-SW 258 0 min 0,000 mm 1,3 UV-I 210 W/m 15,5 C 19,4 C 20,9 km/h (4 Bft) 100,00 %
22.07.2017 08:50 21,6 C 24,4 C 69 % 1012,7 hPa 0,0 l/m 12,4 km/h (3 Bft) SW 214 0 min 0,000 mm 1,4 UV-I 250 W/m 15,7 C 19,8 C 19,3 km/h (3 Bft) 97,87 %
22.07.2017 08:52 21,7 C 24,4 C 69 % 1012,7 hPa 0,0 l/m 13,5 km/h (3 Bft) SW 215 2 min 0,000 mm 1,5 UV-I 435 W/m 15,8 C 19,6 C 19,3 km/h (3 Bft) 100,00 %
22.07.2017 08:54 21,8 C 24,4 C 70 % 1012,7 hPa 0,0 l/m 13,9 km/h (3 Bft) W-SW 256 2 min 0,000 mm 1,5 UV-I 461 W/m 16,1 C 19,7 C 17,7 km/h (3 Bft) 95,74 %
22.07.2017 08:56 21,9 C 24,4 C 69 % 1012,7 hPa 0,0 l/m 12,6 km/h (3 Bft) W-SW 253 2 min 0,000 mm 1,6 UV-I 473 W/m 15,9 C 20,1 C 19,3 km/h (3 Bft) 98,00 %
22.07.2017 08:58 22,1 C 24,4 C 68 % 1012,8 hPa 0,0 l/m 17,3 km/h (3 Bft) W 269 2 min 0,000 mm 1,6 UV-I 478 W/m 15,9 C 19,4 C 24,1 km/h (4 Bft) 97,37 %
22.07.2017 09:00 22,1 C 24,4 C 67 % 1012,8 hPa 0,0 l/m 13,0 km/h (3 Bft) W-SW 239 2 min 0,279 mm 1,6 UV-I 482 W/m 15,7 C 20,2 C 22,5 km/h (4 Bft) 96,08 %
22.07.2017 09:02 22,1 C 24,4 C 67 % 1012,8 hPa 0,0 l/m 12,9 km/h (3 Bft) W-SW 243 2 min 0,000 mm 1,5 UV-I 323 W/m 15,7 C 20,2 C 20,9 km/h (4 Bft) 100,00 %
22.07.2017 09:04 22,1 C 24,4 C 68 % 1012,8 hPa 0,0 l/m 14,4 km/h (3 Bft) W-SW 257 2 min 0,000 mm 1,7 UV-I 472 W/m 15,9 C 19,9 C 24,1 km/h (4 Bft) 93,62 %
22.07.2017 09:06 22,2 C 24,4 C 68 % 1012,8 hPa 0,0 l/m 13,4 km/h (3 Bft) W-SW 255 2 min 0,000 mm 1,7 UV-I 499 W/m 16,0 C 20,2 C 22,5 km/h (4 Bft) 97,87 %
22.07.2017 09:08 22,2 C 25,0 C 68 % 1012,8 hPa 0,0 l/m 14,8 km/h (3 Bft) W 262 2 min 0,000 mm 1,8 UV-I 503 W/m 16,0 C 20,0 C 20,9 km/h (4 Bft) 100,00 %
22.07.2017 09:10 22,3 C 24,4 C 68 % 1012,8 hPa 0,0 l/m 14,0 km/h (3 Bft) W-SW 244 2 min 0,000 mm 1,8 UV-I 506 W/m 16,1 C 20,2 C 20,9 km/h (4 Bft) 100,00 %
22.07.2017 09:12 22,3 C 24,4 C 67 % 1012,8 hPa 0,0 l/m 16,0 km/h (3 Bft) S-SW 213 2 min 0,000 mm 1,9 UV-I 472 W/m 15,9 C 19,8 C 20,9 km/h (4 Bft) 97,87 %
22.07.2017 09:14 22,3 C 25,0 C 68 % 1012,9 hPa 0,0 l/m 12,6 km/h (3 Bft) W 264 2 min 0,000 mm 1,9 UV-I 500 W/m 16,1 C 20,5 C 22,5 km/h (4 Bft) 91,49 %
22.07.2017 09:16 22,4 C 25,0 C 68 % 1012,8 hPa 0,0 l/m 8,8 km/h (2 Bft) W 281 2 min 0,000 mm 1,9 UV-I 494 W/m 16,2 C 21,6 C 22,5 km/h (4 Bft) 97,92 %
22.07.2017 09:18 22,4 C 25,0 C 68 % 1012,8 hPa 0,0 l/m 10,3 km/h (2 Bft) W 267 2 min 0,000 mm 1,9 UV-I 484 W/m 16,2 C 21,2 C 22,5 km/h (4 Bft) 97,96 %
22.07.2017 09:20 22,4 C 25,0 C 68 % 1012,9 hPa 0,0 l/m 6,3 km/h (2 Bft) W-SW 247 2 min 0,000 mm 2,0 UV-I 495 W/m 16,2 C 22,4 C 12,9 km/h (3 Bft) 95,83 %
22.07.2017 09:22 22,4 C 24,4 C 67 % 1012,9 hPa 0,0 l/m 12,8 km/h (3 Bft) SW 215 2 min 0,000 mm 2,1 UV-I 527 W/m 16,0 C 20,6 C 22,5 km/h (4 Bft) 97,87 %
22.07.2017 09:24 22,5 C 24,4 C 67 % 1012,9 hPa 0,0 l/m 14,2 km/h (3 Bft) SW 236 2 min 0,000 mm 2,2 UV-I 545 W/m 16,1 C 20,4 C 19,3 km/h (3 Bft) 97,87 %
22.07.2017 09:26 22,5 C 25,0 C 66 % 1012,9 hPa 0,0 l/m 11,9 km/h (2 Bft) W-SW 247 2 min 0,000 mm 2,2 UV-I 558 W/m 15,8 C 20,9 C 19,3 km/h (3 Bft) 95,74 %
22.07.2017 09:28 22,6 C 25,0 C 67 % 1012,9 hPa 0,0 l/m 15,1 km/h (3 Bft) S-SW 210 2 min 0,000 mm 2,2 UV-I 565 W/m 16,2 C 20,4 C 24,1 km/h (4 Bft) 93,62 %
22.07.2017 09:30 22,6 C 25,0 C 66 % 1012,8 hPa 0,0 l/m 13,0 km/h (3 Bft) SW 231 2 min 0,000 mm 2,3 UV-I 569 W/m 15,9 C 20,8 C 25,7 km/h (4 Bft) 93,62 %
22.07.2017 09:32 22,6 C 25,0 C 67 % 1012,8 hPa 0,0 l/m 14,9 km/h (3 Bft) W-NW 284 2 min 0,000 mm 2,3 UV-I 570 W/m 16,2 C 20,4 C 25,7 km/h (4 Bft) 95,74 %
22.07.2017 09:34 22,7 C 25,0 C 68 % 1012,9 hPa 0,0 l/m 8,9 km/h (2 Bft) W-SW 251 2 min 0,000 mm 2,3 UV-I 565 W/m 16,5 C 21,9 C 19,3 km/h (3 Bft) 97,87 %
22.07.2017 09:36 22,7 C 24,4 C 67 % 1012,9 hPa 0,0 l/m 11,4 km/h (2 Bft) W-SW 249 2 min 0,000 mm 2,4 UV-I 563 W/m 16,2 C 21,3 C 17,7 km/h (3 Bft) 97,87 %
22.07.2017 09:38 22,7 C 25,0 C 67 % 1012,8 hPa 0,0 l/m 10,6 km/h (2 Bft) SW 214 2 min 0,000 mm 2,4 UV-I 557 W/m 16,2 C 21,5 C 16,1 km/h (3 Bft) 95,74 %
22.07.2017 09:40 22,7 C 25,0 C 67 % 1012,8 hPa 0,0 l/m 9,6 km/h (2 Bft) W-SW 253 2 min 0,000 mm 2,4 UV-I 566 W/m 16,2 C 21,7 C 14,5 km/h (3 Bft) 91,49 %
22.07.2017 09:42 22,8 C 25,0 C 67 % 1012,8 hPa 0,0 l/m 11,9 km/h (2 Bft) W 269 2 min 0,000 mm 2,5 UV-I 568 W/m 16,3 C 21,3 C 19,3 km/h (3 Bft) 97,87 %
22.07.2017 09:44 22,8 C 25,0 C 67 % 1012,8 hPa 0,0 l/m 7,9 km/h (2 Bft) W-NW 292 2 min 0,000 mm 2,6 UV-I 585 W/m 16,3 C 22,3 C 12,9 km/h (3 Bft) 98,00 %
22.07.2017 09:46 22,8 C 25,0 C 67 % 1012,7 hPa 0,0 l/m 9,5 km/h (2 Bft) W-SW 248 2 min 0,000 mm 2,6 UV-I 600 W/m 16,3 C 21,9 C 16,1 km/h (3 Bft) 95,74 %
22.07.2017 09:48 23,0 C 25,0 C 69 % 1012,8 hPa 0,0 l/m 8,6 km/h (2 Bft) W 273 2 min 0,000 mm 2,7 UV-I 607 W/m 17,0 C 22,3 C 14,5 km/h (3 Bft) 95,74 %
22.07.2017 09:50 23,1 C 25,0 C 67 % 1012,8 hPa 0,0 l/m 13,4 km/h (3 Bft) W 275 2 min 0,000 mm 2,7 UV-I 608 W/m 16,6 C 21,3 C 19,3 km/h (3 Bft) 97,14 %
22.07.2017 09:52 23,1 C 25,0 C 67 % 1012,9 hPa 0,0 l/m 12,8 km/h (3 Bft) W-SW 253 2 min 0,000 mm 2,8 UV-I 609 W/m 16,6 C 21,4 C 25,7 km/h (4 Bft) 96,00 %
22.07.2017 09:54 23,1 C 25,0 C 66 % 1012,8 hPa 0,0 l/m 12,2 km/h (2 Bft) SW 234 2 min 0,000 mm 2,8 UV-I 622 W/m 16,4 C 21,6 C 19,3 km/h (3 Bft) 95,74 %
22.07.2017 09:56 23,1 C 25,0 C 66 % 1012,8 hPa 0,0 l/m 12,2 km/h (2 Bft) W-SW 248 2 min 0,000 mm 2,9 UV-I 618 W/m 16,4 C 21,6 C 17,7 km/h (3 Bft) 95,83 %
22.07.2017 09:58 23,1 C 25,0 C 67 % 1012,8 hPa 0,0 l/m 12,9 km/h (3 Bft) SW 223 2 min 0,000 mm 2,9 UV-I 610 W/m 16,6 C 21,4 C 19,3 km/h (3 Bft) 97,96 %
22.07.2017 10:00 23,2 C 25,0 C 67 % 1012,8 hPa 0,0 l/m 12,1 km/h (2 Bft) SW 219 2 min 0,000 mm 2,9 UV-I 633 W/m 16,7 C 21,7 C 17,7 km/h (3 Bft) 94,00 %
22.07.2017 10:02 23,2 C 25,0 C 66 % 1012,9 hPa 0,0 l/m 11,4 km/h (2 Bft) W-SW 243 2 min 0,381 mm 3,0 UV-I 650 W/m 16,5 C 21,8 C 17,7 km/h (3 Bft) 100,00 %
22.07.2017 10:04 23,3 C 25,0 C 66 % 1012,9 hPa 0,0 l/m 10,1 km/h (2 Bft) S-SW 204 2 min 0,000 mm 3,0 UV-I 625 W/m 16,6 C 22,3 C 19,3 km/h (3 Bft) 95,74 %
22.07.2017 10:06 23,3 C 25,0 C 67 % 1012,9 hPa 0,0 l/m 11,6 km/h (2 Bft) S-SW 211 2 min 0,000 mm 3,0 UV-I 627 W/m 16,8 C 21,9 C 22,5 km/h (4 Bft) 95,74 %
22.07.2017 10:08 23,4 C 25,0 C 66 % 1012,9 hPa 0,0 l/m 12,8 km/h (3 Bft) SW 235 2 min 0,000 mm 3,1 UV-I 648 W/m 16,7 C 21,8 C 19,3 km/h (3 Bft) 91,49 %
22.07.2017 10:10 23,3 C 25,0 C 66 % 1012,9 hPa 0,0 l/m 10,0 km/h (2 Bft) W-SW 258 2 min 0,000 mm 3,2 UV-I 685 W/m 16,6 C 22,3 C 17,7 km/h (3 Bft) 94,00 %
22.07.2017 10:12 23,3 C 25,0 C 66 % 1013,0 hPa 0,0 l/m 6,3 km/h (2 Bft) W-SW 242 2 min 0,000 mm 3,3 UV-I 709 W/m 16,6 C 23,3 C 12,9 km/h (3 Bft) 98,00 %
22.07.2017 10:14 23,5 C 25,0 C 66 % 1012,9 hPa 0,0 l/m 9,5 km/h (2 Bft) W-SW 250 2 min 0,000 mm 3,4 UV-I 731 W/m 16,8 C 22,6 C 17,7 km/h (3 Bft) 94,00 %
22.07.2017 10:16 23,6 C 25,0 C 67 % 1013,0 hPa 0,0 l/m 9,3 km/h (2 Bft) W-NW 282 2 min 0,000 mm 3,5 UV-I 780 W/m 17,1 C 22,8 C 17,7 km/h (3 Bft) 95,74 %
22.07.2017 10:18 23,7 C 25,0 C 64 % 1013,0 hPa 0,0 l/m 8,5 km/h (2 Bft) W-SW 240 2 min 0,000 mm 3,5 UV-I 732 W/m 16,5 C 23,1 C 16,1 km/h (3 Bft) 91,43 %
22.07.2017 10:20 23,6 C 25,0 C 65 % 1012,9 hPa 0,0 l/m 7,1 km/h (2 Bft) SW 225 2 min 0,000 mm 2,9 UV-I 515 W/m 16,6 C 23,4 C 14,5 km/h (3 Bft) 92,45 %
22.07.2017 10:22 23,6 C 25,0 C 65 % 1013,0 hPa 0,0 l/m 11,1 km/h (2 Bft) W-SW 254 2 min 0,000 mm 2,8 UV-I 492 W/m 16,6 C 22,4 C 16,1 km/h (3 Bft) 98,00 %
22.07.2017 10:24 23,4 C 25,0 C 65 % 1013,0 hPa 0,0 l/m 12,4 km/h (3 Bft) W-SW 238 0 min 0,000 mm 2,2 UV-I 345 W/m 16,4 C 21,9 C 16,1 km/h (3 Bft) 97,87 %
22.07.2017 10:26 23,4 C 25,0 C 67 % 1013,0 hPa 0,0 l/m 7,3 km/h (2 Bft) W-SW 255 0 min 0,000 mm 2,1 UV-I 335 W/m 16,9 C 23,1 C 16,1 km/h (3 Bft) 95,74 %
22.07.2017 10:28 23,3 C 25,0 C 66 % 1013,0 hPa 0,0 l/m 10,1 km/h (2 Bft) W-SW 248 0 min 0,000 mm 2,0 UV-I 328 W/m 16,6 C 22,3 C 14,5 km/h (3 Bft) 97,87 %
22.07.2017 10:30 23,2 C 25,0 C 66 % 1013,0 hPa 0,0 l/m 8,8 km/h (2 Bft) W-SW 254 0 min 0,000 mm 1,9 UV-I 321 W/m 16,5 C 22,5 C 16,1 km/h (3 Bft) 93,62 %
22.07.2017 10:32 23,2 C 25,0 C 66 % 1013,0 hPa 0,0 l/m 11,9 km/h (2 Bft) SW 216 0 min 0,000 mm 1,9 UV-I 325 W/m 16,5 C 21,7 C 20,9 km/h (4 Bft) 95,74 %
22.07.2017 10:34 23,3 C 25,0 C 66 % 1013,0 hPa 0,0 l/m 6,6 km/h (2 Bft) W 277 0 min 0,000 mm 1,9 UV-I 314 W/m 16,6 C 23,2 C 17,7 km/h (3 Bft) 93,62 %
22.07.2017 10:36 23,3 C 25,0 C 67 % 1013,0 hPa 0,0 l/m 6,7 km/h (2 Bft) W-SW 257 0 min 0,000 mm 1,8 UV-I 303 W/m 16,8 C 23,2 C 14,5 km/h (3 Bft) 94,44 %
22.07.2017 10:38 23,3 C 25,0 C 67 % 1013,0 hPa 0,0 l/m 7,9 km/h (2 Bft) W-SW 249 0 min 0,000 mm 1,7 UV-I 292 W/m 16,8 C 22,8 C 17,7 km/h (3 Bft) 92,00 %
22.07.2017 10:40 23,3 C 25,0 C 67 % 1013,0 hPa 0,0 l/m 7,9 km/h (2 Bft) W-SW 257 0 min 0,000 mm 1,7 UV-I 280 W/m 16,8 C 22,8 C 17,7 km/h (3 Bft) 97,87 %
22.07.2017 10:42 23,3 C 25,0 C 67 % 1013,1 hPa 0,0 l/m 11,9 km/h (2 Bft) W 267 0 min 0,000 mm 1,6 UV-I 267 W/m 16,8 C 21,9 C 17,7 km/h (3 Bft) 92,00 %
22.07.2017 10:44 23,2 C 25,0 C 67 % 1013,1 hPa 0,0 l/m 10,4 km/h (2 Bft) W-SW 255 0 min 0,000 mm 1,5 UV-I 256 W/m 16,7 C 22,1 C 19,3 km/h (3 Bft) 93,62 %
22.07.2017 10:46 23,2 C 25,0 C 66 % 1013,2 hPa 0,0 l/m 11,9 km/h (2 Bft) W-SW 249 0 min 0,000 mm 1,5 UV-I 246 W/m 16,5 C 21,7 C 17,7 km/h (3 Bft) 98,00 %
22.07.2017 10:48 23,2 C 25,0 C 68 % 1013,2 hPa 0,0 l/m 11,5 km/h (2 Bft) W-SW 240 0 min 0,000 mm 1,4 UV-I 236 W/m 17,0 C 21,8 C 19,3 km/h (3 Bft) 97,87 %
22.07.2017 10:50 23,2 C 25,0 C 68 % 1013,2 hPa 0,0 l/m 9,9 km/h (2 Bft) W 278 0 min 0,000 mm 1,3 UV-I 224 W/m 17,0 C 22,2 C 16,1 km/h (3 Bft) 95,74 %
22.07.2017 10:52 23,1 C 25,0 C 68 % 1013,2 hPa 0,0 l/m 6,3 km/h (2 Bft) W-SW 238 0 min 0,000 mm 1,2 UV-I 210 W/m 16,9 C 23,1 C 16,1 km/h (3 Bft) 97,87 %
22.07.2017 10:54 23,1 C 25,0 C 67 % 1013,2 hPa 0,0 l/m 12,2 km/h (2 Bft) W-SW 244 0 min 0,000 mm 1,2 UV-I 205 W/m 16,6 C 21,6 C 19,3 km/h (3 Bft) 95,74 %
22.07.2017 10:56 23,1 C 25,0 C 68 % 1013,3 hPa 0,0 l/m 11,2 km/h (2 Bft) W-SW 257 0 min 0,000 mm 1,2 UV-I 197 W/m 16,9 C 21,8 C 16,1 km/h (3 Bft) 97,37 %
22.07.2017 10:58 23,0 C 25,0 C 67 % 1013,3 hPa 0,0 l/m 12,6 km/h (3 Bft) W 265 0 min 0,000 mm 1,2 UV-I 192 W/m 16,5 C 21,4 C 20,9 km/h (4 Bft) 97,87 %
22.07.2017 11:00 22,9 C 25,0 C 67 % 1013,3 hPa 0,0 l/m 14,7 km/h (3 Bft) W-SW 257 0 min 0,305 mm 1,2 UV-I 191 W/m 16,4 C 20,8 C 20,9 km/h (4 Bft) 91,49 %
22.07.2017 11:02 22,9 C 25,0 C 68 % 1013,3 hPa 0,0 l/m 13,7 km/h (3 Bft) W 261 0 min 0,000 mm 1,2 UV-I 193 W/m 16,7 C 21,0 C 20,9 km/h (4 Bft) 91,49 %
22.07.2017 11:04 22,8 C 25,0 C 68 % 1013,4 hPa 0,0 l/m 12,2 km/h (2 Bft) W-SW 246 0 min 0,000 mm 1,2 UV-I 195 W/m 16,6 C 21,2 C 19,3 km/h (3 Bft) 91,49 %
22.07.2017 11:06 22,8 C 25,0 C 68 % 1013,3 hPa 0,0 l/m 10,4 km/h (2 Bft) W 261 0 min 0,000 mm 1,2 UV-I 198 W/m 16,6 C 21,6 C 19,3 km/h (3 Bft) 93,62 %
22.07.2017 11:08 22,7 C 25,0 C 69 % 1013,4 hPa 0,0 l/m 11,1 km/h (2 Bft) W-SW 240 0 min 0,000 mm 1,3 UV-I 201 W/m 16,7 C 21,3 C 16,1 km/h (3 Bft) 97,87 %
22.07.2017 11:10 22,7 C 25,0 C 68 % 1013,3 hPa 0,0 l/m 10,9 km/h (2 Bft) SW 230 0 min 0,000 mm 1,3 UV-I 203 W/m 16,5 C 21,4 C 19,3 km/h (3 Bft) 98,00 %
22.07.2017 11:12 22,6 C 25,0 C 68 % 1013,4 hPa 0,0 l/m 12,2 km/h (2 Bft) W 269 0 min 0,000 mm 1,3 UV-I 202 W/m 16,4 C 21,0 C 17,7 km/h (3 Bft) 94,00 %
22.07.2017 11:14 22,6 C 25,0 C 69 % 1013,4 hPa 0,0 l/m 11,9 km/h (2 Bft) W-SW 248 0 min 0,000 mm 1,3 UV-I 202 W/m 16,6 C 21,0 C 17,7 km/h (3 Bft) 93,62 %
22.07.2017 11:16 22,5 C 25,0 C 69 % 1013,4 hPa 0,0 l/m 9,5 km/h (2 Bft) SW 236 0 min 0,000 mm 1,3 UV-I 202 W/m 16,5 C 21,5 C 16,1 km/h (3 Bft) 95,74 %
22.07.2017 11:18 22,5 C 25,0 C 69 % 1013,4 hPa 0,0 l/m 11,3 km/h (2 Bft) W-SW 252 0 min 0,000 mm 1,3 UV-I 202 W/m 16,5 C 21,1 C 17,7 km/h (3 Bft) 100,00 %
22.07.2017 11:20 22,5 C 25,0 C 70 % 1013,4 hPa 0,0 l/m 11,0 km/h (2 Bft) W-SW 240 0 min 0,000 mm 1,3 UV-I 204 W/m 16,7 C 21,1 C 16,1 km/h (3 Bft) 95,83 %
22.07.2017 11:22 22,4 C 25,0 C 70 % 1013,5 hPa 0,0 l/m 9,5 km/h (2 Bft) SW 223 0 min 0,000 mm 1,3 UV-I 207 W/m 16,7 C 21,4 C 12,9 km/h (3 Bft) 97,37 %
22.07.2017 11:24 22,4 C 25,0 C 70 % 1013,5 hPa 0,0 l/m 7,8 km/h (2 Bft) W 260 0 min 0,000 mm 1,4 UV-I 209 W/m 16,7 C 21,9 C 16,1 km/h (3 Bft) 95,74 %
22.07.2017 11:26 22,4 C 25,0 C 70 % 1013,5 hPa 0,0 l/m 9,5 km/h (2 Bft) SW 234 0 min 0,000 mm 1,4 UV-I 209 W/m 16,7 C 21,4 C 19,3 km/h (3 Bft) 93,62 %
22.07.2017 11:28 22,4 C 25,0 C 70 % 1013,5 hPa 0,0 l/m 7,3 km/h (2 Bft) W-SW 254 0 min 0,000 mm 1,4 UV-I 210 W/m 16,7 C 22,1 C 12,9 km/h (3 Bft) 95,74 %
22.07.2017 11:30 22,4 C 25,0 C 70 % 1013,5 hPa 0,0 l/m 9,1 km/h (2 Bft) SW 218 0 min 0,000 mm 1,4 UV-I 214 W/m 16,7 C 21,5 C 17,7 km/h (3 Bft) 93,62 %
22.07.2017 11:32 22,4 C 25,0 C 69 % 1013,5 hPa 0,0 l/m 11,3 km/h (2 Bft) W-SW 247 0 min 0,000 mm 1,5 UV-I 223 W/m 16,4 C 21,0 C 17,7 km/h (3 Bft) 96,00 %
22.07.2017 11:34 22,4 C 25,0 C 69 % 1013,5 hPa 0,0 l/m 8,2 km/h (2 Bft) W-SW 254 0 min 0,000 mm 1,6 UV-I 232 W/m 16,4 C 21,8 C 16,1 km/h (3 Bft) 94,00 %
22.07.2017 11:36 22,4 C 25,0 C 70 % 1013,5 hPa 0,0 l/m 11,2 km/h (2 Bft) W 265 0 min 0,000 mm 1,7 UV-I 246 W/m 16,7 C 21,0 C 17,7 km/h (3 Bft) 95,74 %
22.07.2017 11:38 22,4 C 25,0 C 70 % 1013,5 hPa 0,0 l/m 10,4 km/h (2 Bft) W-SW 238 0 min 0,000 mm 1,8 UV-I 261 W/m 16,7 C 21,2 C 14,5 km/h (3 Bft) 97,87 %
22.07.2017 11:40 22,5 C 25,0 C 69 % 1013,5 hPa 0,0 l/m 10,0 km/h (2 Bft) W-SW 251 0 min 0,000 mm 1,9 UV-I 276 W/m 16,5 C 21,4 C 14,5 km/h (3 Bft) 95,92 %
22.07.2017 11:42 22,6 C 25,0 C 69 % 1013,5 hPa 0,0 l/m 9,9 km/h (2 Bft) W 279 0 min 0,000 mm 2,0 UV-I 289 W/m 16,6 C 21,5 C 14,5 km/h (3 Bft) 97,37 %
22.07.2017 11:44 22,6 C 25,0 C 69 % 1013,5 hPa 0,0 l/m 7,8 km/h (2 Bft) W-SW 258 0 min 0,000 mm 2,2 UV-I 308 W/m 16,6 C 22,1 C 12,9 km/h (3 Bft) 95,74 %
22.07.2017 11:46 22,6 C 25,0 C 69 % 1013,5 hPa 0,0 l/m 8,9 km/h (2 Bft) W-SW 250 0 min 0,000 mm 2,4 UV-I 335 W/m 16,6 C 21,8 C 14,5 km/h (3 Bft) 93,62 %
22.07.2017 11:48 22,7 C 25,0 C 69 % 1013,5 hPa 0,0 l/m 10,4 km/h (2 Bft) W 260 0 min 0,000 mm 2,6 UV-I 365 W/m 16,7 C 21,5 C 17,7 km/h (3 Bft) 93,62 %
22.07.2017 11:50 22,8 C 25,0 C 68 % 1013,6 hPa 0,0 l/m 11,8 km/h (2 Bft) S 189 0 min 0,000 mm 2,6 UV-I 372 W/m 16,6 C 21,3 C 16,1 km/h (3 Bft) 93,62 %
22.07.2017 11:52 22,8 C 25,0 C 68 % 1013,6 hPa 0,0 l/m 11,2 km/h (2 Bft) S-SW 213 0 min 0,000 mm 2,5 UV-I 358 W/m 16,6 C 21,4 C 17,7 km/h (3 Bft) 95,74 %
22.07.2017 11:54 22,8 C 25,0 C 68 % 1013,5 hPa 0,0 l/m 9,6 km/h (2 Bft) W-SW 251 0 min 0,000 mm 2,5 UV-I 348 W/m 16,6 C 21,8 C 12,9 km/h (3 Bft) 98,00 %
22.07.2017 11:56 22,8 C 25,0 C 68 % 1013,5 hPa 0,0 l/m 9,0 km/h (2 Bft) W-SW 240 0 min 0,000 mm 2,5 UV-I 351 W/m 16,6 C 22,0 C 14,5 km/h (3 Bft) 100,00 %
22.07.2017 11:58 22,9 C 25,0 C 67 % 1013,5 hPa 0,0 l/m 8,7 km/h (2 Bft) W 260 0 min 0,000 mm 2,6 UV-I 353 W/m 16,4 C 22,2 C 14,5 km/h (3 Bft) 98,36 %
22.07.2017 12:00 22,9 C 25,0 C 68 % 1013,5 hPa 0,0 l/m 5,7 km/h (1 Bft) W-SW 249 0 min 0,203 mm 2,6 UV-I 351 W/m 16,7 C 22,9 C 12,9 km/h (3 Bft) 95,83 %
22.07.2017 12:02 22,9 C 25,0 C 67 % 1013,5 hPa 0,0 l/m 6,2 km/h (2 Bft) W-SW 243 0 min 0,000 mm 2,6 UV-I 351 W/m 16,4 C 22,9 C 12,9 km/h (3 Bft) 97,87 %
22.07.2017 12:04 23,0 C 25,0 C 67 % 1013,5 hPa 0,0 l/m 6,9 km/h (2 Bft) W-NW 284 0 min 0,000 mm 2,6 UV-I 351 W/m 16,5 C 22,8 C 11,3 km/h (2 Bft) 100,00 %
22.07.2017 12:06 23,0 C 25,0 C 68 % 1013,5 hPa 0,0 l/m 4,1 km/h (1 Bft) W-SW 247 0 min 0,000 mm 2,6 UV-I 339 W/m 16,8 C 23,0 C 9,7 km/h (2 Bft) 100,00 %
22.07.2017 12:08 23,0 C 25,0 C 68 % 1013,5 hPa 0,0 l/m 7,0 km/h (2 Bft) W 277 0 min 0,000 mm 2,3 UV-I 314 W/m 16,8 C 22,8 C 12,9 km/h (3 Bft) 100,00 %
22.07.2017 12:10 23,0 C 25,0 C 67 % 1013,5 hPa 0,0 l/m 6,9 km/h (2 Bft) W-NW 286 0 min 0,000 mm 2,1 UV-I 289 W/m 16,5 C 22,8 C 9,7 km/h (2 Bft) 100,00 %
22.07.2017 12:12 22,9 C 25,0 C 68 % 1013,5 hPa 0,0 l/m 5,0 km/h (1 Bft) SW 217 0 min 0,000 mm 1,9 UV-I 264 W/m 16,7 C 22,9 C 11,3 km/h (2 Bft) 97,87 %
22.07.2017 12:14 22,9 C 25,0 C 67 % 1013,5 hPa 0,0 l/m 7,0 km/h (2 Bft) W-SW 250 0 min 0,000 mm 1,9 UV-I 252 W/m 16,4 C 22,7 C 14,5 km/h (3 Bft) 97,87 %
22.07.2017 12:16 22,8 C 25,0 C 67 % 1013,5 hPa 0,0 l/m 7,5 km/h (2 Bft) W 270 0 min 0,000 mm 1,9 UV-I 260 W/m 16,3 C 22,4 C 11,3 km/h (2 Bft) 95,92 %
22.07.2017 12:18 22,8 C 25,0 C 67 % 1013,5 hPa 0,0 l/m 5,0 km/h (1 Bft) W-SW 248 0 min 0,000 mm 2,1 UV-I 277 W/m 16,3 C 22,8 C 11,3 km/h (2 Bft) 100,00 %
22.07.2017 12:20 22,9 C 25,0 C 68 % 1013,5 hPa 0,0 l/m 5,9 km/h (2 Bft) SW 224 0 min 0,000 mm 2,3 UV-I 294 W/m 16,7 C 22,9 C 9,7 km/h (2 Bft) 100,00 %
22.07.2017 12:22 22,9 C 25,0 C 66 % 1013,4 hPa 0,0 l/m 5,4 km/h (1 Bft) SW 219 0 min 0,000 mm 2,4 UV-I 315 W/m 16,2 C 22,9 C 11,3 km/h (2 Bft) 100,00 %
22.07.2017 12:24 23,0 C 25,0 C 66 % 1013,4 hPa 0,0 l/m 5,5 km/h (1 Bft) SW 227 0 min 0,000 mm 2,5 UV-I 336 W/m 16,3 C 23,0 C 9,7 km/h (2 Bft) 100,00 %
22.07.2017 12:26 23,1 C 25,0 C 67 % 1013,4 hPa 0,0 l/m 6,5 km/h (2 Bft) S-SW 210 0 min 0,000 mm 2,6 UV-I 353 W/m 16,6 C 23,1 C 9,7 km/h (2 Bft) 100,00 %
22.07.2017 12:28 23,2 C 25,0 C 65 % 1013,4 hPa 0,0 l/m 3,4 km/h (1 Bft) S-SW 213 0 min 0,000 mm 2,8 UV-I 381 W/m 16,2 C 23,2 C 8,0 km/h (2 Bft) 100,00 %
22.07.2017 12:30 23,2 C 25,0 C 65 % 1013,4 hPa 0,0 l/m 5,1 km/h (1 Bft) W 261 0 min 0,000 mm 3,1 UV-I 438 W/m 16,2 C 23,2 C 8,0 km/h (2 Bft) 100,00 %
22.07.2017 12:32 23,3 C 25,0 C 65 % 1013,4 hPa 0,0 l/m 4,8 km/h (1 Bft) NW 307 2 min 0,000 mm 3,3 UV-I 479 W/m 16,3 C 23,3 C 6,4 km/h (2 Bft) 93,88 %
22.07.2017 12:34 23,5 C 25,0 C 65 % 1013,4 hPa 0,0 l/m 4,0 km/h (1 Bft) W 263 2 min 0,000 mm 3,6 UV-I 535 W/m 16,5 C 23,5 C 8,0 km/h (2 Bft) 100,00 %
22.07.2017 12:36 23,6 C 25,0 C 63 % 1013,4 hPa 0,0 l/m 3,3 km/h (1 Bft) S-SW 209 2 min 0,000 mm 3,7 UV-I 527 W/m 16,1 C 23,6 C 8,0 km/h (2 Bft) 98,00 %
22.07.2017 12:38 23,7 C 25,0 C 64 % 1013,4 hPa 0,0 l/m 6,2 km/h (2 Bft) W-SW 239 2 min 0,000 mm 3,8 UV-I 532 W/m 16,5 C 23,7 C 11,3 km/h (2 Bft) 100,00 %
22.07.2017 12:40 23,8 C 25,0 C 66 % 1013,5 hPa 0,0 l/m 4,3 km/h (1 Bft) W-SW 255 2 min 0,000 mm 3,9 UV-I 552 W/m 17,1 C 23,8 C 9,7 km/h (2 Bft) 97,87 %
22.07.2017 12:42 24,1 C 25,0 C 64 % 1013,5 hPa 0,0 l/m 1,0 km/h (0 Bft) W-SW 255 2 min 0,000 mm 4,1 UV-I 575 W/m 16,9 C 24,1 C 3,2 km/h (1 Bft) 97,87 %
22.07.2017 12:44 24,3 C 25,0 C 63 % 1013,5 hPa 0,0 l/m 2,1 km/h (1 Bft) W-SW 257 2 min 0,000 mm 4,1 UV-I 527 W/m 16,8 C 24,3 C 4,8 km/h (1 Bft) 97,87 %
22.07.2017 12:46 24,5 C 25,0 C 64 % 1013,5 hPa 0,0 l/m 4,4 km/h (1 Bft) W-SW 244 2 min 0,000 mm 5,1 UV-I 603 W/m 17,2 C 24,5 C 14,5 km/h (3 Bft) 97,87 %
22.07.2017 12:48 24,6 C 25,0 C 62 % 1013,5 hPa 0,0 l/m 7,4 km/h (2 Bft) W-SW 250 2 min 0,000 mm 5,4 UV-I 613 W/m 16,8 C 24,3 C 12,9 km/h (3 Bft) 93,62 %
22.07.2017 12:50 24,7 C 25,0 C 62 % 1013,5 hPa 0,0 l/m 7,2 km/h (2 Bft) S-SW 209 2 min 0,000 mm 4,9 UV-I 646 W/m 16,9 C 24,5 C 14,5 km/h (3 Bft) 100,00 %
22.07.2017 12:52 24,7 C 25,0 C 64 % 1013,5 hPa 0,0 l/m 8,7 km/h (2 Bft) W-SW 242 2 min 0,000 mm 6,1 UV-I 661 W/m 17,4 C 24,1 C 12,9 km/h (3 Bft) 97,56 %
22.07.2017 12:54 24,7 C 25,0 C 62 % 1013,5 hPa 0,0 l/m 10,2 km/h (2 Bft) SW 215 2 min 0,000 mm 6,2 UV-I 717 W/m 16,9 C 23,8 C 17,7 km/h (3 Bft) 97,87 %
22.07.2017 12:56 24,8 C 25,0 C 63 % 1013,4 hPa 0,0 l/m 3,1 km/h (1 Bft) N-NW 334 2 min 0,000 mm 6,4 UV-I 1111 W/m 17,3 C 24,8 C 6,4 km/h (2 Bft) 100,00 %
22.07.2017 12:58 24,8 C 25,0 C 61 % 1013,5 hPa 0,0 l/m 5,7 km/h (1 Bft) W-SW 253 2 min 0,000 mm 5,2 UV-I 1111 W/m 16,8 C 24,8 C 12,9 km/h (3 Bft) 97,87 %
22.07.2017 13:00 24,8 C 25,0 C 61 % 1013,5 hPa 0,0 l/m 11,0 km/h (2 Bft) SW 228 2 min 0,000 mm 4,1 UV-I 715 W/m 16,8 C 23,7 C 17,7 km/h (3 Bft) 100,00 %
22.07.2017 13:02 24,7 C 25,0 C 61 % 1013,5 hPa 0,0 l/m 10,4 km/h (2 Bft) W 261 2 min 0,330 mm 4,5 UV-I 490 W/m 16,7 C 23,7 C 14,5 km/h (3 Bft) 100,00 %
22.07.2017 13:04 24,6 C 25,0 C 62 % 1013,6 hPa 0,0 l/m 5,9 km/h (2 Bft) W-NW 298 0 min 0,000 mm 4,0 UV-I 454 W/m 16,8 C 24,6 C 12,9 km/h (3 Bft) 97,87 %
22.07.2017 13:06 24,3 C 25,0 C 61 % 1013,5 hPa 0,0 l/m 1,1 km/h (1 Bft) W-NW 298 0 min 0,000 mm 3,9 UV-I 421 W/m 16,3 C 24,3 C 3,2 km/h (1 Bft) 98,00 %
22.07.2017 13:08 24,2 C 25,0 C 63 % 1013,5 hPa 0,0 l/m 2,1 km/h (1 Bft) S 171 0 min 0,000 mm 3,7 UV-I 402 W/m 16,7 C 24,2 C 6,4 km/h (2 Bft) 97,22 %
22.07.2017 13:10 24,1 C 25,0 C 64 % 1013,5 hPa 0,0 l/m 6,7 km/h (2 Bft) W 268 0 min 0,000 mm 3,7 UV-I 401 W/m 16,9 C 24,0 C 12,9 km/h (3 Bft) 97,87 %
22.07.2017 13:12 24,1 C 25,0 C 62 % 1013,5 hPa 0,0 l/m 4,2 km/h (1 Bft) W-NW 292 0 min 0,000 mm 3,5 UV-I 370 W/m 16,4 C 24,1 C 9,7 km/h (2 Bft) 97,92 %
22.07.2017 13:14 24,0 C 25,0 C 64 % 1013,5 hPa 0,0 l/m 2,7 km/h (1 Bft) W-SW 254 0 min 0,000 mm 3,4 UV-I 367 W/m 16,8 C 24,0 C 6,4 km/h (2 Bft) 93,62 %
22.07.2017 13:16 24,2 C 25,0 C 64 % 1013,5 hPa 0,0 l/m 3,0 km/h (1 Bft) NW 316 0 min 0,000 mm 3,4 UV-I 377 W/m 16,9 C 24,2 C 4,8 km/h (1 Bft) 93,62 %
22.07.2017 13:18 24,3 C 25,0 C 63 % 1013,5 hPa 0,0 l/m 1,8 km/h (1 Bft) SW 236 0 min 0,000 mm 3,5 UV-I 394 W/m 16,8 C 24,3 C 4,8 km/h (1 Bft) 95,74 %
22.07.2017 13:20 24,4 C 25,0 C 63 % 1013,5 hPa 0,0 l/m 3,8 km/h (1 Bft) W-NW 291 0 min 0,000 mm 3,6 UV-I 412 W/m 16,9 C 24,4 C 8,0 km/h (2 Bft) 98,00 %
22.07.2017 13:22 24,4 C 25,0 C 61 % 1013,4 hPa 0,0 l/m 4,9 km/h (1 Bft) W 274 0 min 0,000 mm 3,7 UV-I 407 W/m 16,4 C 24,4 C 9,7 km/h (2 Bft) 96,00 %
22.07.2017 13:24 24,4 C 25,0 C 63 % 1013,4 hPa 0,0 l/m 7,4 km/h (2 Bft) S 191 0 min 0,000 mm 4,1 UV-I 425 W/m 16,9 C 24,1 C 12,9 km/h (3 Bft) 93,62 %
22.07.2017 13:26 24,6 C 25,0 C 61 % 1013,4 hPa 0,0 l/m 7,2 km/h (2 Bft) S 190 0 min 0,000 mm 4,9 UV-I 433 W/m 16,6 C 24,4 C 12,9 km/h (3 Bft) 97,87 %
22.07.2017 13:28 24,7 C 25,0 C 62 % 1013,4 hPa 0,0 l/m 7,2 km/h (2 Bft) W-SW 238 0 min 0,000 mm 3,8 UV-I 408 W/m 16,9 C 24,5 C 14,5 km/h (3 Bft) 97,56 %
22.07.2017 13:30 24,8 C 25,0 C 61 % 1013,4 hPa 0,0 l/m 10,8 km/h (2 Bft) S-SW 206 0 min 0,000 mm 4,1 UV-I 435 W/m 16,8 C 23,8 C 16,1 km/h (3 Bft) 95,74 %
22.07.2017 13:32 24,9 C 25,0 C 60 % 1013,4 hPa 0,0 l/m 7,0 km/h (2 Bft) S-SW 198 2 min 0,000 mm 4,8 UV-I 493 W/m 16,6 C 24,7 C 14,5 km/h (3 Bft) 95,74 %
22.07.2017 13:34 25,1 C 25,0 C 61 % 1013,4 hPa 0,0 l/m 7,5 km/h (2 Bft) W 259 2 min 0,000 mm 5,3 UV-I 601 W/m 17,0 C 24,8 C 11,3 km/h (2 Bft) 95,74 %
22.07.2017 13:36 25,2 C 25,0 C 58 % 1013,4 hPa 0,0 l/m 5,1 km/h (1 Bft) W-SW 245 2 min 0,000 mm 5,4 UV-I 740 W/m 16,3 C 25,2 C 6,4 km/h (2 Bft) 93,62 %
22.07.2017 13:38 25,2 C 25,0 C 59 % 1013,4 hPa 0,0 l/m 10,8 km/h (2 Bft) S-SW 202 0 min 0,000 mm 4,0 UV-I 447 W/m 16,6 C 24,2 C 16,1 km/h (3 Bft) 95,74 %
22.07.2017 13:40 25,1 C 25,0 C 59 % 1013,4 hPa 0,0 l/m 7,5 km/h (2 Bft) S 173 0 min 0,000 mm 4,1 UV-I 477 W/m 16,5 C 24,8 C 16,1 km/h (3 Bft) 97,87 %
22.07.2017 13:42 24,9 C 25,0 C 60 % 1013,4 hPa 0,0 l/m 5,8 km/h (2 Bft) S-SW 209 2 min 0,000 mm 4,4 UV-I 556 W/m 16,6 C 24,9 C 9,7 km/h (2 Bft) 95,74 %
22.07.2017 13:44 25,0 C 25,0 C 61 % 1013,4 hPa 0,0 l/m 4,3 km/h (1 Bft) S 173 2 min 0,000 mm 4,6 UV-I 601 W/m 16,9 C 25,0 C 11,3 km/h (2 Bft) 97,87 %
22.07.2017 13:46 25,0 C 25,0 C 60 % 1013,4 hPa 0,0 l/m 6,7 km/h (2 Bft) W-SW 246 2 min 0,000 mm 4,3 UV-I 539 W/m 16,7 C 24,9 C 9,7 km/h (2 Bft) 97,87 %
22.07.2017 13:48 25,1 C 25,0 C 61 % 1013,3 hPa 0,0 l/m 4,3 km/h (1 Bft) W-SW 254 2 min 0,000 mm 5,0 UV-I 635 W/m 17,0 C 25,1 C 8,0 km/h (2 Bft) 91,49 %
22.07.2017 13:50 25,3 C 25,0 C 62 % 1013,3 hPa 0,0 l/m 5,1 km/h (1 Bft) S-SW 213 2 min 0,000 mm 5,7 UV-I 768 W/m 17,5 C 25,3 C 14,5 km/h (3 Bft) 100,00 %
22.07.2017 13:52 25,7 C 25,0 C 60 % 1013,3 hPa 0,0 l/m 4,8 km/h (1 Bft) W 271 2 min 0,000 mm 5,6 UV-I 977 W/m 17,3 C 25,7 C 9,7 km/h (2 Bft) 97,87 %
22.07.2017 13:54 25,8 C 25,0 C 58 % 1013,3 hPa 0,0 l/m 7,5 km/h (2 Bft) W-SW 240 2 min 0,000 mm 6,5 UV-I 965 W/m 16,9 C 25,6 C 12,9 km/h (3 Bft) 100,00 %
22.07.2017 13:56 25,9 C 25,0 C 55 % 1013,3 hPa 0,0 l/m 7,7 km/h (2 Bft) W 272 2 min 0,000 mm 6,4 UV-I 907 W/m 16,2 C 25,6 C 12,9 km/h (3 Bft) 100,00 %
22.07.2017 13:58 25,7 C 25,0 C 56 % 1013,3 hPa 0,0 l/m 3,8 km/h (1 Bft) W-SW 253 2 min 0,000 mm 6,2 UV-I 870 W/m 16,2 C 25,7 C 6,4 km/h (2 Bft) 98,00 %
22.07.2017 14:00 25,8 C 25,0 C 58 % 1013,3 hPa 0,0 l/m 2,5 km/h (1 Bft) SW 217 2 min 0,000 mm 6,4 UV-I 963 W/m 16,9 C 25,8 C 6,4 km/h (2 Bft) 100,00 %
22.07.2017 14:02 26,1 C 25,0 C 58 % 1013,3 hPa 0,0 l/m 9,2 km/h (2 Bft) W 274 2 min 0,407 mm 6,4 UV-I 965 W/m 17,2 C 25,5 C 16,1 km/h (3 Bft) 97,56 %
22.07.2017 14:04 26,1 C 25,0 C 57 % 1013,3 hPa 0,0 l/m 7,2 km/h (2 Bft) W 277 2 min 0,000 mm 6,4 UV-I 961 W/m 16,9 C 25,9 C 17,7 km/h (3 Bft) 93,62 %
22.07.2017 14:06 25,9 C 25,0 C 53 % 1013,2 hPa 0,0 l/m 9,8 km/h (2 Bft) SW 227 2 min 0,000 mm 6,2 UV-I 932 W/m 15,6 C 25,2 C 17,7 km/h (3 Bft) 98,00 %
22.07.2017 14:08 26,0 C 25,0 C 56 % 1013,2 hPa 0,0 l/m 10,3 km/h (2 Bft) S-SW 202 2 min 0,000 mm 6,1 UV-I 902 W/m 16,5 C 25,2 C 17,7 km/h (3 Bft) 92,00 %
22.07.2017 14:10 26,2 C 25,0 C 54 % 1013,2 hPa 0,0 l/m 10,4 km/h (2 Bft) W-SW 240 2 min 0,000 mm 6,0 UV-I 891 W/m 16,1 C 25,4 C 24,1 km/h (4 Bft) 88,57 %
22.07.2017 14:12 26,3 C 25,0 C 54 % 1013,2 hPa 0,0 l/m 12,8 km/h (3 Bft) W 266 2 min 0,000 mm 6,0 UV-I 891 W/m 16,2 C 25,2 C 17,7 km/h (3 Bft) 92,00 %
22.07.2017 14:14 26,4 C 25,0 C 54 % 1013,2 hPa 0,0 l/m 5,3 km/h (1 Bft) W-NW 288 2 min 0,000 mm 6,0 UV-I 891 W/m 16,3 C 26,4 C 9,7 km/h (2 Bft) 93,62 %
22.07.2017 14:16 26,3 C 25,0 C 54 % 1013,1 hPa 0,0 l/m 4,5 km/h (1 Bft) NW 305 2 min 0,000 mm 5,9 UV-I 879 W/m 16,2 C 26,3 C 11,3 km/h (2 Bft) 93,62 %
22.07.2017 14:18 26,3 C 25,0 C 55 % 1013,1 hPa 0,0 l/m 3,6 km/h (1 Bft) SW 236 2 min 0,000 mm 5,9 UV-I 880 W/m 16,5 C 26,3 C 8,0 km/h (2 Bft) 97,87 %
22.07.2017 14:20 26,5 C 25,0 C 55 % 1013,1 hPa 0,0 l/m 4,7 km/h (1 Bft) S-SO 166 2 min 0,000 mm 5,9 UV-I 881 W/m 16,7 C 26,5 C 9,7 km/h (2 Bft) 91,49 %
22.07.2017 14:22 26,6 C 25,6 C 53 % 1013,1 hPa 0,0 l/m 3,3 km/h (1 Bft) W-NW 289 2 min 0,000 mm 5,9 UV-I 882 W/m 16,2 C 26,6 C 6,4 km/h (2 Bft) 92,00 %
22.07.2017 14:24 26,7 C 25,6 C 55 % 1013,1 hPa 0,0 l/m 9,1 km/h (2 Bft) W-SW 255 2 min 0,000 mm 5,8 UV-I 876 W/m 16,9 C 26,2 C 16,1 km/h (3 Bft) 93,62 %
22.07.2017 14:26 26,8 C 25,6 C 55 % 1013,1 hPa 0,0 l/m 10,4 km/h (2 Bft) W 267 2 min 0,000 mm 5,8 UV-I 875 W/m 17,0 C 26,1 C 16,1 km/h (3 Bft) 93,62 %
22.07.2017 14:28 26,7 C 25,6 C 54 % 1013,2 hPa 0,0 l/m 12,6 km/h (3 Bft) W 270 2 min 0,000 mm 5,8 UV-I 868 W/m 16,6 C 25,7 C 16,1 km/h (3 Bft) 91,49 %
22.07.2017 14:30 26,5 C 25,6 C 54 % 1013,1 hPa 0,0 l/m 5,4 km/h (1 Bft) W 277 2 min 0,000 mm 5,7 UV-I 857 W/m 16,4 C 26,5 C 11,3 km/h (2 Bft) 91,49 %
22.07.2017 14:32 26,4 C 25,6 C 55 % 1013,1 hPa 0,0 l/m 6,1 km/h (2 Bft) SW 232 2 min 0,000 mm 5,7 UV-I 856 W/m 16,6 C 26,4 C 14,5 km/h (3 Bft) 93,75 %
22.07.2017 14:34 26,4 C 25,6 C 55 % 1013,0 hPa 0,0 l/m 8,0 km/h (2 Bft) W-SW 256 2 min 0,000 mm 5,6 UV-I 850 W/m 16,6 C 26,1 C 12,9 km/h (3 Bft) 94,74 %
22.07.2017 14:36 26,4 C 25,6 C 55 % 1013,0 hPa 0,0 l/m 3,6 km/h (1 Bft) S-SW 196 2 min 0,000 mm 5,5 UV-I 822 W/m 16,6 C 26,4 C 9,7 km/h (2 Bft) 98,00 %
22.07.2017 14:38 26,5 C 25,6 C 55 % 1013,0 hPa 0,0 l/m 5,9 km/h (2 Bft) W 279 2 min 0,000 mm 5,5 UV-I 807 W/m 16,7 C 26,5 C 9,7 km/h (2 Bft) 95,74 %
22.07.2017 14:40 26,6 C 25,6 C 56 % 1013,0 hPa 0,0 l/m 5,7 km/h (1 Bft) S-SO 155 2 min 0,000 mm 5,5 UV-I 806 W/m 17,1 C 26,6 C 9,7 km/h (2 Bft) 87,23 %
22.07.2017 14:42 26,7 C 25,6 C 55 % 1012,9 hPa 0,0 l/m 8,3 km/h (2 Bft) W-SW 252 2 min 0,000 mm 5,4 UV-I 805 W/m 16,9 C 26,3 C 17,7 km/h (3 Bft) 97,87 %
22.07.2017 14:44 26,7 C 25,6 C 55 % 1012,9 hPa 0,0 l/m 6,0 km/h (2 Bft) W 265 2 min 0,000 mm 5,4 UV-I 801 W/m 16,9 C 26,7 C 17,7 km/h (3 Bft) 98,00 %
22.07.2017 14:46 26,7 C 25,6 C 54 % 1012,9 hPa 0,0 l/m 11,8 km/h (2 Bft) W-SW 239 2 min 0,000 mm 5,3 UV-I 798 W/m 16,6 C 25,8 C 20,9 km/h (4 Bft) 95,74 %
22.07.2017 14:48 26,7 C 25,6 C 54 % 1012,9 hPa 0,0 l/m 8,8 km/h (2 Bft) SW 219 2 min 0,000 mm 5,3 UV-I 800 W/m 16,6 C 26,2 C 17,7 km/h (3 Bft) 96,00 %
22.07.2017 14:50 26,7 C 25,6 C 55 % 1012,9 hPa 0,0 l/m 4,4 km/h (1 Bft) W-SW 248 2 min 0,000 mm 5,3 UV-I 796 W/m 16,9 C 26,7 C 6,4 km/h (2 Bft) 93,62 %
22.07.2017 14:52 26,8 C 25,6 C 54 % 1013,0 hPa 0,0 l/m 9,8 km/h (2 Bft) W 261 2 min 0,000 mm 5,2 UV-I 790 W/m 16,7 C 26,2 C 16,1 km/h (3 Bft) 93,62 %
22.07.2017 14:54 26,8 C 25,6 C 54 % 1012,9 hPa 0,0 l/m 9,7 km/h (2 Bft) W 271 2 min 0,000 mm 5,2 UV-I 793 W/m 16,7 C 26,2 C 16,1 km/h (3 Bft) 97,87 %
22.07.2017 14:56 26,8 C 25,6 C 54 % 1012,9 hPa 0,0 l/m 7,2 km/h (2 Bft) W 272 2 min 0,000 mm 5,2 UV-I 792 W/m 16,7 C 26,6 C 12,9 km/h (3 Bft) 95,74 %
22.07.2017 14:58 26,7 C 25,6 C 56 % 1012,9 hPa 0,0 l/m 3,4 km/h (1 Bft) NW 308 2 min 0,000 mm 5,1 UV-I 785 W/m 17,2 C 26,7 C 8,0 km/h (2 Bft) 95,74 %
22.07.2017 15:00 26,8 C 25,6 C 53 % 1012,9 hPa 0,0 l/m 5,0 km/h (1 Bft) W 277 2 min 0,584 mm 5,0 UV-I 778 W/m 16,4 C 26,8 C 11,3 km/h (2 Bft) 94,74 %
22.07.2017 15:02 26,8 C 25,6 C 53 % 1012,9 hPa 0,0 l/m 6,8 km/h (2 Bft) W-SW 246 2 min 0,000 mm 5,0 UV-I 786 W/m 16,4 C 26,7 C 14,5 km/h (3 Bft) 96,00 %
22.07.2017 15:04 26,9 C 25,6 C 54 % 1013,0 hPa 0,0 l/m 9,0 km/h (2 Bft) W-SW 246 2 min 0,000 mm 5,0 UV-I 787 W/m 16,8 C 26,4 C 16,1 km/h (3 Bft) 97,87 %
22.07.2017 15:06 27,0 C 25,6 C 54 % 1012,8 hPa 0,0 l/m 13,0 km/h (3 Bft) SW 224 2 min 0,000 mm 5,0 UV-I 785 W/m 16,9 C 26,0 C 17,7 km/h (3 Bft) 95,74 %
22.07.2017 15:08 27,2 C 25,6 C 55 % 1012,8 hPa 0,0 l/m 5,3 km/h (1 Bft) W 276 2 min 0,000 mm 5,0 UV-I 792 W/m 17,4 C 27,2 C 11,3 km/h (2 Bft) 97,92 %
22.07.2017 15:10 27,1 C 25,6 C 52 % 1012,9 hPa 0,0 l/m 5,5 km/h (1 Bft) W-SW 248 2 min 0,000 mm 4,9 UV-I 801 W/m 16,4 C 27,1 C 12,9 km/h (3 Bft) 95,74 %
22.07.2017 15:12 27,1 C 25,6 C 54 % 1012,8 hPa 0,0 l/m 3,2 km/h (1 Bft) W 268 2 min 0,000 mm 4,9 UV-I 817 W/m 17,0 C 27,1 C 9,7 km/h (2 Bft) 97,87 %
22.07.2017 15:14 27,2 C 25,6 C 54 % 1012,8 hPa 0,0 l/m 5,3 km/h (1 Bft) W-SW 246 2 min 0,000 mm 4,9 UV-I 847 W/m 17,1 C 27,2 C 11,3 km/h (2 Bft) 93,62 %
22.07.2017 15:16 27,1 C 25,6 C 52 % 1012,8 hPa 0,0 l/m 13,6 km/h (3 Bft) SW 216 2 min 0,000 mm 4,4 UV-I 833 W/m 16,4 C 26,0 C 17,7 km/h (3 Bft) 94,00 %
22.07.2017 15:18 27,1 C 25,6 C 54 % 1012,8 hPa 0,0 l/m 8,8 km/h (2 Bft) W-SW 246 2 min 0,000 mm 4,3 UV-I 849 W/m 17,0 C 26,7 C 12,9 km/h (3 Bft) 91,49 %
22.07.2017 15:20 27,2 C 25,6 C 53 % 1012,8 hPa 0,0 l/m 10,2 km/h (2 Bft) SW 224 2 min 0,000 mm 4,8 UV-I 860 W/m 16,8 C 26,6 C 16,1 km/h (3 Bft) 97,87 %
22.07.2017 15:22 27,2 C 25,6 C 53 % 1012,7 hPa 0,0 l/m 11,6 km/h (2 Bft) W-NW 289 2 min 0,000 mm 3,9 UV-I 755 W/m 16,8 C 26,4 C 17,7 km/h (3 Bft) 95,74 %
22.07.2017 15:24 27,1 C 25,6 C 53 % 1012,7 hPa 0,0 l/m 6,3 km/h (2 Bft) SW 227 0 min 0,000 mm 4,0 UV-I 418 W/m 16,7 C 27,1 C 11,3 km/h (2 Bft) 97,87 %
22.07.2017 15:26 27,0 C 25,6 C 54 % 1012,7 hPa 0,0 l/m 7,1 km/h (2 Bft) W 259 2 min 0,000 mm 4,0 UV-I 638 W/m 16,9 C 26,9 C 12,9 km/h (3 Bft) 93,62 %
22.07.2017 15:28 27,2 C 25,6 C 54 % 1012,7 hPa 0,0 l/m 6,0 km/h (2 Bft) W-SW 254 2 min 0,000 mm 4,1 UV-I 831 W/m 17,1 C 27,2 C 9,7 km/h (2 Bft) 100,00 %
22.07.2017 15:30 27,4 C 25,6 C 51 % 1012,7 hPa 0,0 l/m 7,5 km/h (2 Bft) SW 221 2 min 0,000 mm 4,7 UV-I 847 W/m 16,3 C 27,2 C 12,9 km/h (3 Bft) 96,43 %
22.07.2017 15:32 27,5 C 25,6 C 52 % 1012,7 hPa 0,0 l/m 5,3 km/h (1 Bft) NW 316 2 min 0,000 mm 3,7 UV-I 784 W/m 16,7 C 27,5 C 9,7 km/h (2 Bft) 95,74 %
22.07.2017 15:34 27,6 C 25,6 C 52 % 1012,7 hPa 0,0 l/m 6,5 km/h (2 Bft) W 261 2 min 0,000 mm 3,1 UV-I 519 W/m 16,8 C 27,6 C 11,3 km/h (2 Bft) 98,00 %
22.07.2017 15:36 27,5 C 25,6 C 50 % 1012,7 hPa 0,0 l/m 7,2 km/h (2 Bft) W 281 0 min 0,000 mm 3,1 UV-I 399 W/m 16,1 C 27,4 C 12,9 km/h (3 Bft) 95,74 %
22.07.2017 15:38 27,2 C 25,6 C 50 % 1012,8 hPa 0,0 l/m 4,9 km/h (1 Bft) W-SW 239 0 min 0,000 mm 4,1 UV-I 383 W/m 15,9 C 27,2 C 11,3 km/h (2 Bft) 93,62 %
22.07.2017 15:40 27,1 C 25,6 C 52 % 1012,7 hPa 0,0 l/m 4,6 km/h (1 Bft) SW 214 2 min 0,000 mm 4,1 UV-I 745 W/m 16,4 C 27,1 C 8,0 km/h (2 Bft) 97,87 %
22.07.2017 15:42 27,1 C 25,6 C 53 % 1012,7 hPa 0,0 l/m 5,4 km/h (1 Bft) W-SW 245 2 min 0,000 mm 4,3 UV-I 763 W/m 16,7 C 27,1 C 16,1 km/h (3 Bft) 95,74 %
22.07.2017 15:44 27,3 C 25,6 C 53 % 1012,6 hPa 0,0 l/m 8,6 km/h (2 Bft) W 271 2 min 0,000 mm 4,2 UV-I 732 W/m 16,9 C 26,9 C 17,7 km/h (3 Bft) 100,00 %
22.07.2017 15:46 27,3 C 25,6 C 52 % 1012,6 hPa 0,0 l/m 5,7 km/h (1 Bft) W-NW 286 2 min 0,000 mm 4,1 UV-I 720 W/m 16,6 C 27,3 C 12,9 km/h (3 Bft) 91,67 %
22.07.2017 15:48 27,4 C 25,6 C 52 % 1012,6 hPa 0,0 l/m 7,0 km/h (2 Bft) W-SW 249 2 min 0,000 mm 3,9 UV-I 714 W/m 16,7 C 27,3 C 12,9 km/h (3 Bft) 98,39 %
22.07.2017 15:50 27,4 C 25,6 C 52 % 1012,6 hPa 0,0 l/m 6,8 km/h (2 Bft) W 263 2 min 0,000 mm 4,0 UV-I 701 W/m 16,7 C 27,3 C 17,7 km/h (3 Bft) 100,00 %
22.07.2017 15:52 27,4 C 25,6 C 52 % 1012,6 hPa 0,0 l/m 9,2 km/h (2 Bft) SW 233 2 min 0,000 mm 3,9 UV-I 696 W/m 16,7 C 26,9 C 16,1 km/h (3 Bft) 98,00 %
22.07.2017 15:54 27,4 C 25,6 C 52 % 1012,6 hPa 0,0 l/m 3,1 km/h (1 Bft) O-NO 76 2 min 0,000 mm 3,9 UV-I 693 W/m 16,7 C 27,4 C 12,9 km/h (3 Bft) 95,74 %
22.07.2017 15:56 27,6 C 25,6 C 52 % 1012,5 hPa 0,0 l/m 10,6 km/h (2 Bft) W-NW 293 2 min 0,000 mm 3,8 UV-I 687 W/m 16,8 C 27,0 C 22,5 km/h (4 Bft) 97,87 %
22.07.2017 15:58 27,7 C 25,6 C 52 % 1012,5 hPa 0,0 l/m 7,7 km/h (2 Bft) W-SW 245 2 min 0,000 mm 3,8 UV-I 685 W/m 16,9 C 27,5 C 16,1 km/h (3 Bft) 100,00 %
22.07.2017 16:00 27,7 C 25,6 C 50 % 1012,6 hPa 0,0 l/m 9,4 km/h (2 Bft) W 269 2 min 0,000 mm 2,9 UV-I 680 W/m 16,3 C 27,2 C 17,7 km/h (3 Bft) 98,18 %
22.07.2017 16:02 27,6 C 26,1 C 49 % 1012,6 hPa 0,0 l/m 9,9 km/h (2 Bft) W 269 2 min 0,508 mm 3,1 UV-I 646 W/m 15,9 C 27,0 C 14,5 km/h (3 Bft) 98,00 %
22.07.2017 16:04 27,4 C 26,1 C 50 % 1012,5 hPa 0,0 l/m 5,0 km/h (1 Bft) SW 229 2 min 0,000 mm 3,6 UV-I 669 W/m 16,0 C 27,4 C 11,3 km/h (2 Bft) 97,87 %
22.07.2017 16:06 27,5 C 26,1 C 51 % 1012,6 hPa 0,0 l/m 10,7 km/h (2 Bft) S-SW 209 2 min 0,000 mm 3,5 UV-I 650 W/m 16,4 C 26,8 C 16,1 km/h (3 Bft) 100,00 %
22.07.2017 16:08 27,4 C 26,1 C 51 % 1012,5 hPa 0,0 l/m 11,1 km/h (2 Bft) S-SW 211 2 min 0,000 mm 3,5 UV-I 655 W/m 16,3 C 26,7 C 20,9 km/h (4 Bft) 100,00 %
22.07.2017 16:10 27,4 C 26,1 C 51 % 1012,5 hPa 0,0 l/m 9,5 km/h (2 Bft) W-NW 282 2 min 0,000 mm 3,5 UV-I 652 W/m 16,3 C 26,9 C 19,3 km/h (3 Bft) 97,87 %
22.07.2017 16:12 27,7 C 26,1 C 52 % 1012,5 hPa 0,0 l/m 9,0 km/h (2 Bft) W 263 2 min 0,000 mm 3,4 UV-I 647 W/m 16,9 C 27,3 C 14,5 km/h (3 Bft) 95,74 %
22.07.2017 16:14 27,7 C 26,1 C 52 % 1012,5 hPa 0,0 l/m 6,8 km/h (2 Bft) SW 231 2 min 0,000 mm 3,4 UV-I 642 W/m 16,9 C 27,6 C 14,5 km/h (3 Bft) 100,00 %
22.07.2017 16:16 27,6 C 26,1 C 50 % 1012,4 hPa 0,0 l/m 1,9 km/h (1 Bft) SW 223 2 min 0,000 mm 3,3 UV-I 631 W/m 16,2 C 27,6 C 6,4 km/h (2 Bft) 95,74 %
22.07.2017 16:18 27,5 C 26,1 C 52 % 1012,4 hPa 0,0 l/m 4,6 km/h (1 Bft) W 260 2 min 0,000 mm 3,2 UV-I 622 W/m 16,7 C 27,5 C 6,4 km/h (2 Bft) 100,00 %
22.07.2017 16:20 27,6 C 26,1 C 50 % 1012,4 hPa 0,0 l/m 4,9 km/h (1 Bft) W-SW 239 2 min 0,000 mm 3,2 UV-I 630 W/m 16,2 C 27,6 C 11,3 km/h (2 Bft) 97,37 %
22.07.2017 16:22 27,6 C 26,1 C 52 % 1012,3 hPa 0,0 l/m 7,2 km/h (2 Bft) W 267 2 min 0,000 mm 3,2 UV-I 627 W/m 16,8 C 27,5 C 11,3 km/h (2 Bft) 98,08 %
22.07.2017 16:24 27,6 C 26,1 C 50 % 1012,3 hPa 0,0 l/m 4,3 km/h (1 Bft) S-SW 208 2 min 0,000 mm 3,1 UV-I 609 W/m 16,2 C 27,6 C 8,0 km/h (2 Bft) 98,00 %
22.07.2017 16:26 27,5 C 26,1 C 51 % 1012,4 hPa 0,0 l/m 6,2 km/h (2 Bft) SW 224 2 min 0,000 mm 2,9 UV-I 596 W/m 16,4 C 27,5 C 11,3 km/h (2 Bft) 100,00 %
22.07.2017 16:28 27,4 C 26,1 C 50 % 1012,3 hPa 0,0 l/m 4,4 km/h (1 Bft) W 281 2 min 0,000 mm 3,0 UV-I 625 W/m 16,0 C 27,4 C 8,0 km/h (2 Bft) 97,92 %
22.07.2017 16:30 27,3 C 26,1 C 49 % 1012,3 hPa 0,0 l/m 1,7 km/h (1 Bft) W-SW 258 2 min 0,000 mm 2,6 UV-I 621 W/m 15,6 C 27,3 C 4,8 km/h (1 Bft) 100,00 %
22.07.2017 16:32 27,2 C 26,1 C 52 % 1012,3 hPa 0,0 l/m 4,1 km/h (1 Bft) W 263 2 min 0,000 mm 2,6 UV-I 621 W/m 16,5 C 27,2 C 12,9 km/h (3 Bft) 100,00 %
22.07.2017 16:34 27,2 C 26,1 C 52 % 1012,3 hPa 0,0 l/m 4,6 km/h (1 Bft) W 265 0 min 0,000 mm 2,5 UV-I 324 W/m 16,5 C 27,2 C 9,7 km/h (2 Bft) 100,00 %
22.07.2017 16:36 27,4 C 26,1 C 53 % 1012,3 hPa 0,0 l/m 4,3 km/h (1 Bft) W-SW 248 2 min 0,000 mm 2,9 UV-I 618 W/m 17,0 C 27,4 C 11,3 km/h (2 Bft) 97,87 %
22.07.2017 16:38 27,4 C 26,1 C 51 % 1012,3 hPa 0,0 l/m 3,3 km/h (1 Bft) W 263 2 min 0,000 mm 2,8 UV-I 629 W/m 16,3 C 27,4 C 6,4 km/h (2 Bft) 100,00 %
22.07.2017 16:40 27,6 C 26,1 C 50 % 1012,3 hPa 0,0 l/m 2,5 km/h (1 Bft) W 273 2 min 0,000 mm 2,8 UV-I 619 W/m 16,2 C 27,6 C 4,8 km/h (1 Bft) 100,00 %
22.07.2017 16:42 27,7 C 26,1 C 51 % 1012,3 hPa 0,0 l/m 7,1 km/h (2 Bft) W-SW 246 2 min 0,000 mm 2,8 UV-I 610 W/m 16,6 C 27,6 C 12,9 km/h (3 Bft) 100,00 %
22.07.2017 16:44 27,8 C 26,1 C 51 % 1012,3 hPa 0,0 l/m 12,6 km/h (3 Bft) W-SW 256 2 min 0,000 mm 2,7 UV-I 598 W/m 16,7 C 26,9 C 17,7 km/h (3 Bft) 98,11 %
22.07.2017 16:46 27,8 C 26,1 C 51 % 1012,3 hPa 0,0 l/m 6,6 km/h (2 Bft) SW 231 2 min 0,000 mm 2,6 UV-I 585 W/m 16,7 C 27,8 C 12,9 km/h (3 Bft) 98,00 %
22.07.2017 16:48 27,8 C 26,1 C 49 % 1012,3 hPa 0,0 l/m 5,0 km/h (1 Bft) W-SW 251 2 min 0,000 mm 2,6 UV-I 579 W/m 16,1 C 27,8 C 12,9 km/h (3 Bft) 100,00 %
22.07.2017 16:50 27,7 C 26,1 C 50 % 1012,3 hPa 0,0 l/m 5,0 km/h (1 Bft) SW 219 2 min 0,000 mm 2,5 UV-I 566 W/m 16,3 C 27,7 C 11,3 km/h (2 Bft) 100,00 %
22.07.2017 16:52 27,8 C 26,1 C 50 % 1012,2 hPa 0,0 l/m 7,9 km/h (2 Bft) S-SW 207 2 min 0,000 mm 2,5 UV-I 559 W/m 16,4 C 27,6 C 12,9 km/h (3 Bft) 100,00 %
22.07.2017 16:54 27,8 C 26,1 C 50 % 1012,2 hPa 0,0 l/m 7,2 km/h (2 Bft) SW 232 2 min 0,000 mm 2,5 UV-I 548 W/m 16,4 C 27,7 C 9,7 km/h (2 Bft) 100,00 %
22.07.2017 16:56 27,7 C 26,1 C 49 % 1012,2 hPa 0,0 l/m 4,1 km/h (1 Bft) S-SO 164 2 min 0,000 mm 2,4 UV-I 538 W/m 16,0 C 27,7 C 8,0 km/h (2 Bft) 100,00 %
22.07.2017 16:58 27,6 C 26,1 C 50 % 1012,2 hPa 0,0 l/m 2,7 km/h (1 Bft) O-SO 115 2 min 0,000 mm 2,3 UV-I 533 W/m 16,2 C 27,6 C 6,4 km/h (2 Bft) 100,00 %
22.07.2017 17:00 27,3 C 26,1 C 51 % 1012,1 hPa 0,0 l/m 1,9 km/h (1 Bft) O-SO 111 2 min 0,432 mm 2,3 UV-I 527 W/m 16,3 C 27,3 C 6,4 km/h (2 Bft) 95,74 %
22.07.2017 17:02 27,4 C 26,1 C 51 % 1012,1 hPa 0,0 l/m 2,1 km/h (1 Bft) W 275 2 min 0,000 mm 2,3 UV-I 526 W/m 16,3 C 27,4 C 8,0 km/h (2 Bft) 93,62 %
22.07.2017 17:04 27,5 C 26,1 C 51 % 1012,0 hPa 0,0 l/m 5,5 km/h (1 Bft) W-SW 257 2 min 0,000 mm 2,2 UV-I 525 W/m 16,4 C 27,5 C 11,3 km/h (2 Bft) 97,87 %
22.07.2017 17:06 27,5 C 26,1 C 51 % 1012,1 hPa 0,0 l/m 9,0 km/h (2 Bft) W-SW 244 2 min 0,000 mm 2,2 UV-I 520 W/m 16,4 C 27,1 C 12,9 km/h (3 Bft) 93,75 %
22.07.2017 17:08 27,5 C 26,1 C 51 % 1012,1 hPa 0,0 l/m 4,4 km/h (1 Bft) SW 225 2 min 0,000 mm 2,2 UV-I 515 W/m 16,4 C 27,5 C 12,9 km/h (3 Bft) 95,65 %
22.07.2017 17:10 27,5 C 26,1 C 51 % 1012,1 hPa 0,0 l/m 6,3 km/h (2 Bft) SW 215 2 min 0,000 mm 2,1 UV-I 513 W/m 16,4 C 27,5 C 11,3 km/h (2 Bft) 100,00 %
22.07.2017 17:12 27,5 C 26,1 C 51 % 1012,1 hPa 0,0 l/m 8,9 km/h (2 Bft) SW 236 2 min 0,000 mm 2,1 UV-I 507 W/m 16,4 C 27,1 C 12,9 km/h (3 Bft) 94,00 %
22.07.2017 17:14 27,5 C 26,1 C 51 % 1012,0 hPa 0,0 l/m 3,8 km/h (1 Bft) S 190 2 min 0,000 mm 2,1 UV-I 500 W/m 16,4 C 27,5 C 11,3 km/h (2 Bft) 95,74 %
22.07.2017 17:16 27,5 C 26,1 C 51 % 1012,0 hPa 0,0 l/m 2,4 km/h (1 Bft) S 173 2 min 0,000 mm 2,0 UV-I 494 W/m 16,4 C 27,5 C 4,8 km/h (1 Bft) 87,23 %
22.07.2017 17:18 27,5 C 26,1 C 51 % 1012,0 hPa 0,0 l/m 5,6 km/h (1 Bft) W-SW 250 2 min 0,000 mm 2,0 UV-I 486 W/m 16,4 C 27,5 C 8,0 km/h (2 Bft) 93,62 %
22.07.2017 17:20 27,5 C 26,1 C 51 % 1012,0 hPa 0,0 l/m 3,8 km/h (1 Bft) S-SW 203 2 min 0,000 mm 1,9 UV-I 473 W/m 16,4 C 27,5 C 8,0 km/h (2 Bft) 97,87 %
22.07.2017 17:22 27,5 C 26,1 C 51 % 1012,0 hPa 0,0 l/m 4,2 km/h (1 Bft) S-SW 208 2 min 0,000 mm 1,9 UV-I 469 W/m 16,4 C 27,5 C 6,4 km/h (2 Bft) 97,87 %
22.07.2017 17:24 27,5 C 26,1 C 51 % 1012,0 hPa 0,0 l/m 0,8 km/h (0 Bft) S-SW 208 2 min 0,000 mm 1,8 UV-I 463 W/m 16,4 C 27,5 C 3,2 km/h (1 Bft) 94,00 %
22.07.2017 17:26 27,5 C 26,1 C 51 % 1012,0 hPa 0,0 l/m 3,1 km/h (1 Bft) W 263 2 min 0,000 mm 1,8 UV-I 459 W/m 16,4 C 27,5 C 6,4 km/h (2 Bft) 95,74 %
22.07.2017 17:28 27,5 C 26,1 C 51 % 1011,9 hPa 0,0 l/m 5,6 km/h (1 Bft) SW 214 2 min 0,000 mm 1,8 UV-I 455 W/m 16,4 C 27,5 C 8,0 km/h (2 Bft) 93,62 %
22.07.2017 17:30 27,5 C 26,1 C 51 % 1011,9 hPa 0,0 l/m 5,5 km/h (1 Bft) S-SW 197 2 min 0,000 mm 1,7 UV-I 447 W/m 16,4 C 27,5 C 9,7 km/h (2 Bft) 93,62 %
22.07.2017 17:32 26,9 C 26,1 C 52 % 1011,9 hPa 0,0 l/m 5,5 km/h (1 Bft) S 169 2 min 0,000 mm 1,7 UV-I 444 W/m 16,2 C 26,9 C 9,7 km/h (2 Bft) 93,62 %
22.07.2017 17:34 26,8 C 26,1 C 52 % 1011,9 hPa 0,0 l/m 5,6 km/h (1 Bft) S-SW 213 2 min 0,000 mm 1,6 UV-I 435 W/m 16,1 C 26,8 C 9,7 km/h (2 Bft) 93,62 %
22.07.2017 17:36 26,9 C 26,1 C 53 % 1012,0 hPa 0,0 l/m 7,0 km/h (2 Bft) W-NW 284 2 min 0,000 mm 1,6 UV-I 430 W/m 16,5 C 26,8 C 14,5 km/h (3 Bft) 91,49 %
22.07.2017 17:38 26,9 C 26,1 C 52 % 1011,9 hPa 0,0 l/m 3,1 km/h (1 Bft) S-SO 161 2 min 0,000 mm 1,6 UV-I 426 W/m 16,2 C 26,9 C 6,4 km/h (2 Bft) 97,87 %
22.07.2017 17:40 26,9 C 26,1 C 53 % 1011,9 hPa 0,0 l/m 2,8 km/h (1 Bft) S-SO 161 2 min 0,000 mm 1,5 UV-I 420 W/m 16,5 C 26,9 C 6,4 km/h (2 Bft) 95,74 %
22.07.2017 17:42 27,0 C 26,1 C 54 % 1011,9 hPa 0,0 l/m 4,9 km/h (1 Bft) SW 235 2 min 0,000 mm 1,5 UV-I 413 W/m 16,9 C 27,0 C 8,0 km/h (2 Bft) 96,00 %
22.07.2017 17:44 27,2 C 26,1 C 53 % 1011,9 hPa 0,0 l/m 3,2 km/h (1 Bft) W-SW 244 2 min 0,000 mm 1,4 UV-I 409 W/m 16,8 C 27,2 C 6,4 km/h (2 Bft) 95,74 %
22.07.2017 17:46 27,3 C 26,1 C 53 % 1011,8 hPa 0,0 l/m 2,2 km/h (1 Bft) NW 321 2 min 0,000 mm 1,4 UV-I 403 W/m 16,9 C 27,3 C 6,4 km/h (2 Bft) 95,74 %
22.07.2017 17:48 27,3 C 26,1 C 51 % 1011,9 hPa 0,0 l/m 3,1 km/h (1 Bft) W-NW 295 2 min 0,000 mm 1,4 UV-I 399 W/m 16,3 C 27,3 C 6,4 km/h (2 Bft) 93,62 %
22.07.2017 17:50 27,3 C 26,1 C 52 % 1011,9 hPa 0,0 l/m 1,3 km/h (1 Bft) W 279 2 min 0,000 mm 1,3 UV-I 394 W/m 16,6 C 27,3 C 3,2 km/h (1 Bft) 97,22 %
22.07.2017 17:52 27,4 C 26,1 C 51 % 1011,8 hPa 0,0 l/m 2,2 km/h (1 Bft) S 169 2 min 0,000 mm 1,3 UV-I 388 W/m 16,3 C 27,4 C 4,8 km/h (1 Bft) 95,74 %
22.07.2017 17:54 27,2 C 26,1 C 51 % 1011,8 hPa 0,0 l/m 3,9 km/h (1 Bft) SO 142 2 min 0,000 mm 1,3 UV-I 381 W/m 16,2 C 27,2 C 6,4 km/h (2 Bft) 95,74 %
22.07.2017 17:56 27,2 C 26,1 C 53 % 1011,8 hPa 0,0 l/m 2,3 km/h (1 Bft) SO 129 2 min 0,000 mm 1,3 UV-I 374 W/m 16,8 C 27,2 C 4,8 km/h (1 Bft) 97,87 %
22.07.2017 17:58 27,3 C 26,1 C 53 % 1011,7 hPa 0,0 l/m 3,6 km/h (1 Bft) SO 145 2 min 0,000 mm 1,2 UV-I 370 W/m 16,9 C 27,3 C 8,0 km/h (2 Bft) 97,87 %
22.07.2017 18:00 27,3 C 26,1 C 52 % 1011,8 hPa 0,0 l/m 5,8 km/h (2 Bft) S-SW 201 2 min 0,000 mm 1,2 UV-I 363 W/m 16,6 C 27,3 C 9,7 km/h (2 Bft) 93,62 %
22.07.2017 18:02 27,3 C 26,1 C 53 % 1011,8 hPa 0,0 l/m 2,1 km/h (1 Bft) S 179 2 min 0,330 mm 1,2 UV-I 357 W/m 16,9 C 27,3 C 6,4 km/h (2 Bft) 93,62 %
22.07.2017 18:04 27,3 C 26,1 C 50 % 1011,7 hPa 0,0 l/m 2,6 km/h (1 Bft) S-SO 153 2 min 0,000 mm 1,1 UV-I 351 W/m 15,9 C 27,3 C 8,0 km/h (2 Bft) 97,87 %
22.07.2017 18:06 27,4 C 26,1 C 54 % 1011,8 hPa 0,0 l/m 3,4 km/h (1 Bft) O-SO 115 2 min 0,000 mm 1,1 UV-I 345 W/m 17,3 C 27,4 C 6,4 km/h (2 Bft) 93,62 %
22.07.2017 18:08 27,4 C 26,1 C 53 % 1011,7 hPa 0,0 l/m 3,1 km/h (1 Bft) SO 124 2 min 0,000 mm 1,1 UV-I 340 W/m 17,0 C 27,4 C 6,4 km/h (2 Bft) 95,74 %
22.07.2017 18:10 27,4 C 26,1 C 52 % 1011,7 hPa 0,0 l/m 2,9 km/h (1 Bft) S-SO 165 2 min 0,000 mm 1,0 UV-I 337 W/m 16,7 C 27,4 C 6,4 km/h (2 Bft) 94,00 %
22.07.2017 18:12 27,3 C 26,1 C 51 % 1011,8 hPa 0,0 l/m 3,0 km/h (1 Bft) W 259 2 min 0,000 mm 1,0 UV-I 331 W/m 16,3 C 27,3 C 6,4 km/h (2 Bft) 94,00 %
22.07.2017 18:14 27,5 C 26,1 C 51 % 1011,8 hPa 0,0 l/m 1,4 km/h (1 Bft) W 260 2 min 0,000 mm 1,0 UV-I 326 W/m 16,4 C 27,5 C 4,8 km/h (1 Bft) 95,74 %
22.07.2017 18:16 27,7 C 26,1 C 50 % 1011,9 hPa 0,0 l/m 1,1 km/h (1 Bft) W 260 2 min 0,000 mm 1,0 UV-I 318 W/m 16,3 C 27,7 C 3,2 km/h (1 Bft) 91,43 %
22.07.2017 18:18 27,8 C 26,1 C 50 % 1011,9 hPa 0,0 l/m 3,1 km/h (1 Bft) W 267 2 min 0,000 mm 0,9 UV-I 309 W/m 16,4 C 27,8 C 6,4 km/h (2 Bft) 96,00 %
22.07.2017 18:20 27,7 C 26,1 C 50 % 1011,9 hPa 0,0 l/m 4,7 km/h (1 Bft) W-NW 285 2 min 0,000 mm 0,9 UV-I 301 W/m 16,3 C 27,7 C 9,7 km/h (2 Bft) 97,92 %
22.07.2017 18:22 27,6 C 26,1 C 49 % 1011,9 hPa 0,0 l/m 1,3 km/h (1 Bft) W-NW 288 2 min 0,000 mm 0,9 UV-I 293 W/m 15,9 C 27,6 C 4,8 km/h (1 Bft) 97,87 %
22.07.2017 18:24 27,6 C 26,1 C 50 % 1011,9 hPa 0,0 l/m 0,8 km/h (0 Bft) W-NW 288 2 min 0,000 mm 0,8 UV-I 291 W/m 16,2 C 27,6 C 3,2 km/h (1 Bft) 95,74 %
22.07.2017 18:26 27,6 C 26,1 C 50 % 1012,0 hPa 0,0 l/m 1,6 km/h (1 Bft) W-NW 288 2 min 0,000 mm 0,8 UV-I 287 W/m 16,2 C 27,6 C 4,8 km/h (1 Bft) 93,62 %
22.07.2017 18:28 27,6 C 26,1 C 50 % 1011,9 hPa 0,0 l/m 1,1 km/h (1 Bft) W-NW 288 2 min 0,000 mm 0,8 UV-I 282 W/m 16,2 C 27,6 C 3,2 km/h (1 Bft) 100,00 %
22.07.2017 18:30 27,6 C 26,1 C 51 % 1011,9 hPa 0,0 l/m 0,5 km/h (0 Bft) W-NW 288 2 min 0,000 mm 0,8 UV-I 278 W/m 16,5 C 27,6 C 3,2 km/h (1 Bft) 97,87 %
22.07.2017 18:32 27,7 C 26,1 C 50 % 1011,9 hPa 0,0 l/m 2,5 km/h (1 Bft) W-NW 288 2 min 0,000 mm 0,7 UV-I 273 W/m 16,3 C 27,7 C 4,8 km/h (1 Bft) 93,62 %
22.07.2017 18:34 27,7 C 26,1 C 50 % 1011,9 hPa 0,0 l/m 1,0 km/h (0 Bft) W-NW 288 2 min 0,000 mm 0,7 UV-I 269 W/m 16,3 C 27,7 C 3,2 km/h (1 Bft) 96,00 %
22.07.2017 18:36 27,7 C 26,1 C 49 % 1011,9 hPa 0,0 l/m 0,6 km/h (0 Bft) W-NW 288 2 min 0,000 mm 0,7 UV-I 263 W/m 16,0 C 27,7 C 1,6 km/h (1 Bft) 100,00 %
22.07.2017 18:38 27,7 C 26,1 C 49 % 1012,0 hPa 0,0 l/m 0,3 km/h (0 Bft) W-NW 288 2 min 0,000 mm 0,7 UV-I 258 W/m 16,0 C 27,7 C 1,6 km/h (1 Bft) 92,11 %
22.07.2017 18:40 27,7 C 26,1 C 49 % 1012,0 hPa 0,0 l/m 0,8 km/h (0 Bft) W-NW 288 2 min 0,000 mm 0,6 UV-I 252 W/m 16,0 C 27,7 C 1,6 km/h (1 Bft) 91,49 %
22.07.2017 18:42 27,7 C 26,1 C 49 % 1012,0 hPa 0,0 l/m 0,3 km/h (0 Bft) W-NW 288 2 min 0,000 mm 0,6 UV-I 246 W/m 16,0 C 27,7 C 1,6 km/h (1 Bft) 100,00 %
22.07.2017 18:44 27,7 C 26,1 C 50 % 1012,0 hPa 0,0 l/m 2,0 km/h (1 Bft) S-SO 167 2 min 0,000 mm 0,6 UV-I 240 W/m 16,3 C 27,7 C 4,8 km/h (1 Bft) 100,00 %
22.07.2017 18:46 27,5 C 26,1 C 50 % 1012,0 hPa 0,0 l/m 3,4 km/h (1 Bft) S-SO 167 2 min 0,000 mm 0,6 UV-I 233 W/m 16,1 C 27,5 C 8,0 km/h (2 Bft) 97,87 %
22.07.2017 18:48 27,4 C 26,1 C 50 % 1012,0 hPa 0,0 l/m 3,3 km/h (1 Bft) S-SO 161 2 min 0,000 mm 0,5 UV-I 226 W/m 16,0 C 27,4 C 6,4 km/h (2 Bft) 93,62 %
22.07.2017 18:50 27,3 C 26,1 C 52 % 1012,0 hPa 0,0 l/m 4,4 km/h (1 Bft) S-SW 207 2 min 0,000 mm 0,5 UV-I 219 W/m 16,6 C 27,3 C 8,0 km/h (2 Bft) 93,62 %
22.07.2017 18:52 27,3 C 26,1 C 51 % 1012,0 hPa 0,0 l/m 4,6 km/h (1 Bft) SW 225 2 min 0,000 mm 0,5 UV-I 214 W/m 16,3 C 27,3 C 6,4 km/h (2 Bft) 97,87 %
22.07.2017 18:54 27,4 C 26,1 C 51 % 1012,0 hPa 0,0 l/m 2,1 km/h (1 Bft) SW 225 2 min 0,000 mm 0,5 UV-I 208 W/m 16,3 C 27,4 C 3,2 km/h (1 Bft) 95,74 %
22.07.2017 18:56 27,3 C 26,1 C 50 % 1012,0 hPa 0,0 l/m 0,5 km/h (0 Bft) SW 225 2 min 0,000 mm 0,5 UV-I 204 W/m 15,9 C 27,3 C 1,6 km/h (1 Bft) 87,23 %
22.07.2017 18:58 27,3 C 26,1 C 51 % 1012,0 hPa 0,0 l/m 0,2 km/h (0 Bft) SW 225 2 min 0,000 mm 0,4 UV-I 199 W/m 16,3 C 27,3 C 1,6 km/h (1 Bft) 98,00 %
22.07.2017 19:00 27,3 C 26,1 C 51 % 1012,0 hPa 0,0 l/m 3,0 km/h (1 Bft) S-SW 199 2 min 0,203 mm 0,0 UV-I 195 W/m 16,3 C 27,3 C 8,0 km/h (2 Bft) 97,87 %
22.07.2017 19:02 27,3 C 26,1 C 51 % 1012,1 hPa 0,0 l/m 3,9 km/h (1 Bft) S-SW 207 2 min 0,000 mm 0,0 UV-I 189 W/m 16,3 C 27,3 C 8,0 km/h (2 Bft) 95,74 %
22.07.2017 19:04 27,3 C 26,1 C 51 % 1012,1 hPa 0,0 l/m 3,6 km/h (1 Bft) S-SW 209 2 min 0,000 mm 0,0 UV-I 183 W/m 16,3 C 27,3 C 6,4 km/h (2 Bft) 95,74 %
22.07.2017 19:06 27,3 C 26,1 C 52 % 1012,1 hPa 0,0 l/m 0,5 km/h (0 Bft) S-SW 209 2 min 0,000 mm 0,0 UV-I 179 W/m 16,6 C 27,3 C 3,2 km/h (1 Bft) 93,75 %
22.07.2017 19:08 27,3 C 26,1 C 52 % 1012,0 hPa 0,0 l/m 1,2 km/h (1 Bft) S-SW 209 2 min 0,000 mm 0,0 UV-I 173 W/m 16,6 C 27,3 C 3,2 km/h (1 Bft) 97,87 %
22.07.2017 19:10 27,4 C 26,1 C 50 % 1012,1 hPa 0,0 l/m 1,3 km/h (1 Bft) SW 217 2 min 0,000 mm 0,0 UV-I 169 W/m 16,0 C 27,4 C 4,8 km/h (1 Bft) 94,74 %
22.07.2017 19:12 27,4 C 26,1 C 49 % 1012,1 hPa 0,0 l/m 2,1 km/h (1 Bft) SW 217 2 min 0,000 mm 0,0 UV-I 165 W/m 15,7 C 27,4 C 4,8 km/h (1 Bft) 95,83 %
22.07.2017 19:14 27,4 C 26,1 C 50 % 1012,1 hPa 0,0 l/m 1,2 km/h (1 Bft) SW 224 2 min 0,000 mm 0,0 UV-I 160 W/m 16,0 C 27,4 C 4,8 km/h (1 Bft) 92,00 %
22.07.2017 19:16 27,3 C 26,1 C 50 % 1012,1 hPa 0,0 l/m 3,8 km/h (1 Bft) SW 227 2 min 0,000 mm 0,0 UV-I 155 W/m 15,9 C 27,3 C 6,4 km/h (2 Bft) 97,87 %
22.07.2017 19:18 27,3 C 26,1 C 50 % 1012,1 hPa 0,0 l/m 5,2 km/h (1 Bft) SW 235 2 min 0,000 mm 0,0 UV-I 151 W/m 15,9 C 27,3 C 6,4 km/h (2 Bft) 97,87 %
22.07.2017 19:20 27,3 C 26,1 C 50 % 1012,1 hPa 0,0 l/m 4,1 km/h (1 Bft) SW 235 2 min 0,000 mm 0,0 UV-I 147 W/m 15,9 C 27,3 C 4,8 km/h (1 Bft) 97,87 %
22.07.2017 19:22 27,3 C 26,1 C 50 % 1012,1 hPa 0,0 l/m 3,6 km/h (1 Bft) SW 235 2 min 0,000 mm 0,0 UV-I 142 W/m 15,9 C 27,3 C 6,4 km/h (2 Bft) 100,00 %
22.07.2017 19:24 27,3 C 26,1 C 50 % 1012,1 hPa 0,0 l/m 2,5 km/h (1 Bft) SW 235 2 min 0,000 mm 0,0 UV-I 139 W/m 15,9 C 27,3 C 4,8 km/h (1 Bft) 97,87 %
22.07.2017 19:26 27,3 C 26,1 C 50 % 1012,1 hPa 0,0 l/m 0,9 km/h (0 Bft) SW 235 2 min 0,000 mm 0,0 UV-I 134 W/m 15,9 C 27,3 C 3,2 km/h (1 Bft) 97,87 %
22.07.2017 19:28 27,3 C 26,1 C 51 % 1012,1 hPa 0,0 l/m 0,1 km/h (0 Bft) SW 235 2 min 0,000 mm 0,0 UV-I 129 W/m 16,3 C 27,3 C 1,6 km/h (1 Bft) 97,87 %
22.07.2017 19:30 27,2 C 26,1 C 51 % 1012,1 hPa 0,0 l/m 2,0 km/h (1 Bft) SW 234 2 min 0,000 mm 0,0 UV-I 125 W/m 16,2 C 27,2 C 4,8 km/h (1 Bft) 98,00 %
22.07.2017 19:32 27,2 C 26,1 C 51 % 1012,2 hPa 0,0 l/m 1,1 km/h (1 Bft) S 186 2 min 0,000 mm 0,0 UV-I 120 W/m 16,2 C 27,2 C 3,2 km/h (1 Bft) 97,87 %
22.07.2017 19:34 27,1 C 26,1 C 50 % 1012,2 hPa 0,0 l/m 0,1 km/h (0 Bft) S 186 2 min 0,000 mm 0,0 UV-I 116 W/m 15,8 C 27,1 C 1,6 km/h (1 Bft) 95,74 %
22.07.2017 19:36 27,1 C 26,1 C 51 % 1012,2 hPa 0,0 l/m 0,0 km/h (0 Bft) S 186 2 min 0,000 mm 0,0 UV-I 112 W/m 16,1 C 27,1 C 0,0 km/h (0 Bft) 95,74 %
22.07.2017 19:38 27,1 C 26,1 C 52 % 1012,2 hPa 0,0 l/m 3,4 km/h (1 Bft) S 189 2 min 0,000 mm 0,0 UV-I 108 W/m 16,4 C 27,1 C 6,4 km/h (2 Bft) 92,31 %
22.07.2017 19:40 27,1 C 26,1 C 51 % 1012,2 hPa 0,0 l/m 3,1 km/h (1 Bft) S 189 2 min 0,000 mm 0,0 UV-I 104 W/m 16,1 C 27,1 C 4,8 km/h (1 Bft) 97,87 %
22.07.2017 19:42 27,1 C 26,1 C 51 % 1012,2 hPa 0,0 l/m 2,2 km/h (1 Bft) S 189 2 min 0,000 mm 0,0 UV-I 100 W/m 16,1 C 27,1 C 3,2 km/h (1 Bft) 100,00 %
22.07.2017 19:44 27,2 C 26,1 C 49 % 1012,2 hPa 0,0 l/m 1,6 km/h (1 Bft) S 189 2 min 0,000 mm 0,0 UV-I 97 W/m 15,5 C 27,2 C 3,2 km/h (1 Bft) 95,74 %
22.07.2017 19:46 27,2 C 26,1 C 50 % 1012,2 hPa 0,0 l/m 0,6 km/h (0 Bft) S 189 2 min 0,000 mm 0,0 UV-I 92 W/m 15,9 C 27,2 C 3,2 km/h (1 Bft) 97,87 %
22.07.2017 19:48 27,2 C 26,1 C 50 % 1012,2 hPa 0,0 l/m 0,2 km/h (0 Bft) S 189 2 min 0,000 mm 0,0 UV-I 89 W/m 15,9 C 27,2 C 1,6 km/h (1 Bft) 97,87 %
22.07.2017 19:50 27,2 C 26,1 C 50 % 1012,2 hPa 0,0 l/m 0,0 km/h (0 Bft) S 189 2 min 0,000 mm 0,0 UV-I 85 W/m 15,9 C 27,2 C 1,6 km/h (1 Bft) 97,87 %
22.07.2017 19:52 27,1 C 26,1 C 51 % 1012,3 hPa 0,0 l/m 0,9 km/h (0 Bft) S 189 2 min 0,000 mm 0,0 UV-I 81 W/m 16,1 C 27,1 C 3,2 km/h (1 Bft) 100,00 %
22.07.2017 19:54 27,1 C 26,1 C 51 % 1012,2 hPa 0,0 l/m 1,6 km/h (1 Bft) S 189 2 min 0,000 mm 0,0 UV-I 77 W/m 16,1 C 27,1 C 3,2 km/h (1 Bft) 100,00 %
22.07.2017 19:56 27,0 C 26,1 C 52 % 1012,2 hPa 0,0 l/m 0,3 km/h (0 Bft) S 189 2 min 0,000 mm 0,0 UV-I 73 W/m 16,3 C 27,0 C 1,6 km/h (1 Bft) 100,00 %
22.07.2017 19:58 26,9 C 26,1 C 53 % 1012,2 hPa 0,0 l/m 0,5 km/h (0 Bft) S 189 2 min 0,000 mm 0,0 UV-I 70 W/m 16,5 C 26,9 C 1,6 km/h (1 Bft) 95,74 %
22.07.2017 20:00 26,9 C 26,1 C 52 % 1012,2 hPa 0,0 l/m 0,1 km/h (0 Bft) S 189 2 min 0,102 mm 0,0 UV-I 66 W/m 16,2 C 26,9 C 1,6 km/h (1 Bft) 100,00 %
22.07.2017 20:02 26,9 C 26,1 C 53 % 1012,2 hPa 0,0 l/m 0,1 km/h (0 Bft) S 189 0 min 0,000 mm 0,0 UV-I 62 W/m 16,5 C 26,9 C 1,6 km/h (1 Bft) 97,87 %
22.07.2017 20:04 26,9 C 26,1 C 53 % 1012,3 hPa 0,0 l/m 0,4 km/h (0 Bft) S 189 0 min 0,000 mm 0,0 UV-I 58 W/m 16,5 C 26,9 C 1,6 km/h (1 Bft) 100,00 %
22.07.2017 20:06 26,8 C 26,1 C 54 % 1012,2 hPa 0,0 l/m 0,0 km/h (0 Bft) S 189 0 min 0,000 mm 0,0 UV-I 55 W/m 16,7 C 26,8 C 0,0 km/h (0 Bft) 97,87 %
22.07.2017 20:08 26,8 C 26,1 C 53 % 1012,3 hPa 0,0 l/m 0,0 km/h (0 Bft) S 189 0 min 0,000 mm 0,0 UV-I 51 W/m 16,4 C 26,8 C 0,0 km/h (0 Bft) 95,74 %
22.07.2017 20:10 26,8 C 26,1 C 54 % 1012,3 hPa 0,0 l/m 0,0 km/h (0 Bft) S 189 0 min 0,000 mm 0,0 UV-I 48 W/m 16,7 C 26,8 C 0,0 km/h (0 Bft) 100,00 %
22.07.2017 20:12 26,6 C 26,1 C 56 % 1012,3 hPa 0,0 l/m 0,0 km/h (0 Bft) S 189 0 min 0,000 mm 0,0 UV-I 45 W/m 17,1 C 26,6 C 0,0 km/h (0 Bft) 91,49 %
22.07.2017 20:14 26,2 C 26,1 C 57 % 1012,3 hPa 0,0 l/m 0,0 km/h (0 Bft) S 189 0 min 0,000 mm 0,0 UV-I 43 W/m 17,0 C 26,2 C 0,0 km/h (0 Bft) 95,74 %
22.07.2017 20:16 25,8 C 26,1 C 60 % 1012,3 hPa 0,0 l/m 0,0 km/h (0 Bft) S 189 0 min 0,000 mm 0,0 UV-I 40 W/m 17,4 C 25,8 C 0,0 km/h (0 Bft) 97,87 %
22.07.2017 20:18 25,6 C 26,1 C 59 % 1012,3 hPa 0,0 l/m 0,0 km/h (0 Bft) S 189 0 min 0,000 mm 0,0 UV-I 31 W/m 17,0 C 25,6 C 0,0 km/h (0 Bft) 100,00 %
22.07.2017 20:20 25,4 C 26,1 C 61 % 1012,3 hPa 0,0 l/m 0,0 km/h (0 Bft) S 189 0 min 0,000 mm 0,0 UV-I 31 W/m 17,3 C 25,4 C 0,0 km/h (0 Bft) 97,22 %
22.07.2017 20:22 25,2 C 26,1 C 63 % 1012,4 hPa 0,0 l/m 0,0 km/h (0 Bft) S 189 0 min 0,000 mm 0,0 UV-I 31 W/m 17,6 C 25,2 C 0,0 km/h (0 Bft) 100,00 %
22.07.2017 20:24 24,9 C 26,1 C 63 % 1012,3 hPa 0,0 l/m 0,2 km/h (0 Bft) S 189 0 min 0,000 mm 0,0 UV-I 29 W/m 17,4 C 24,9 C 1,6 km/h (1 Bft) 97,96 %
22.07.2017 20:26 24,6 C 26,1 C 65 % 1012,3 hPa 0,0 l/m 0,4 km/h (0 Bft) S 189 0 min 0,000 mm 0,0 UV-I 25 W/m 17,6 C 24,6 C 1,6 km/h (1 Bft) 100,00 %
22.07.2017 20:28 24,3 C 26,1 C 65 % 1012,2 hPa 0,0 l/m 2,1 km/h (1 Bft) S 189 0 min 0,000 mm 0,0 UV-I 24 W/m 17,3 C 24,3 C 3,2 km/h (1 Bft) 97,87 %
22.07.2017 20:30 24,0 C 26,1 C 66 % 1012,2 hPa 0,0 l/m 2,8 km/h (1 Bft) S 189 0 min 0,000 mm 0,0 UV-I 22 W/m 17,2 C 24,0 C 3,2 km/h (1 Bft) 93,62 %
22.07.2017 20:32 23,7 C 26,1 C 67 % 1012,2 hPa 0,0 l/m 2,7 km/h (1 Bft) S 189 0 min 0,000 mm 0,0 UV-I 18 W/m 17,2 C 23,7 C 3,2 km/h (1 Bft) 97,87 %
22.07.2017 20:34 23,6 C 26,1 C 67 % 1012,2 hPa 0,0 l/m 2,2 km/h (1 Bft) S 189 0 min 0,000 mm 0,0 UV-I 16 W/m 17,1 C 23,6 C 3,2 km/h (1 Bft) 96,00 %
22.07.2017 20:36 23,5 C 26,1 C 68 % 1012,2 hPa 0,0 l/m 1,3 km/h (1 Bft) S 189 0 min 0,000 mm 0,0 UV-I 14 W/m 17,2 C 23,5 C 3,2 km/h (1 Bft) 97,87 %
22.07.2017 20:38 23,5 C 26,1 C 67 % 1012,2 hPa 0,0 l/m 0,8 km/h (0 Bft) S 189 2 min 0,000 mm 0,0 UV-I 12 W/m 17,0 C 23,5 C 1,6 km/h (1 Bft) 91,49 %
22.07.2017 20:40 23,6 C 26,1 C 68 % 1012,2 hPa 0,0 l/m 1,4 km/h (1 Bft) S 189 2 min 0,000 mm 0,0 UV-I 11 W/m 17,3 C 23,6 C 4,8 km/h (1 Bft) 95,74 %
22.07.2017 20:42 23,7 C 26,1 C 66 % 1012,2 hPa 0,0 l/m 3,2 km/h (1 Bft) S 189 0 min 0,000 mm 0,0 UV-I 11 W/m 17,0 C 23,7 C 4,8 km/h (1 Bft) 97,87 %
22.07.2017 20:44 23,8 C 26,1 C 65 % 1012,2 hPa 0,0 l/m 2,7 km/h (1 Bft) S 189 0 min 0,000 mm 0,0 UV-I 9 W/m 16,8 C 23,8 C 4,8 km/h (1 Bft) 97,87 %
22.07.2017 20:46 24,0 C 26,1 C 65 % 1012,2 hPa 0,0 l/m 1,3 km/h (1 Bft) S 189 0 min 0,000 mm 0,0 UV-I 9 W/m 17,0 C 24,0 C 3,2 km/h (1 Bft) 96,00 %
22.07.2017 20:48 23,9 C 26,1 C 65 % 1012,2 hPa 0,0 l/m 0,6 km/h (0 Bft) S 189 0 min 0,000 mm 0,0 UV-I 8 W/m 16,9 C 23,9 C 1,6 km/h (1 Bft) 97,87 %
22.07.2017 20:50 23,8 C 26,1 C 66 % 1012,2 hPa 0,0 l/m 1,2 km/h (1 Bft) S 189 0 min 0,000 mm 0,0 UV-I 7 W/m 17,1 C 23,8 C 3,2 km/h (1 Bft) 97,14 %
22.07.2017 20:52 23,6 C 26,1 C 67 % 1012,3 hPa 0,0 l/m 0,0 km/h (0 Bft) S 189 0 min 0,000 mm 0,0 UV-I 7 W/m 17,1 C 23,6 C 0,0 km/h (0 Bft) 94,00 %
22.07.2017 20:54 23,4 C 26,1 C 68 % 1012,2 hPa 0,0 l/m 0,0 km/h (0 Bft) S 189 0 min 0,000 mm 0,0 UV-I 7 W/m 17,1 C 23,4 C 0,0 km/h (0 Bft) 98,00 %
22.07.2017 20:56 23,3 C 26,1 C 69 % 1012,3 hPa 0,0 l/m 0,0 km/h (0 Bft) S 189 0 min 0,000 mm 0,0 UV-I 5 W/m 17,3 C 23,3 C 0,0 km/h (0 Bft) 93,62 %
22.07.2017 20:58 23,1 C 26,1 C 70 % 1012,3 hPa 0,0 l/m 0,0 km/h (0 Bft) S 189 0 min 0,000 mm 0,0 UV-I 5 W/m 17,3 C 23,1 C 0,0 km/h (0 Bft) 97,87 %
22.07.2017 21:00 23,0 C 26,1 C 70 % 1012,3 hPa 0,0 l/m 0,0 km/h (0 Bft) S 189 0 min 0,000 mm 0,0 UV-I 5 W/m 17,2 C 23,0 C 0,0 km/h (0 Bft) 91,67 %
22.07.2017 21:02 22,9 C 26,1 C 69 % 1012,3 hPa 0,0 l/m 0,0 km/h (0 Bft) S 189 0 min 0,025 mm 0,0 UV-I 5 W/m 16,9 C 22,9 C 0,0 km/h (0 Bft) 95,74 %
22.07.2017 21:04 22,9 C 26,1 C 69 % 1012,3 hPa 0,0 l/m 0,0 km/h (0 Bft) S 189 0 min 0,000 mm 0,0 UV-I 5 W/m 16,9 C 22,9 C 0,0 km/h (0 Bft) 97,87 %
22.07.2017 21:06 22,9 C 26,1 C 69 % 1012,3 hPa 0,0 l/m 0,0 km/h (0 Bft) S 189 0 min 0,000 mm 0,0 UV-I 5 W/m 16,9 C 22,9 C 0,0 km/h (0 Bft) 97,87 %
22.07.2017 21:08 22,9 C 26,1 C 69 % 1012,3 hPa 0,0 l/m 0,0 km/h (0 Bft) S 189 0 min 0,000 mm 0,0 UV-I 5 W/m 16,9 C 22,9 C 0,0 km/h (0 Bft) 98,00 %
22.07.2017 21:10 22,8 C 26,1 C 69 % 1012,4 hPa 0,0 l/m 0,0 km/h (0 Bft) S 189 0 min 0,000 mm 0,0 UV-I 5 W/m 16,8 C 22,8 C 0,0 km/h (0 Bft) 95,74 %
22.07.2017 21:12 22,7 C 26,1 C 69 % 1012,4 hPa 0,0 l/m 0,0 km/h (0 Bft) S 189 0 min 0,000 mm 0,0 UV-I 0 W/m 16,7 C 22,7 C 0,0 km/h (0 Bft) 93,62 %
22.07.2017 21:14 22,6 C 26,1 C 70 % 1012,4 hPa 0,0 l/m 0,0 km/h (0 Bft) S 189 0 min 0,000 mm 0,0 UV-I 0 W/m 16,8 C 22,6 C 0,0 km/h (0 Bft) 97,87 %
22.07.2017 21:16 22,5 C 26,1 C 70 % 1012,4 hPa 0,0 l/m 0,0 km/h (0 Bft) S 189 0 min 0,000 mm 0,0 UV-I 0 W/m 16,7 C 22,5 C 0,0 km/h (0 Bft) 97,87 %
22.07.2017 21:18 22,4 C 26,1 C 71 % 1012,4 hPa 0,0 l/m 0,0 km/h (0 Bft) S 189 0 min 0,000 mm 0,0 UV-I 0 W/m 16,9 C 22,4 C 0,0 km/h (0 Bft) 93,62 %
22.07.2017 21:20 22,2 C 26,1 C 72 % 1012,4 hPa 0,0 l/m 0,7 km/h (0 Bft) S 189 0 min 0,000 mm 0,0 UV-I 0 W/m 16,9 C 22,2 C 3,2 km/h (1 Bft) 95,74 %
22.07.2017 21:22 22,0 C 26,1 C 73 % 1012,5 hPa 0,0 l/m 2,3 km/h (1 Bft) S 189 0 min 0,000 mm 0,0 UV-I 0 W/m 16,9 C 22,0 C 3,2 km/h (1 Bft) 97,87 %
22.07.2017 21:24 21,8 C 26,1 C 74 % 1012,5 hPa 0,0 l/m 2,5 km/h (1 Bft) S 189 0 min 0,000 mm 0,0 UV-I 0 W/m 17,0 C 21,8 C 3,2 km/h (1 Bft) 97,14 %
22.07.2017 21:26 21,7 C 26,1 C 74 % 1012,5 hPa 0,0 l/m 2,2 km/h (1 Bft) S 189 0 min 0,000 mm 0,0 UV-I 0 W/m 16,9 C 21,7 C 3,2 km/h (1 Bft) 95,74 %
22.07.2017 21:28 21,6 C 26,1 C 74 % 1012,6 hPa 0,0 l/m 0,2 km/h (0 Bft) S 189 0 min 0,000 mm 0,0 UV-I 0 W/m 16,8 C 21,6 C 1,6 km/h (1 Bft) 95,74 %
22.07.2017 21:30 21,7 C 26,1 C 73 % 1012,6 hPa 0,0 l/m 0,0 km/h (0 Bft) S 189 0 min 0,000 mm 0,0 UV-I 0 W/m 16,6 C 21,7 C 0,0 km/h (0 Bft) 97,87 %
22.07.2017 21:32 21,8 C 26,1 C 73 % 1012,6 hPa 0,0 l/m 0,0 km/h (0 Bft) S 189 0 min 0,000 mm 0,0 UV-I 0 W/m 16,7 C 21,8 C 0,0 km/h (0 Bft) 94,34 %
22.07.2017 21:34 21,8 C 26,1 C 74 % 1012,6 hPa 0,0 l/m 0,0 km/h (0 Bft) S 189 0 min 0,000 mm 0,0 UV-I 0 W/m 17,0 C 21,8 C 0,0 km/h (0 Bft) 97,87 %
22.07.2017 21:36 21,8 C 26,1 C 74 % 1012,7 hPa 0,0 l/m 0,0 km/h (0 Bft) S 189 0 min 0,000 mm 0,0 UV-I 0 W/m 17,0 C 21,8 C 0,0 km/h (0 Bft) 95,74 %
22.07.2017 21:38 21,8 C 26,1 C 75 % 1012,8 hPa 0,0 l/m 0,0 km/h (0 Bft) S 189 0 min 0,000 mm 0,0 UV-I 0 W/m 17,2 C 21,8 C 0,0 km/h (0 Bft) 93,62 %
22.07.2017 21:40 21,7 C 26,1 C 75 % 1012,8 hPa 0,0 l/m 0,0 km/h (0 Bft) S 189 0 min 0,000 mm 0,0 UV-I 0 W/m 17,1 C 21,7 C 0,0 km/h (0 Bft) 95,83 %
22.07.2017 21:42 21,6 C 26,1 C 74 % 1012,8 hPa 0,0 l/m 0,0 km/h (0 Bft) S 189 0 min 0,000 mm 0,0 UV-I 0 W/m 16,8 C 21,6 C 0,0 km/h (0 Bft) 93,62 %
22.07.2017 21:44 21,6 C 26,1 C 73 % 1012,8 hPa 0,0 l/m 0,0 km/h (0 Bft) S 189 0 min 0,000 mm 0,0 UV-I 0 W/m 16,5 C 21,6 C 0,0 km/h (0 Bft) 97,87 %
22.07.2017 21:46 21,7 C 26,1 C 74 % 1012,8 hPa 0,0 l/m 0,0 km/h (0 Bft) S 189 0 min 0,000 mm 0,0 UV-I 0 W/m 16,9 C 21,7 C 0,0 km/h (0 Bft) 93,62 %
22.07.2017 21:48 21,6 C 26,1 C 74 % 1012,7 hPa 0,0 l/m 2,8 km/h (1 Bft) S 189 0 min 0,000 mm 0,0 UV-I 0 W/m 16,8 C 21,6 C 4,8 km/h (1 Bft) 95,74 %
22.07.2017 21:50 21,4 C 26,1 C 74 % 1012,6 hPa 0,0 l/m 4,2 km/h (1 Bft) S 189 0 min 0,000 mm 0,0 UV-I 0 W/m 16,6 C 21,4 C 6,4 km/h (2 Bft) 97,87 %
22.07.2017 21:52 21,3 C 26,1 C 75 % 1012,6 hPa 0,0 l/m 3,5 km/h (1 Bft) S 189 0 min 0,000 mm 0,0 UV-I 0 W/m 16,7 C 21,3 C 4,8 km/h (1 Bft) 95,74 %
22.07.2017 21:54 21,2 C 26,1 C 75 % 1012,6 hPa 0,0 l/m 4,1 km/h (1 Bft) S 189 0 min 0,000 mm 0,0 UV-I 0 W/m 16,6 C 21,2 C 4,8 km/h (1 Bft) 95,74 %
22.07.2017 21:56 21,1 C 26,1 C 75 % 1012,6 hPa 0,0 l/m 4,4 km/h (1 Bft) S 189 0 min 0,000 mm 0,0 UV-I 0 W/m 16,5 C 21,1 C 4,8 km/h (1 Bft) 97,37 %
22.07.2017 21:58 21,1 C 26,1 C 75 % 1012,6 hPa 0,0 l/m 4,8 km/h (1 Bft) S 188 0 min 0,000 mm 0,0 UV-I 0 W/m 16,5 C 21,1 C 6,4 km/h (2 Bft) 96,00 %
22.07.2017 22:00 21,1 C 26,1 C 74 % 1012,6 hPa 0,0 l/m 3,6 km/h (1 Bft) S 188 0 min 0,000 mm 0,0 UV-I 0 W/m 16,3 C 21,1 C 4,8 km/h (1 Bft) 94,00 %
22.07.2017 22:02 21,1 C 26,1 C 74 % 1012,5 hPa 0,0 l/m 3,5 km/h (1 Bft) S 188 0 min 0,025 mm 0,0 UV-I 0 W/m 16,3 C 21,1 C 4,8 km/h (1 Bft) 95,74 %
22.07.2017 22:04 21,1 C 26,1 C 74 % 1012,5 hPa 0,0 l/m 3,3 km/h (1 Bft) S 188 0 min 0,000 mm 0,0 UV-I 0 W/m 16,3 C 21,1 C 4,8 km/h (1 Bft) 95,74 %
22.07.2017 22:06 21,1 C 26,1 C 74 % 1012,4 hPa 0,0 l/m 2,1 km/h (1 Bft) S 188 0 min 0,000 mm 0,0 UV-I 0 W/m 16,3 C 21,1 C 3,2 km/h (1 Bft) 97,87 %
22.07.2017 22:08 21,2 C 26,1 C 74 % 1012,4 hPa 0,0 l/m 1,7 km/h (1 Bft) S 188 0 min 0,000 mm 0,0 UV-I 0 W/m 16,4 C 21,2 C 3,2 km/h (1 Bft) 95,74 %
22.07.2017 22:10 21,3 C 26,1 C 73 % 1012,4 hPa 0,0 l/m 1,4 km/h (1 Bft) S 188 0 min 0,000 mm 0,0 UV-I 0 W/m 16,3 C 21,3 C 3,2 km/h (1 Bft) 98,00 %
22.07.2017 22:12 21,3 C 26,1 C 73 % 1012,4 hPa 0,0 l/m 0,6 km/h (0 Bft) S 188 0 min 0,000 mm 0,0 UV-I 0 W/m 16,3 C 21,3 C 1,6 km/h (1 Bft) 100,00 %
22.07.2017 22:14 21,4 C 26,1 C 74 % 1012,4 hPa 0,0 l/m 0,0 km/h (0 Bft) S 188 0 min 0,000 mm 0,0 UV-I 0 W/m 16,6 C 21,4 C 0,0 km/h (0 Bft) 97,92 %
22.07.2017 22:16 21,4 C 26,1 C 74 % 1012,4 hPa 0,0 l/m 0,0 km/h (0 Bft) S 188 0 min 0,000 mm 0,0 UV-I 0 W/m 16,6 C 21,4 C 0,0 km/h (0 Bft) 100,00 %
22.07.2017 22:18 21,4 C 26,1 C 75 % 1012,5 hPa 0,0 l/m 0,0 km/h (0 Bft) S 188 0 min 0,000 mm 0,0 UV-I 0 W/m 16,8 C 21,4 C 0,0 km/h (0 Bft) 97,87 %
22.07.2017 22:20 21,3 C 26,1 C 76 % 1012,5 hPa 0,0 l/m 0,0 km/h (0 Bft) S 188 0 min 0,000 mm 0,0 UV-I 0 W/m 16,9 C 21,3 C 0,0 km/h (0 Bft) 97,87 %
22.07.2017 22:22 21,2 C 26,1 C 77 % 1012,5 hPa 0,0 l/m 0,0 km/h (0 Bft) S 188 0 min 0,000 mm 0,0 UV-I 0 W/m 17,0 C 21,2 C 0,0 km/h (0 Bft) 97,87 %
22.07.2017 22:24 21,1 C 26,1 C 78 % 1012,6 hPa 0,0 l/m 0,0 km/h (0 Bft) S 188 0 min 0,000 mm 0,0 UV-I 0 W/m 17,1 C 21,1 C 0,0 km/h (0 Bft) 95,74 %
22.07.2017 22:26 21,0 C 26,1 C 78 % 1012,5 hPa 0,0 l/m 0,0 km/h (0 Bft) S 188 0 min 0,000 mm 0,0 UV-I 0 W/m 17,0 C 21,0 C 1,6 km/h (1 Bft) 100,00 %
22.07.2017 22:28 20,8 C 26,1 C 78 % 1012,6 hPa 0,0 l/m 1,9 km/h (1 Bft) S 188 0 min 0,000 mm 0,0 UV-I 0 W/m 16,8 C 20,8 C 3,2 km/h (1 Bft) 95,74 %
22.07.2017 22:30 20,6 C 26,1 C 77 % 1012,5 hPa 0,0 l/m 3,2 km/h (1 Bft) S 188 0 min 0,000 mm 0,0 UV-I 0 W/m 16,4 C 20,6 C 4,8 km/h (1 Bft) 95,74 %
22.07.2017 22:32 20,6 C 26,1 C 77 % 1012,5 hPa 0,0 l/m 2,6 km/h (1 Bft) S 188 0 min 0,000 mm 0,0 UV-I 0 W/m 16,4 C 20,6 C 4,8 km/h (1 Bft) 98,00 %
22.07.2017 22:34 20,6 C 26,1 C 77 % 1012,6 hPa 0,0 l/m 2,2 km/h (1 Bft) S 188 0 min 0,000 mm 0,0 UV-I 0 W/m 16,4 C 20,6 C 4,8 km/h (1 Bft) 96,00 %
22.07.2017 22:36 20,6 C 26,1 C 77 % 1012,6 hPa 0,0 l/m 1,7 km/h (1 Bft) S 188 0 min 0,000 mm 0,0 UV-I 0 W/m 16,4 C 20,6 C 4,8 km/h (1 Bft) 91,49 %
22.07.2017 22:38 20,7 C 26,1 C 78 % 1012,6 hPa 0,0 l/m 0,0 km/h (0 Bft) S 188 0 min 0,000 mm 0,0 UV-I 0 W/m 16,7 C 20,7 C 1,6 km/h (1 Bft) 93,62 %
22.07.2017 22:40 20,7 C 26,1 C 77 % 1012,6 hPa 0,0 l/m 0,1 km/h (0 Bft) S 188 0 min 0,000 mm 0,0 UV-I 0 W/m 16,5 C 20,7 C 1,6 km/h (1 Bft) 97,87 %
22.07.2017 22:42 20,8 C 26,1 C 78 % 1012,7 hPa 0,0 l/m 0,0 km/h (0 Bft) S 188 0 min 0,000 mm 0,0 UV-I 0 W/m 16,8 C 20,8 C 0,0 km/h (0 Bft) 97,87 %
22.07.2017 22:44 20,7 C 25,6 C 78 % 1012,7 hPa 0,0 l/m 0,0 km/h (0 Bft) S 188 0 min 0,000 mm 0,0 UV-I 0 W/m 16,7 C 20,7 C 0,0 km/h (0 Bft) 97,30 %
22.07.2017 22:46 20,6 C 26,1 C 79 % 1012,7 hPa 0,0 l/m 0,0 km/h (0 Bft) S 188 0 min 0,000 mm 0,0 UV-I 0 W/m 16,8 C 20,6 C 0,0 km/h (0 Bft) 96,00 %
22.07.2017 22:48 20,6 C 26,1 C 79 % 1012,7 hPa 0,0 l/m 1,0 km/h (0 Bft) S 188 0 min 0,000 mm 0,0 UV-I 0 W/m 16,8 C 20,6 C 1,6 km/h (1 Bft) 98,00 %
22.07.2017 22:50 20,6 C 26,1 C 79 % 1012,8 hPa 0,0 l/m 1,2 km/h (1 Bft) S 188 0 min 0,000 mm 0,0 UV-I 0 W/m 16,8 C 20,6 C 3,2 km/h (1 Bft) 95,74 %
22.07.2017 22:52 20,4 C 25,6 C 79 % 1012,7 hPa 0,0 l/m 1,8 km/h (1 Bft) S 188 0 min 0,000 mm 0,0 UV-I 0 W/m 16,6 C 20,4 C 4,8 km/h (1 Bft) 92,00 %
22.07.2017 22:54 20,4 C 25,6 C 80 % 1012,7 hPa 0,0 l/m 1,9 km/h (1 Bft) S 188 0 min 0,000 mm 0,0 UV-I 0 W/m 16,8 C 20,4 C 4,8 km/h (1 Bft) 93,62 %
22.07.2017 22:56 20,3 C 25,6 C 80 % 1012,8 hPa 0,0 l/m 0,1 km/h (0 Bft) S 188 0 min 0,000 mm 0,0 UV-I 0 W/m 16,7 C 20,3 C 1,6 km/h (1 Bft) 97,22 %
22.07.2017 22:58 20,2 C 25,6 C 79 % 1012,8 hPa 0,0 l/m 2,6 km/h (1 Bft) S 188 0 min 0,000 mm 0,0 UV-I 0 W/m 16,4 C 20,2 C 4,8 km/h (1 Bft) 95,74 %
22.07.2017 23:00 20,2 C 25,6 C 79 % 1012,7 hPa 0,0 l/m 2,1 km/h (1 Bft) S 188 0 min 0,000 mm 0,0 UV-I 0 W/m 16,4 C 20,2 C 3,2 km/h (1 Bft) 91,49 %
22.07.2017 23:03 20,2 C 25,6 C 80 % 1012,7 hPa 0,0 l/m 1,5 km/h (1 Bft) S 188 0 min 0,000 mm 0,0 UV-I 0 W/m 16,6 C 20,2 C 3,2 km/h (1 Bft) 97,26 %
22.07.2017 23:04 20,2 C 25,6 C 80 % 1012,7 hPa 0,0 l/m 1,2 km/h (1 Bft) S 188 0 min 0,000 mm 0,0 UV-I 0 W/m 16,6 C 20,2 C 3,2 km/h (1 Bft) 100,00 %
22.07.2017 23:06 20,0 C 25,6 C 81 % 1012,7 hPa 0,0 l/m 1,0 km/h (0 Bft) S 188 0 min 0,000 mm 0,0 UV-I 0 W/m 16,6 C 20,0 C 3,2 km/h (1 Bft) 97,87 %
22.07.2017 23:08 20,1 C 25,6 C 81 % 1012,7 hPa 0,0 l/m 1,0 km/h (0 Bft) S 188 0 min 0,000 mm 0,0 UV-I 0 W/m 16,7 C 20,1 C 1,6 km/h (1 Bft) 97,87 %
22.07.2017 23:10 20,2 C 25,6 C 81 % 1012,7 hPa 0,0 l/m 1,4 km/h (1 Bft) S 188 0 min 0,000 mm 0,0 UV-I 0 W/m 16,8 C 20,2 C 1,6 km/h (1 Bft) 97,87 %
22.07.2017 23:12 20,2 C 25,6 C 81 % 1012,7 hPa 0,0 l/m 1,1 km/h (1 Bft) S 188 0 min 0,000 mm 0,0 UV-I 0 W/m 16,8 C 20,2 C 1,6 km/h (1 Bft) 98,00 %
22.07.2017 23:14 20,3 C 25,6 C 80 % 1012,7 hPa 0,0 l/m 2,4 km/h (1 Bft) S 188 0 min 0,000 mm 0,0 UV-I 0 W/m 16,7 C 20,3 C 4,8 km/h (1 Bft) 97,87 %
22.07.2017 23:16 20,2 C 25,6 C 80 % 1012,7 hPa 0,0 l/m 2,3 km/h (1 Bft) S 188 0 min 0,000 mm 0,0 UV-I 0 W/m 16,6 C 20,2 C 3,2 km/h (1 Bft) 95,74 %
22.07.2017 23:18 20,2 C 25,6 C 81 % 1012,7 hPa 0,0 l/m 2,0 km/h (1 Bft) S 188 0 min 0,000 mm 0,0 UV-I 0 W/m 16,8 C 20,2 C 3,2 km/h (1 Bft) 96,00 %
22.07.2017 23:20 20,1 C 25,6 C 81 % 1012,7 hPa 0,0 l/m 1,9 km/h (1 Bft) S 188 0 min 0,000 mm 0,0 UV-I 0 W/m 16,7 C 20,1 C 3,2 km/h (1 Bft) 97,14 %
22.07.2017 23:22 20,1 C 25,6 C 81 % 1012,7 hPa 0,0 l/m 0,5 km/h (0 Bft) S 188 0 min 0,000 mm 0,0 UV-I 0 W/m 16,7 C 20,1 C 1,6 km/h (1 Bft) 100,00 %
22.07.2017 23:24 20,0 C 25,6 C 81 % 1012,8 hPa 0,0 l/m 0,2 km/h (0 Bft) S 188 0 min 0,000 mm 0,0 UV-I 0 W/m 16,6 C 20,0 C 1,6 km/h (1 Bft) 100,00 %
22.07.2017 23:26 20,1 C 25,6 C 81 % 1012,8 hPa 0,0 l/m 0,3 km/h (0 Bft) S 188 0 min 0,000 mm 0,0 UV-I 0 W/m 16,7 C 20,1 C 1,6 km/h (1 Bft) 100,00 %
22.07.2017 23:28 20,1 C 25,6 C 80 % 1012,8 hPa 0,0 l/m 0,9 km/h (0 Bft) S 188 0 min 0,000 mm 0,0 UV-I 0 W/m 16,5 C 20,1 C 1,6 km/h (1 Bft) 97,87 %
22.07.2017 23:30 20,1 C 25,6 C 80 % 1012,9 hPa 0,0 l/m 1,6 km/h (1 Bft) S 188 0 min 0,000 mm 0,0 UV-I 0 W/m 16,5 C 20,1 C 3,2 km/h (1 Bft) 98,00 %
22.07.2017 23:32 20,1 C 25,6 C 80 % 1012,9 hPa 0,0 l/m 2,0 km/h (1 Bft) S 188 0 min 0,000 mm 0,0 UV-I 0 W/m 16,5 C 20,1 C 4,8 km/h (1 Bft) 100,00 %
22.07.2017 23:34 20,0 C 25,6 C 81 % 1012,9 hPa 0,0 l/m 2,1 km/h (1 Bft) S 188 0 min 0,000 mm 0,0 UV-I 0 W/m 16,6 C 20,0 C 4,8 km/h (1 Bft) 100,00 %
22.07.2017 23:36 20,0 C 25,6 C 81 % 1012,9 hPa 0,0 l/m 3,0 km/h (1 Bft) S 188 0 min 0,000 mm 0,0 UV-I 0 W/m 16,6 C 20,0 C 4,8 km/h (1 Bft) 97,87 %
22.07.2017 23:38 20,1 C 25,6 C 81 % 1012,9 hPa 0,0 l/m 2,0 km/h (1 Bft) S 188 0 min 0,000 mm 0,0 UV-I 0 W/m 16,7 C 20,1 C 3,2 km/h (1 Bft) 100,00 %
22.07.2017 23:40 20,1 C 25,6 C 80 % 1012,8 hPa 0,0 l/m 1,0 km/h (0 Bft) S 188 0 min 0,000 mm 0,0 UV-I 0 W/m 16,5 C 20,1 C 3,2 km/h (1 Bft) 97,87 %
22.07.2017 23:42 20,1 C 25,6 C 80 % 1012,8 hPa 0,0 l/m 2,5 km/h (1 Bft) S 188 0 min 0,000 mm 0,0 UV-I 0 W/m 16,5 C 20,1 C 3,2 km/h (1 Bft) 96,00 %
22.07.2017 23:44 20,1 C 25,6 C 81 % 1012,8 hPa 0,0 l/m 1,9 km/h (1 Bft) S 188 0 min 0,000 mm 0,0 UV-I 0 W/m 16,7 C 20,1 C 3,2 km/h (1 Bft) 100,00 %
22.07.2017 23:46 20,0 C 25,6 C 81 % 1012,7 hPa 0,0 l/m 2,2 km/h (1 Bft) S 188 0 min 0,000 mm 0,0 UV-I 0 W/m 16,6 C 20,0 C 3,2 km/h (1 Bft) 97,87 %
22.07.2017 23:48 20,0 C 25,6 C 81 % 1012,7 hPa 0,0 l/m 2,5 km/h (1 Bft) S 188 0 min 0,000 mm 0,0 UV-I 0 W/m 16,6 C 20,0 C 4,8 km/h (1 Bft) 100,00 %
22.07.2017 23:50 19,9 C 25,6 C 81 % 1012,7 hPa 0,0 l/m 3,6 km/h (1 Bft) S 188 0 min 0,000 mm 0,0 UV-I 0 W/m 16,5 C 19,9 C 4,8 km/h (1 Bft) 97,96 %
22.07.2017 23:52 20,0 C 25,6 C 82 % 1012,8 hPa 0,0 l/m 3,6 km/h (1 Bft) S 188 0 min 0,000 mm 0,0 UV-I 0 W/m 16,8 C 20,0 C 4,8 km/h (1 Bft) 95,74 %
22.07.2017 23:54 20,1 C 25,6 C 81 % 1012,7 hPa 0,0 l/m 4,2 km/h (1 Bft) S 188 0 min 0,000 mm 0,0 UV-I 0 W/m 16,7 C 20,1 C 6,4 km/h (2 Bft) 95,74 %
22.07.2017 23:56 20,1 C 25,6 C 81 % 1012,8 hPa 0,0 l/m 4,6 km/h (1 Bft) S 188 0 min 0,000 mm 0,0 UV-I 0 W/m 16,7 C 20,1 C 6,4 km/h (2 Bft) 95,74 %
22.07.2017 23:58 20,2 C 25,6 C 81 % 1012,7 hPa 0,0 l/m 3,5 km/h (1 Bft) S 188 0 min 0,000 mm 0,0 UV-I 0 W/m 16,8 C 20,2 C 4,8 km/h (1 Bft) 95,74 %
_ Min-Zeit 04:58 05:36 16:02 03:08 - 03:22 - - - - - - 04:19 04:22 03:34 14:40
Minimum _ 16,9 C 24,4 C 49 % 1008,6 hPa - 0,0 km/h (0 Bft) - - - - - - 15,2 C 13,0 C 0,0 km/h (0 Bft) 87,23 %
_ Max-Zeit 16:44 16:02 04:28 11:50 01:26 08:42 - - 05:40 15:00 13:54 12:56 20:22 16:48 08:38 00:02
Maximum _ 27,8 C 26,1 C 90 % 1013,6 hPa 0,2 l/m 17,7 km/h
W-NW (3 Bft)
- - 2 min 0,584 mm 6,5 UV-I 1111 W/m 17,6 C 27,8 C 29,0 km/h
W-SW (5 Bft)
100,00 %
Durchschnitt _ 22,4 C 25,3 C 70 % 1011,9 hPa #0,2 l/m 6,5 km/h (2 Bft) W-SW - #10:46 h #4,470 mm 2,7 UV-I 372 W/m 16,3 C 21,8 C 11,0 km/h (2 Bft) 96,71 %